[[{"header":{"parameterUnit":"m.s-1","parameterCategory":1,"la1":30.6,"la2":29.2853,"lo1":-89.7004,"lo2":-87.6739,"dy":0.0162,"dx":0.0183,"nx":112,"ny":82,"refTime":"2026-03-27T00:00:00:Z","depth":0,"parameterNumber":2,"parameterNumberName":"U-component_of_WINDS"},"data":[0.0,0.0,0.0,0.0,0.0,0.0,0.0,0.0,0.0,0.0,0.0,0.0,0.0,0.0,0.0,0.0,0.0,0.0,0.0,0.0,0.0,0.0,0.0,0.0,0.0,0.0,0.0,0.0,0.0,0.0,0.0,0.0,0.0,0.0,0.0,0.0,0.0,0.0,0.0,0.0,0.0,0.0,0.0,0.0,0.0,0.0,0.0,0.0,0.0,0.0,0.0,0.0,0.0,0.0,0.0,0.0,0.0,0.0,0.0,0.0,0.0,0.0,0.0,0.0,0.0,0.0,0.0,0.0,0.0,0.0,0.0,0.0,0.0,0.0,0.0,0.0,0.0,0.0,0.0,0.0,0.0,0.0,0.0,0.0,0.0,0.0,0.0,0.0,0.0,0.0,-4.6111,-4.6049,-4.8327,-4.9558,-4.885,-4.922,-4.8112,-4.4825,0.0,0.0,0.0,0.0,0.0,0.0,0.0,0.0,0.0,0.0,0.0,0.0,0.0,0.0,0.0,0.0,0.0,0.0,0.0,0.0,0.0,0.0,0.0,0.0,0.0,0.0,0.0,0.0,0.0,0.0,0.0,0.0,0.0,0.0,0.0,0.0,0.0,0.0,0.0,0.0,0.0,0.0,0.0,0.0,0.0,0.0,0.0,0.0,0.0,0.0,0.0,0.0,0.0,0.0,0.0,0.0,0.0,0.0,0.0,0.0,0.0,0.0,0.0,0.0,0.0,0.0,0.0,0.0,0.0,0.0,0.0,0.0,0.0,0.0,0.0,0.0,0.0,0.0,0.0,0.0,0.0,0.0,0.0,0.0,0.0,0.0,0.0,0.0,0.0,0.0,0.0,0.0,0.0,0.0,0.0,0.0,0.0,0.0,0.0,0.0,0.0,0.0,0.0,0.0,-4.5133,-4.7865,-4.9589,-5.0266,-4.9589,-4.9066,-4.7558,-4.4795,0.0,0.0,0.0,0.0,0.0,0.0,0.0,0.0,0.0,0.0,0.0,0.0,0.0,0.0,0.0,0.0,0.0,0.0,0.0,0.0,0.0,0.0,0.0,0.0,0.0,0.0,0.0,0.0,0.0,0.0,0.0,0.0,0.0,0.0,0.0,0.0,0.0,0.0,0.0,0.0,0.0,0.0,0.0,0.0,0.0,0.0,0.0,0.0,0.0,0.0,0.0,0.0,0.0,0.0,0.0,0.0,0.0,0.0,0.0,0.0,0.0,0.0,0.0,0.0,0.0,0.0,0.0,0.0,0.0,0.0,0.0,0.0,0.0,0.0,0.0,0.0,0.0,0.0,0.0,0.0,0.0,0.0,0.0,0.0,0.0,0.0,0.0,0.0,0.0,0.0,0.0,0.0,0.0,0.0,0.0,0.0,0.0,0.0,0.0,0.0,0.0,0.0,0.0,-4.5249,-4.6388,-4.9404,-5.0328,-5.042,-4.9743,-4.9374,-4.8019,-4.5311,-4.4825,0.0,0.0,0.0,0.0,0.0,0.0,0.0,0.0,0.0,0.0,0.0,0.0,0.0,0.0,0.0,0.0,0.0,0.0,0.0,0.0,0.0,0.0,0.0,0.0,0.0,0.0,0.0,0.0,0.0,0.0,0.0,0.0,0.0,0.0,0.0,0.0,0.0,0.0,0.0,0.0,0.0,0.0,0.0,0.0,0.0,0.0,0.0,0.0,0.0,0.0,0.0,0.0,0.0,0.0,0.0,0.0,0.0,0.0,0.0,0.0,0.0,0.0,0.0,0.0,0.0,0.0,0.0,0.0,0.0,0.0,0.0,0.0,0.0,0.0,0.0,0.0,0.0,0.0,0.0,0.0,0.0,0.0,0.0,0.0,0.0,0.0,0.0,0.0,0.0,0.0,0.0,0.0,0.0,0.0,0.0,0.0,0.0,0.0,0.0,0.0,0.0,0.0,-4.7086,-4.8132,-5.0451,-5.082,-5.0667,-4.9989,-4.9466,-4.8173,-4.5741,-4.4664,0.0,0.0,0.0,0.0,0.0,0.0,0.0,0.0,0.0,0.0,0.0,0.0,0.0,0.0,0.0,0.0,0.0,0.0,0.0,0.0,0.0,0.0,0.0,0.0,0.0,0.0,0.0,0.0,0.0,0.0,0.0,0.0,0.0,0.0,0.0,0.0,0.0,0.0,0.0,0.0,0.0,0.0,0.0,0.0,0.0,0.0,0.0,0.0,0.0,0.0,0.0,0.0,0.0,0.0,0.0,0.0,0.0,0.0,0.0,0.0,0.0,0.0,0.0,0.0,0.0,0.0,0.0,0.0,0.0,0.0,0.0,0.0,0.0,0.0,0.0,0.0,0.0,0.0,0.0,0.0,0.0,0.0,0.0,0.0,0.0,0.0,0.0,0.0,0.0,0.0,0.0,0.0,0.0,0.0,0.0,0.0,0.0,0.0,0.0,0.0,0.0,0.0,-4.7334,-4.953,-5.0605,-5.1251,-5.1374,-5.0697,-4.885,-4.7127,-4.568,-4.3802,0.0,0.0,0.0,0.0,0.0,0.0,0.0,0.0,0.0,0.0,0.0,0.0,0.0,0.0,0.0,0.0,0.0,0.0,0.0,0.0,0.0,0.0,0.0,0.0,0.0,0.0,0.0,0.0,0.0,0.0,0.0,0.0,0.0,0.0,0.0,0.0,0.0,0.0,0.0,0.0,0.0,0.0,0.0,0.0,0.0,0.0,0.0,0.0,0.0,0.0,0.0,0.0,0.0,0.0,0.0,0.0,0.0,0.0,0.0,0.0,0.0,0.0,0.0,0.0,0.0,0.0,0.0,0.0,0.0,0.0,0.0,0.0,0.0,0.0,0.0,0.0,0.0,0.0,0.0,0.0,0.0,0.0,0.0,0.0,0.0,0.0,0.0,0.0,0.0,0.0,0.0,0.0,0.0,0.0,0.0,0.0,0.0,0.0,0.0,0.0,0.0,0.0,-4.6255,-4.8012,0.0,-5.0123,-4.9939,-4.9665,-4.8565,-4.717,-4.5515,0.0,0.0,0.0,0.0,0.0,0.0,0.0,0.0,0.0,0.0,0.0,0.0,0.0,0.0,0.0,0.0,0.0,0.0,0.0,0.0,0.0,0.0,0.0,0.0,0.0,0.0,0.0,0.0,0.0,0.0,0.0,0.0,0.0,0.0,0.0,0.0,0.0,0.0,0.0,0.0,0.0,0.0,0.0,0.0,0.0,0.0,0.0,0.0,0.0,0.0,0.0,0.0,0.0,0.0,0.0,0.0,0.0,0.0,0.0,0.0,0.0,0.0,0.0,0.0,0.0,0.0,0.0,0.0,0.0,0.0,0.0,0.0,0.0,0.0,0.0,0.0,0.0,0.0,0.0,0.0,0.0,0.0,0.0,0.0,0.0,0.0,0.0,0.0,0.0,0.0,0.0,0.0,0.0,0.0,0.0,0.0,0.0,0.0,0.0,0.0,0.0,0.0,-4.3878,-4.5053,-4.6496,0.0,-4.8596,-4.8417,-4.8551,-4.739,-4.619,-4.5042,0.0,0.0,0.0,0.0,0.0,0.0,0.0,0.0,0.0,0.0,0.0,0.0,0.0,0.0,0.0,0.0,0.0,0.0,0.0,0.0,0.0,0.0,0.0,0.0,0.0,0.0,0.0,0.0,0.0,0.0,0.0,0.0,0.0,0.0,0.0,0.0,0.0,0.0,0.0,0.0,0.0,0.0,0.0,0.0,0.0,0.0,0.0,0.0,0.0,0.0,0.0,0.0,0.0,0.0,0.0,0.0,0.0,0.0,0.0,0.0,0.0,0.0,0.0,0.0,0.0,0.0,0.0,0.0,0.0,0.0,0.0,0.0,0.0,0.0,0.0,0.0,0.0,0.0,0.0,0.0,0.0,0.0,0.0,0.0,0.0,0.0,0.0,0.0,0.0,0.0,0.0,0.0,0.0,0.0,0.0,0.0,0.0,0.0,0.0,0.0,0.0,0.0,-4.2257,-4.3833,-4.5342,-4.6738,-4.6881,-4.7109,-4.7661,-4.5295,-4.3945,0.0,0.0,0.0,0.0,0.0,0.0,0.0,0.0,0.0,0.0,0.0,0.0,0.0,0.0,0.0,0.0,0.0,0.0,0.0,0.0,0.0,0.0,0.0,0.0,0.0,0.0,0.0,0.0,0.0,0.0,0.0,0.0,0.0,0.0,0.0,0.0,0.0,0.0,0.0,0.0,0.0,0.0,0.0,0.0,0.0,0.0,0.0,0.0,0.0,0.0,0.0,0.0,0.0,0.0,0.0,0.0,0.0,0.0,0.0,0.0,0.0,0.0,0.0,0.0,0.0,0.0,0.0,0.0,0.0,0.0,0.0,0.0,0.0,0.0,0.0,0.0,0.0,0.0,0.0,0.0,0.0,0.0,0.0,0.0,0.0,0.0,0.0,0.0,0.0,0.0,0.0,0.0,0.0,0.0,0.0,0.0,0.0,0.0,0.0,0.0,0.0,0.0,0.0,-4.1554,-4.3319,-4.4856,-4.6143,-4.6284,-4.6341,-4.6461,-4.5467,-4.4157,-4.2639,0.0,0.0,0.0,0.0,0.0,0.0,0.0,0.0,0.0,0.0,0.0,0.0,0.0,0.0,0.0,0.0,0.0,0.0,0.0,0.0,0.0,0.0,0.0,0.0,0.0,0.0,0.0,0.0,0.0,0.0,0.0,0.0,0.0,0.0,0.0,0.0,0.0,0.0,0.0,0.0,0.0,0.0,0.0,0.0,0.0,0.0,0.0,0.0,0.0,0.0,0.0,0.0,0.0,0.0,0.0,0.0,0.0,0.0,0.0,0.0,0.0,0.0,0.0,0.0,0.0,0.0,0.0,0.0,0.0,0.0,0.0,0.0,0.0,0.0,0.0,0.0,0.0,0.0,0.0,0.0,0.0,0.0,0.0,0.0,0.0,0.0,0.0,0.0,0.0,0.0,0.0,0.0,0.0,0.0,0.0,0.0,0.0,0.0,0.0,0.0,0.0,0.0,-4.0603,-4.2175,-4.3606,-4.5025,-4.5189,-4.522,-4.5465,-4.4779,-4.3602,-4.1862,0.0,0.0,0.0,0.0,0.0,0.0,0.0,0.0,0.0,0.0,0.0,0.0,0.0,0.0,0.0,0.0,0.0,0.0,0.0,0.0,0.0,0.0,0.0,0.0,0.0,0.0,0.0,0.0,0.0,0.0,0.0,0.0,0.0,0.0,0.0,0.0,0.0,0.0,0.0,0.0,0.0,0.0,0.0,0.0,0.0,0.0,0.0,0.0,0.0,0.0,0.0,0.0,0.0,0.0,0.0,0.0,0.0,0.0,0.0,0.0,0.0,0.0,0.0,0.0,0.0,0.0,0.0,0.0,0.0,0.0,0.0,0.0,0.0,0.0,0.0,0.0,0.0,0.0,0.0,0.0,0.0,0.0,0.0,0.0,0.0,0.0,0.0,0.0,0.0,0.0,0.0,0.0,0.0,0.0,0.0,0.0,0.0,0.0,0.0,0.0,0.0,0.0,-3.9634,-4.0817,-4.2057,-4.3781,-4.3938,-4.4173,-4.4696,-4.3623,-4.2571,-4.1651,0.0,0.0,0.0,0.0,0.0,0.0,0.0,0.0,0.0,0.0,0.0,0.0,0.0,0.0,0.0,0.0,0.0,0.0,0.0,0.0,0.0,0.0,0.0,0.0,0.0,0.0,0.0,0.0,0.0,0.0,0.0,0.0,0.0,0.0,0.0,0.0,0.0,0.0,0.0,0.0,0.0,0.0,0.0,0.0,0.0,0.0,0.0,0.0,0.0,0.0,0.0,0.0,0.0,0.0,0.0,0.0,0.0,0.0,0.0,0.0,-4.2113,-4.1848,0.0,0.0,0.0,0.0,0.0,0.0,0.0,0.0,0.0,0.0,0.0,0.0,0.0,0.0,0.0,0.0,0.0,0.0,0.0,0.0,0.0,0.0,0.0,0.0,0.0,0.0,0.0,0.0,0.0,0.0,0.0,0.0,0.0,0.0,0.0,0.0,0.0,0.0,0.0,0.0,-3.9417,-4.1248,-4.2866,-4.4354,-4.4539,-4.4591,-4.4668,-4.3464,-4.2111,-4.0758,-3.8564,0.0,0.0,0.0,0.0,0.0,0.0,0.0,0.0,0.0,0.0,0.0,0.0,0.0,0.0,0.0,0.0,0.0,0.0,0.0,0.0,0.0,0.0,0.0,0.0,0.0,0.0,0.0,0.0,0.0,0.0,0.0,0.0,0.0,0.0,0.0,0.0,0.0,0.0,0.0,0.0,0.0,0.0,0.0,0.0,0.0,0.0,0.0,0.0,0.0,0.0,0.0,0.0,0.0,0.0,0.0,0.0,0.0,0.0,0.0,-4.1966,-4.1634,0.0,0.0,0.0,0.0,0.0,0.0,0.0,0.0,0.0,0.0,0.0,0.0,0.0,0.0,0.0,0.0,0.0,0.0,0.0,0.0,0.0,0.0,0.0,0.0,0.0,0.0,0.0,0.0,0.0,0.0,0.0,0.0,0.0,0.0,0.0,0.0,0.0,0.0,0.0,0.0,-3.9343,-4.1234,-4.2912,-4.4183,-4.4313,-4.4313,-4.4313,-4.3403,-4.2214,-4.0897,-3.8229,0.0,0.0,0.0,0.0,0.0,0.0,0.0,0.0,0.0,0.0,0.0,0.0,0.0,0.0,0.0,0.0,0.0,0.0,0.0,0.0,0.0,0.0,0.0,0.0,0.0,0.0,0.0,0.0,0.0,0.0,0.0,0.0,0.0,0.0,0.0,0.0,0.0,0.0,0.0,0.0,0.0,0.0,0.0,0.0,0.0,0.0,0.0,0.0,0.0,0.0,0.0,0.0,0.0,-4.1005,-4.1352,-4.18,-4.2279,-4.2131,-4.1443,-4.1777,-4.1444,-4.0715,-4.0901,0.0,0.0,0.0,0.0,0.0,0.0,0.0,0.0,0.0,0.0,0.0,0.0,0.0,0.0,0.0,0.0,0.0,0.0,0.0,0.0,0.0,0.0,0.0,0.0,-3.5876,-3.5663,-3.4152,0.0,0.0,0.0,0.0,0.0,0.0,0.0,0.0,0.0,0.0,0.0,-3.8792,-4.0534,-4.2048,-4.3139,-4.324,-4.324,-4.324,-4.2654,-4.1843,-4.0835,-3.7861,-3.5868,0.0,0.0,0.0,0.0,0.0,0.0,0.0,0.0,0.0,0.0,0.0,0.0,0.0,0.0,0.0,0.0,0.0,0.0,0.0,0.0,0.0,0.0,0.0,0.0,0.0,0.0,0.0,0.0,0.0,0.0,0.0,0.0,-4.2721,-4.2798,0.0,0.0,0.0,0.0,0.0,0.0,0.0,0.0,0.0,0.0,0.0,0.0,0.0,-3.9937,-4.0129,-4.1103,-4.1874,-4.2312,-4.3333,-4.4043,-4.4456,-4.4592,-4.4525,-4.4412,-4.364,0.0,-4.0736,-4.1359,0.0,0.0,0.0,0.0,0.0,0.0,0.0,0.0,0.0,0.0,0.0,0.0,0.0,0.0,0.0,0.0,0.0,0.0,0.0,0.0,0.0,0.0,-3.5512,-3.5449,-3.547,-3.5365,0.0,-3.4493,-3.4202,-3.3679,-3.3332,0.0,0.0,0.0,0.0,0.0,0.0,0.0,-3.6573,-3.8099,-3.9585,-4.0497,-4.0626,-4.0626,-4.0626,-3.9807,-3.9207,-3.8785,-3.6633,-3.5289,-3.5125,-3.2976,0.0,0.0,0.0,0.0,0.0,0.0,0.0,0.0,0.0,0.0,0.0,0.0,0.0,0.0,0.0,0.0,0.0,0.0,0.0,0.0,0.0,0.0,0.0,0.0,0.0,0.0,0.0,0.0,0.0,-4.1479,-4.1879,-4.1076,-4.215,-4.1907,0.0,0.0,0.0,0.0,0.0,0.0,0.0,0.0,0.0,-3.9467,-3.9914,-4.0211,-4.0252,-4.0988,-4.1571,-4.2046,-4.2548,-4.3002,-4.3478,-4.3478,-4.3478,-4.3478,-4.3069,-4.2244,-4.1188,-4.1088,-4.0364,-3.9276,0.0,0.0,0.0,0.0,-3.8034,-3.7782,-3.747,-3.7088,-3.6733,-3.6786,0.0,0.0,0.0,0.0,0.0,0.0,0.0,0.0,0.0,0.0,-3.5562,-3.608,-3.6204,-3.608,-3.5625,-3.5236,-3.4644,0.0,-3.3377,-3.3203,-3.3101,0.0,0.0,0.0,0.0,-3.5845,-3.6464,-3.7709,-3.8816,-3.9558,-3.9604,-3.9604,-3.9604,-3.922,-3.8839,-3.8423,-3.668,-3.5521,-3.5159,-3.3344,-3.2225,0.0,0.0,0.0,0.0,0.0,0.0,0.0,0.0,0.0,0.0,0.0,0.0,0.0,0.0,0.0,0.0,0.0,0.0,0.0,0.0,0.0,0.0,0.0,0.0,0.0,0.0,0.0,0.0,-4.0841,-4.1011,-3.9884,-4.1212,-4.1114,0.0,0.0,0.0,0.0,0.0,0.0,-3.9646,-3.9938,-4.0069,-4.0161,-4.0608,-4.079,-4.0717,-4.0944,-4.1276,-4.1825,-4.1628,-4.1887,-4.2322,-4.2322,-4.2384,-4.2435,-4.2435,-4.2166,-4.17,-4.0965,-3.9987,-3.8938,-3.8869,-3.8842,-3.882,-3.8636,-3.8548,-3.847,-3.7981,-3.7734,-3.7541,-3.705,-3.62,-3.5376,-3.5057,0.0,0.0,0.0,0.0,-3.4724,-3.5862,-3.5933,-3.5869,-3.6612,-3.6841,-3.6717,-3.639,-3.5832,-3.502,0.0,-3.354,-3.3356,-3.287,0.0,0.0,0.0,0.0,-3.5242,-3.6095,-3.701,-3.7806,-3.8186,-3.8209,-3.8209,-3.8209,-3.8209,-3.8052,-3.7635,-3.6406,-3.549,-3.5102,-3.3715,-3.2628,-3.1932,0.0,0.0,0.0,0.0,0.0,0.0,0.0,0.0,0.0,0.0,0.0,0.0,0.0,0.0,0.0,0.0,0.0,0.0,0.0,0.0,0.0,0.0,0.0,0.0,0.0,0.0,0.0,0.0,0.0,-4.0739,-4.1489,0.0,0.0,0.0,0.0,-3.9431,-3.9977,-4.0185,-3.9909,-4.0757,-4.1169,-4.0838,-4.1316,-4.1742,-4.2219,-4.1825,-4.1845,-4.2302,-4.1772,-4.1887,-4.2322,-4.2322,-4.2497,-4.289,-4.289,-4.2642,-4.2219,-4.1244,-4.056,-4.0041,-3.9176,-3.8802,-3.8699,-3.7892,-3.758,-3.758,-3.7535,-3.72,-3.6972,-3.7868,-3.6869,-3.5231,-3.4417,-3.3813,0.0,0.0,-3.4448,-3.4963,-3.5537,-3.5994,-3.6446,-3.6836,-3.6901,-3.6844,-3.6802,-3.6059,-3.5128,0.0,-3.3734,-3.3455,-3.3551,0.0,-3.3541,-3.3563,-3.4391,-3.4819,-3.4303,-3.4999,-3.5582,-3.5603,-3.5603,-3.5603,-3.5603,-3.5603,-3.5582,-3.5561,-3.5145,-3.4875,-3.4791,-3.3859,-3.338,-3.3356,-3.119,0.0,0.0,0.0,0.0,0.0,0.0,0.0,0.0,0.0,0.0,0.0,0.0,0.0,0.0,0.0,0.0,0.0,0.0,0.0,0.0,0.0,0.0,0.0,0.0,0.0,0.0,0.0,0.0,-3.9929,-4.1706,0.0,-3.9325,-3.9515,-3.9579,-3.9109,-3.9514,-4.0124,-4.0962,-4.1059,-4.1306,-4.1797,-4.1705,-4.1698,-4.1915,-4.1997,-4.2023,-4.19,-4.203,-4.2177,-4.2322,-4.2322,-4.2497,-4.2911,-4.2911,-4.2663,-4.2302,-4.197,-4.1151,-4.0158,-3.9468,-3.922,-3.9179,-3.8937,-3.8812,-3.8745,-3.8541,-3.8165,-3.7668,-3.7202,-3.6176,-3.508,-3.4471,-3.4166,-3.4085,-3.4248,-3.459,-3.5154,-3.5881,-3.6239,-3.6475,-3.691,-3.7038,-3.6835,-3.6302,-3.5895,-3.5407,-3.4492,-3.402,-3.3793,-3.3491,-3.35,-3.35,-3.35,-3.3991,-3.4442,-3.4505,-3.5045,-3.5418,-3.5418,-3.5418,-3.5418,-3.5418,-3.5418,-3.5418,-3.5418,-3.5273,-3.5066,-3.4837,-3.4264,-3.3699,-3.2987,-3.147,-3.0334,0.0,0.0,0.0,0.0,0.0,0.0,0.0,0.0,0.0,0.0,0.0,0.0,0.0,0.0,0.0,0.0,0.0,0.0,0.0,0.0,0.0,0.0,0.0,0.0,0.0,-3.9281,-4.0195,-3.9558,-4.1343,-4.1756,-3.9316,-3.9731,-3.9941,-3.9605,-3.9704,-4.033,-4.1592,-4.1379,-4.1576,-4.2307,-4.21,-4.1867,-4.1706,-4.1791,-4.1658,-4.1285,-4.1343,-4.1489,-4.1653,-4.1489,-4.1838,-4.2461,-4.2392,-4.2248,-4.2105,-4.1941,-4.1264,-4.0207,-3.9898,-3.9713,-3.9552,-3.9552,-3.9552,-3.9511,-3.9016,-3.847,-3.7942,-3.6763,-3.5947,-3.5405,-3.4963,-3.4842,-3.4863,-3.5023,-3.52,-3.5471,-3.6236,-3.637,-3.6383,-3.6796,-3.6876,-3.6703,-3.5952,-3.5836,-3.5489,-3.4604,-3.4329,-3.4082,-3.3631,-3.3548,-3.3487,-3.3461,-3.3772,-3.4163,-3.4592,-3.4903,-3.5046,-3.5046,-3.5046,-3.5046,-3.5046,-3.5026,-3.4944,-3.4882,-3.48,-3.4655,-3.4246,-3.3901,-3.333,-3.2576,-3.1238,-2.9924,-2.8532,0.0,0.0,0.0,0.0,0.0,0.0,0.0,0.0,0.0,0.0,0.0,0.0,0.0,0.0,0.0,0.0,0.0,0.0,0.0,0.0,0.0,0.0,0.0,-3.7443,-3.9034,-4.0026,-3.9592,-4.0443,-4.1027,-4.0914,-3.9841,-3.9605,-4.089,-4.0585,-4.0747,-4.163,-4.169,-4.1871,-4.235,-4.237,-4.2149,-4.1706,-4.1283,-4.0841,-4.0378,-3.9935,-3.9956,-4.0378,-3.9935,-4.0479,-4.165,-4.1263,-4.1324,-4.1686,-4.1243,-4.078,-4.0318,-4.0257,-4.0022,-3.9714,-3.9694,-3.9694,-3.9573,-3.8688,-3.8105,-3.7533,-3.665,-3.6369,-3.6288,-3.5847,-3.5706,-3.5806,-3.6248,-3.6124,-3.5957,-3.6352,-3.6268,-3.6084,-3.6384,-3.6451,-3.6348,-3.5887,-3.5771,-3.5489,-3.4541,-3.436,-3.422,-3.386,-3.3799,-3.3781,-3.3637,-3.3761,0.0,-3.4289,-3.4347,-3.4423,-3.4403,-3.4403,-3.4403,-3.4403,-3.4329,-3.4146,-3.384,-3.3679,-3.3496,-3.3196,-3.2772,-3.2446,-3.2289,-3.0513,-2.9213,-2.8333,0.0,0.0,0.0,0.0,0.0,0.0,0.0,0.0,0.0,0.0,0.0,0.0,0.0,0.0,0.0,0.0,0.0,0.0,0.0,0.0,0.0,-3.6719,-3.7483,-3.756,-3.9129,-4.0213,-4.0092,-4.1245,-4.1892,-4.1522,-4.1157,-4.1122,-4.1514,-4.1384,-4.1605,-4.2169,-4.1902,-4.1808,-4.1985,-4.1695,-4.1266,-4.0813,-4.0999,-4.0713,-3.9957,-4.0111,-4.0257,-4.0378,-4.0257,-4.076,-4.167,-4.1605,-4.1424,-4.1243,-4.1177,-4.0452,-3.9552,-3.9775,-3.9786,-3.9674,-3.9352,-3.9109,-3.8704,-3.7808,-3.749,-3.7252,-3.6386,-3.611,-3.6091,-3.5953,-3.5913,-3.5953,-3.6071,-3.6043,-3.6014,-3.6112,-3.6084,-3.6016,-3.6152,-3.6152,-3.5897,-3.5166,-3.5034,-3.4713,-3.3847,-3.367,-3.3757,-3.4138,-3.4242,-3.4202,-3.4205,-3.4223,0.0,-3.4366,-3.4405,-3.4302,-3.398,-3.396,-3.396,-3.396,-3.3962,-3.3902,-3.3779,-3.3781,-3.3579,-3.3216,-3.2835,-3.2376,-3.1761,-3.073,-2.9312,0.0,0.0,0.0,0.0,0.0,0.0,0.0,0.0,0.0,0.0,0.0,0.0,0.0,0.0,0.0,0.0,0.0,0.0,0.0,0.0,0.0,0.0,-3.7815,-3.8697,-3.901,-4.0137,-4.0887,-4.0887,-4.1655,-4.2136,-4.2028,-4.1702,-4.1569,-4.1702,-4.1569,-4.1592,-4.1907,-4.1695,-4.156,-4.156,-4.1327,-4.0957,-4.0527,-4.0737,-4.0381,-3.9589,-3.9988,-4.0162,-4.0162,-4.0162,-4.0638,-4.1473,-4.1294,-4.1155,-4.1131,-4.0773,-4.0187,0.0,0.0,0.0,0.0,0.0,-3.8244,-3.7952,-3.744,-3.7182,-3.6953,-3.6465,-3.6172,-3.6016,-3.6016,-3.6016,-3.6016,-3.6016,-3.6016,-3.6016,-3.6016,-3.6016,-3.6016,-3.6016,-3.6016,-3.584,-3.5137,-3.4844,-3.4492,-3.3828,-3.3535,0.0,-3.3922,-3.3985,-3.3988,-3.3933,-3.3928,-3.3988,-3.3933,-3.3928,-3.3885,-3.3647,-3.3607,-3.3607,-3.3607,-3.3633,0.0,0.0,0.0,-3.2455,-3.1229,-3.1565,0.0,0.0,0.0,0.0,0.0,0.0,0.0,0.0,-2.6572,-2.5919,0.0,0.0,0.0,0.0,0.0,0.0,0.0,0.0,0.0,0.0,0.0,0.0,0.0,0.0,0.0,0.0,-3.8923,-4.0112,-4.0983,-4.1466,-4.1715,-4.1675,-4.1708,-4.185,-4.2216,-4.1618,-4.1327,-4.1695,-4.1405,-4.1152,-4.1094,-4.1094,0.0,0.0,0.0,-4.0859,-4.0527,-4.0527,-4.0117,-3.9355,-3.9766,-3.9961,-3.9961,-3.9961,-4.041,-4.1152,-4.0762,-4.0781,-4.1035,-4.0234,-3.9844,-3.9743,-3.9214,-3.8531,-3.7812,-3.7383,-3.7226,-3.7226,-3.7168,0.0,0.0,-3.6621,-3.6328,-3.6016,-3.6016,-3.6016,-3.5947,-3.5811,-3.5743,-3.5743,-3.5519,-3.5451,-3.5451,-3.5451,-3.5606,-3.5627,-3.4999,-3.4688,-3.4309,-3.3688,-3.3264,-3.2912,-3.2912,-3.3165,-3.3364,-3.3282,-3.3371,-3.3344,-3.3344,-3.3246,-3.3146,-3.3087,0.0,0.0,-3.2898,-3.2801,-3.2494,-3.1819,-3.1636,-3.056,-2.8377,-2.9583,-2.8932,-2.6014,-2.7615,-2.7914,-2.6682,-2.7019,-2.7047,-2.6889,-2.5649,-2.5321,0.0,0.0,0.0,0.0,0.0,0.0,0.0,0.0,0.0,0.0,0.0,0.0,0.0,0.0,0.0,-3.8026,-3.9141,-4.021,-4.1072,-4.1504,-4.166,-4.1326,-4.1268,-4.1327,-4.1405,-4.1327,-4.125,-4.1327,-4.125,-4.1016,-4.0664,-4.0644,-4.0488,-4.0156,-4.0137,-4.0254,-4.0527,-4.0527,-4.043,-4.0273,-4.0351,0.0,-4.041,-4.041,-4.0684,-4.1172,-4.1074,-4.0898,-4.0605,-4.0098,-3.9473,-3.8769,-3.8334,-3.7864,-3.7363,-3.6953,-3.6797,-3.6738,-3.6387,-3.6445,-3.6621,-3.6269,-3.6094,-3.6016,-3.6016,-3.6016,0.0,-3.454,-3.4264,-3.39,-3.27,-3.2351,-3.2351,-3.2351,-3.3345,-3.3808,-3.2152,-3.244,-3.2508,-3.0897,-3.0228,-3.003,-3.003,-3.1918,-3.3398,-3.3383,-3.3359,-3.3398,-3.3364,-3.239,-3.1577,-3.1262,-3.0193,-2.9555,-2.9555,-2.9549,-2.9461,-2.9327,-2.8975,-2.8569,-2.8102,-2.835,-2.8191,-2.7565,-2.7927,-2.7452,-2.6151,-2.6231,-2.569,-2.4728,-2.5171,-2.5298,0.0,0.0,0.0,0.0,0.0,0.0,0.0,0.0,0.0,0.0,0.0,-3.4789,-3.5679,0.0,-3.7359,-3.8891,-3.9723,-4.0508,-4.1367,-4.1855,-4.1953,-4.1543,-4.168,-4.1797,-4.1797,-4.1797,-4.1719,-4.1504,-4.1484,-4.1211,-4.0566,-4.0527,-4.0332,-3.9902,-3.9902,-4.0098,-4.0527,-4.0527,-4.0527,-4.0527,-4.0742,-4.0742,-4.0451,-3.9854,-4.0142,-4.1094,-3.9393,-3.8947,-3.9504,-3.8879,-3.8122,-3.7326,-3.691,-3.6923,-3.7226,-3.6582,-3.6348,-3.6348,-3.6348,-3.5847,-3.5205,-3.5205,-3.457,-3.3762,-3.3762,-3.3762,-3.3623,-3.2858,-3.263,-3.2491,-3.1719,-3.1508,-3.1508,-3.1508,-3.207,-3.2368,-3.1408,-3.1495,-3.1436,-3.0497,-3.0002,-2.9678,-2.9507,-3.0591,-3.1496,-3.1295,-3.1277,-3.1277,-3.1277,-3.0678,-3.0136,-2.9959,-2.9344,-2.8892,-2.8892,-2.8721,-2.8601,-2.8601,-2.8196,-2.7676,-2.706,-2.7613,-2.736,-2.6104,-2.6857,-2.6616,-2.5287,-2.5454,-2.5216,-2.4635,-2.5116,-2.5104,0.0,0.0,0.0,0.0,0.0,0.0,0.0,-3.3994,-3.4384,-3.4655,-3.4961,-3.5586,-3.6816,-3.7383,-3.8184,-3.9766,-4.0449,-4.1035,-4.1816,-4.2285,-4.2261,-4.1592,-4.2026,-4.2261,-4.1921,-4.184,-4.1625,-4.088,-4.0788,-4.0368,-3.9528,-3.9414,-3.9338,-3.9295,-3.9295,-3.9526,-3.9952,-3.9952,-3.9836,-3.9623,-4.0025,-4.0025,-3.9623,-3.8577,-3.8901,-4.004,-3.7126,-3.664,-3.7801,-3.7076,-3.6352,-3.5664,-3.5101,-3.5536,-3.6251,-3.5508,-3.5165,-3.5146,-3.5559,-3.4682,-3.34,-3.3707,-3.2738,-3.1508,-3.1508,-3.1508,-3.1437,-3.1155,-3.1084,-3.1014,-3.073,-3.066,-3.066,-3.066,-3.0872,-3.0943,-3.066,-3.0587,-3.0405,-3.0126,-2.9672,-2.9323,-2.9042,-2.8925,-2.896,-2.9185,-2.9182,-2.9182,-2.9182,-2.8986,-2.8789,-2.8789,-2.8592,-2.8394,-2.8394,-2.8112,-2.7945,-2.7945,-2.7599,-2.6937,-2.5874,-2.6873,-2.644,-2.4342,-2.5565,-2.5703,-2.4723,-2.4987,-2.5119,-2.5119,-2.5119,-2.4987,-3.2662,-3.2525,-3.2838,-3.2838,-3.3466,-3.4269,0.0,-3.5497,-3.5957,-3.6777,-3.6973,-3.7285,-3.8203,-3.8711,-3.9316,-4.0293,-4.1133,-4.1816,-4.2285,-4.2734,-4.2399,-4.0684,-4.1628,-4.176,-4.0166,-4.0003,-3.9332,-3.7652,-3.7009,-3.6435,-3.6018,-3.5434,-3.5722,-3.7126,-3.7126,-3.7496,-3.8176,-3.8195,-3.7578,-3.6505,-3.6539,-3.6539,-3.6505,-3.6379,-3.6396,-3.6539,-3.5874,-3.5467,-3.5279,-3.4847,-3.4433,-3.3891,-3.3184,-3.302,-3.3078,-3.2589,-3.2225,-3.2,-3.2052,-3.1965,-3.1789,-3.1841,-3.1683,-3.1508,-3.1508,-3.1508,-3.1226,-2.9806,-2.9449,-2.9178,-2.784,-2.7478,-2.7478,-2.7478,-2.8475,-2.9107,-2.7768,-2.8284,-2.8655,-2.727,-2.6717,-2.6479,-2.6449,-2.6195,-2.6685,-2.8839,-2.9182,-2.9182,-2.9182,-2.8131,-2.7352,-2.7435,-2.6301,-2.5592,-2.5592,-2.5547,-2.5465,-2.5465,-2.542,-2.5338,-2.5219,-2.5338,-2.5271,-2.5017,-2.5181,-2.5196,-2.5075,-2.5105,-2.5119,-2.5119,-2.5119,-2.5105,-3.3476,-3.3398,-3.3711,-3.4492,-3.5312,-3.6113,-3.6719,-3.7207,-3.7676,-3.8281,-3.8613,-3.9004,-3.9609,-4.0059,-4.0547,-4.1172,-4.0887,-4.0758,-4.1153,-4.0639,-3.9868,-3.8984,-3.9389,-3.9454,-3.8918,-3.8852,-3.8429,-3.7383,-3.6748,-3.6063,-3.5401,-3.4933,-3.4821,-3.4976,-3.5399,-3.5804,-3.6121,-3.635,-3.6253,-3.5994,-3.5994,-3.5994,-3.5994,-3.4961,-3.3872,-3.2786,-3.3597,-3.3684,-3.308,-3.2916,-3.2523,-3.1965,-3.167,-3.0792,-2.9802,-3.117,-3.1645,-3.1508,-3.1508,-3.0943,-3.0162,-3.0162,-2.9608,-2.8891,-2.8891,-2.8891,-2.8763,-2.8114,-2.7913,-2.7768,-2.7129,-2.6983,-2.6983,-2.6983,-2.7478,-2.7768,-2.7129,-2.7373,-2.7557,-2.6923,-2.6676,-2.653,-2.6339,-2.6193,-2.6334,-2.6941,-2.6894,-2.6835,-2.6835,-2.6301,-2.5981,-2.5981,-2.5457,-2.5119,-2.5119,-2.5119,-2.5119,-2.5119,-2.5119,-2.5119,-2.5119,-2.5119,-2.5119,-2.5119,-2.5119,-2.5119,-2.5119,-2.5119,-2.5154,-2.533,-2.533,-2.5432,-3.3887,-3.416,-3.4726,-3.5898,-3.6934,-3.7754,-3.8184,-3.8613,-3.9062,-3.9473,-3.9746,-3.998,-4.0293,-4.0395,-4.0527,-4.0834,-3.9862,-3.9264,-3.9641,-3.8743,-3.7811,-3.7115,-3.6913,-3.6794,-3.6448,-3.7008,-3.6908,-3.6034,-3.5344,-3.4702,-3.3898,-3.35,-3.3243,-3.3389,-3.3814,-3.4199,-3.4479,-3.4748,-3.4775,-3.4538,-3.4538,-3.4489,-3.4391,-3.3012,-3.1635,-3.0284,-3.1476,-3.1618,-3.1152,-3.0965,-3.0592,-3.0126,-3.0033,-2.8987,-2.7733,-2.9705,-3.0332,-3.0233,-3.0233,-2.9536,-2.8604,-2.8604,-2.7913,-2.6983,-2.6983,-2.6983,-2.6983,-2.6983,-2.6983,-2.6983,-2.6983,-2.6983,-2.6983,-2.6983,-2.6983,-2.6983,-2.6983,-2.6983,-2.6983,-2.6983,-2.6983,-2.691,-2.6676,-2.6559,-2.6339,-2.5871,-2.5447,-2.5154,-2.5134,-2.5119,-2.5119,-2.5119,-2.5119,-2.5119,-2.5119,-2.5119,-2.5119,-2.5119,-2.5119,-2.5119,-2.5119,-2.5119,-2.5163,-2.5183,-2.5183,-2.5227,-2.5315,-2.5315,-2.5432,-2.5666,-2.5666,-2.574,-3.3437,-3.4375,-3.5566,-3.6426,-3.7598,-3.8652,-3.9062,-3.9512,-3.998,-4.0391,-4.0176,-3.9902,-3.9922,-3.916,-3.8487,-3.8487,-3.8006,-3.7792,-3.8254,-3.7997,-3.7115,-3.5328,-3.4769,-3.3901,-3.2155,-3.3886,-3.419,-3.217,-3.1366,-3.0719,-3.0071,-2.9424,-3.0121,-3.2491,-3.2539,-3.2874,-3.3479,-3.3495,-3.2608,-3.0984,-3.0984,-3.0822,-3.0595,-3.0204,-2.9961,-2.9866,-2.9624,-2.9477,-2.9404,-2.8788,-2.8447,-2.8403,-2.8081,-2.7759,-2.7481,-2.7614,-2.7408,-2.7129,-2.7129,-2.7129,-2.7056,-2.7056,-2.7056,-2.6983,-2.6983,-2.6983,-2.6983,-2.6983,-2.6983,-2.6983,-2.6983,-2.6983,-2.6983,-2.6983,-2.6983,-2.6983,-2.6983,-2.6983,-2.6983,-2.6983,-2.6983,-2.6983,-2.6983,-2.672,-2.65,-2.6471,-2.593,-2.5403,-2.5163,-2.5119,-2.5119,-2.5119,-2.5119,-2.5119,-2.5119,-2.5119,-2.5119,-2.5119,-2.5119,-2.5119,-2.5119,-2.5119,-2.5198,-2.5505,-2.552,-2.5666,-2.5988,-2.5988,-2.5988,-2.6003,-2.6003,-2.5842,-3.4492,-3.5664,-3.6934,-3.8066,-3.9121,-3.998,-4.041,-4.0625,-4.0781,-4.0918,-4.0391,-3.9902,-3.9902,-3.8915,-3.8158,-3.8353,-3.6936,-3.5955,-3.6313,-3.5328,-3.4068,-3.3021,-3.2785,-3.2379,-3.1575,-3.2353,-3.2588,-3.1883,-3.0993,-3.0422,-3.0203,-2.9573,-2.9626,-3.0389,-3.0826,-3.1173,-3.1399,-3.161,-3.1279,-3.051,-3.029,-3.0129,-3.0027,-2.991,-2.9749,-2.9529,-2.9427,-2.9134,-2.8739,-2.852,-2.8183,-2.7788,-2.7686,-2.7437,-2.7159,-2.7159,-2.7086,-2.6983,-2.6983,-2.6983,-2.6983,-2.6983,-2.6983,-2.6983,-2.6983,-2.6983,-2.6983,-2.6983,-2.6983,-2.6983,-2.6983,-2.6983,-2.6983,-2.6983,-2.6983,-2.6983,-2.6983,-2.6983,-2.6983,-2.6983,-2.6983,-2.6983,-2.6983,-2.6896,-2.6749,-2.653,-2.6135,-2.574,-2.5418,-2.5564,-2.5696,-2.5696,-2.5696,-2.5696,-2.5696,-2.5696,-2.5696,-2.5696,-2.5696,-2.5696,-2.5696,-2.5696,-2.574,-2.5857,-2.5857,-2.59,-2.6018,-2.6018,-2.612,-2.6339,-2.612,-2.6076,-3.5312,-3.6543,-3.7689,-3.8341,-3.9032,-3.9508,-3.9378,-3.9786,-4.0275,-4.0275,-3.995,-3.9609,-3.9453,-3.7781,-3.6659,-3.754,-3.5967,-3.4795,-3.5272,-3.4201,-3.3033,-3.1927,-3.1593,-3.1373,-3.1154,-3.1329,-3.1446,-3.1446,-3.0773,-3.0387,-3.0269,-2.9676,-2.9427,-2.9544,-3.0035,-3.0313,-3.0431,-3.0554,-3.0495,-3.0255,-2.9851,-2.969,-2.969,-2.9573,-2.9398,-2.9193,-2.909,-2.8812,-2.8341,-2.8183,-2.7847,-2.7481,-2.7481,-2.7349,-2.7174,-2.7291,-2.7261,-2.7144,-2.7027,-2.6983,-2.6983,-2.6983,-2.6983,-2.6983,-2.6983,-2.6983,-2.6983,-2.6983,-2.6983,-2.6983,-2.6983,-2.6983,-2.6983,-2.6983,-2.6983,-2.6983,-2.6983,-2.6983,-2.6983,-2.6983,-2.6983,-2.6983,-2.6983,-2.6983,-2.6881,-2.6559,-2.6427,-2.6208,-2.5754,-2.5886,-2.6018,-2.6018,-2.6018,-2.6018,-2.6018,-2.6018,-2.6018,-2.6018,-2.6018,-2.6018,-2.6018,-2.6018,-2.6076,-2.6193,-2.6193,-2.6252,-2.6369,-2.6369,-2.6413,-2.65,-2.6296,-2.6179,-3.5724,-3.684,-3.7648,-3.7403,-3.7531,-3.7523,-3.631,-3.7339,-3.853,-3.853,-3.888,-3.9023,-3.8652,-3.5867,-3.4191,-3.607,-3.5076,-3.4139,-3.4735,-3.4545,-3.3731,-3.1969,-3.1242,-3.0846,-3.0817,-3.0803,-3.0803,-3.0817,-3.051,-3.0284,-2.991,-2.9559,-2.9529,-2.9851,-2.9866,-3.0012,-3.0401,-3.0387,-3.0225,-2.9837,-2.95,-2.9354,-2.9339,-2.9032,-2.8886,-2.8856,-2.8564,-2.8417,-2.8344,-2.773,-2.7481,-2.7481,-2.7481,-2.7495,-2.7539,-2.7817,-2.7744,-2.7422,-2.71,-2.6983,-2.6983,-2.6983,-2.6983,-2.6983,-2.6983,-2.6983,-2.6983,-2.6983,-2.6983,-2.6983,-2.6983,-2.6983,-2.6983,-2.6983,-2.6983,-2.6983,-2.6983,-2.6983,-2.6983,-2.6983,-2.6983,-2.6983,-2.6983,-2.6983,-2.6881,-2.6574,-2.6793,-2.6764,-2.612,-2.6061,-2.6061,-2.6061,-2.6061,-2.6061,-2.6061,-2.6061,-2.6061,-2.6061,-2.6061,-2.6061,-2.6061,-2.6061,-2.6208,-2.653,-2.653,-2.6676,-2.6969,-2.6969,-2.6793,-2.6471,-2.6457,-2.612,-3.5306,-3.5685,-3.5976,-3.7417,-3.707,-3.6435,-3.6058,-3.7046,-3.8108,-3.8108,-3.8141,-3.832,-3.8535,-3.5774,-3.389,-3.514,-3.367,-3.2573,-3.3246,-3.3051,-3.258,-3.1913,-3.1432,-3.1095,-3.0846,-3.0612,-3.0568,-3.0803,-3.0305,-3.0137,-3.0299,-2.969,-2.9529,-2.9851,-2.9866,-2.991,-3.0064,-2.9749,-2.9588,-2.95,-2.9164,-2.9017,-2.9017,-2.893,-2.8769,-2.8549,-2.8476,-2.8169,-2.7715,-2.7539,-2.7481,-2.7481,-2.7481,-2.7627,-2.7817,-2.7656,-2.7554,-2.7422,-2.71,-2.6983,-2.6983,-2.6983,-2.6983,-2.6983,-2.6983,-2.6983,-2.6983,-2.6983,-2.6983,-2.6983,-2.6983,-2.6983,-2.6983,-2.6983,-2.6983,-2.6983,-2.6983,-2.6983,-2.6983,-2.6983,-2.6983,-2.6983,-2.6983,-2.6983,-2.6969,-2.6881,-2.6939,-2.6852,-2.6427,-2.6588,-2.6749,-2.6749,-2.6749,-2.6749,-2.6749,-2.6749,-2.6749,-2.6749,-2.6749,-2.6749,-2.6749,-2.6749,-2.6778,-2.6866,-2.6866,-2.6793,-2.6632,-2.6632,-2.6457,-2.6135,-2.5886,-2.5681,-3.4625,-3.541,-3.6113,-3.5756,-3.5863,-3.5668,-3.4529,-3.5405,-3.6534,-3.678,-3.6967,-3.7226,-3.7656,-3.4849,-3.3095,-3.5086,-3.3856,-3.2768,-3.3436,-3.3497,-3.3146,-3.2118,-3.1593,-3.1242,-3.1051,-3.0744,-3.0627,-3.0817,-3.0364,-3.0217,-3.0539,-3.0086,-2.9822,-2.9866,-2.9866,-2.9793,-2.9647,-2.9471,-2.931,-2.9164,-2.8973,-2.8886,-2.8886,-2.8754,-2.8593,-2.8417,-2.8139,-2.7891,-2.7671,-2.7539,-2.7554,-2.7686,-2.7686,-2.7876,-2.8063,-2.7964,-2.7891,-2.7876,-2.7686,-2.7539,-2.7364,-2.7086,-2.6983,-2.6983,-2.6983,-2.6983,-2.7013,-2.7159,-2.7203,-2.7232,-2.7378,-2.7408,-2.7408,-2.7408,-2.7408,-2.7378,-2.7232,-2.7203,-2.7159,-2.7013,-2.6983,-2.6983,-2.6983,-2.6983,-2.6983,-2.6983,-2.6983,-2.6925,-2.6735,-2.6881,-2.6983,-2.6983,-2.6983,-2.6983,-2.6983,-2.6983,-2.6983,-2.6983,-2.6983,-2.6983,-2.6983,-2.6983,-2.6925,-2.6778,-2.6778,-2.6617,-2.6296,-2.6442,-2.6339,-2.6018,-2.5974,-2.5886,-3.4081,-3.5544,-3.6613,-3.3902,-3.4437,-3.5016,-3.2905,-3.3512,-3.4598,-3.521,-3.5609,-3.6113,-3.666,-3.4006,-3.2589,-3.5458,-3.457,-3.3683,-3.4092,-3.4422,-3.4009,-3.2455,-3.1739,-3.1359,-3.1315,-3.1051,-3.0876,-3.0832,-3.0568,-3.0525,-3.0803,-3.0481,-3.0211,-2.9807,-2.9764,-2.9603,-2.931,-2.931,-2.9164,-2.8886,-2.8886,-2.8886,-2.8886,-2.8622,-2.8476,-2.8403,-2.7847,-2.773,-2.7859,-2.7656,-2.773,-2.7947,-2.7947,-2.8136,-2.8491,-2.8461,-2.8432,-2.8355,-2.8311,-2.8107,-2.7771,-2.7247,-2.7086,-2.7115,-2.7071,-2.7086,-2.7174,-2.7466,-2.7539,-2.7598,-2.7801,-2.7874,-2.7874,-2.7874,-2.7874,-2.7876,-2.7598,-2.7539,-2.7437,-2.7115,-2.7056,-2.7042,-2.6998,-2.6983,-2.6983,-2.6983,-2.6983,-2.6983,-2.6983,-2.6983,-2.6983,-2.6983,-2.6983,-2.6983,-2.6983,-2.6983,-2.6983,-2.6983,-2.6954,-2.6925,-2.6852,-2.6808,-2.6662,-2.637,-2.6414,-2.6268,-2.6018,-2.6339,-2.6339,-2.6032,-2.631,-2.6296,-3.4942,-3.4501,-3.4078,-3.5181,-3.4437,-3.3596,-3.4121,-3.3703,-3.3489,-3.4595,-3.5193,-3.584,-3.6973,-3.5519,-3.4355,-3.5176,-3.4193,-3.3198,-3.2737,-3.252,-3.2318,-3.2338,-3.1944,-3.1607,-3.1329,-3.1256,-3.111,-3.0846,-3.0773,-3.0759,-3.0817,-3.0261,-2.9793,-2.9471,-2.9193,-2.9032,-2.8973,-2.8973,-2.8944,-2.8886,-2.8886,-2.8886,-2.8886,-2.8842,-2.8681,-2.8355,-2.8315,0.0,-2.7874,-2.7815,-2.799,-2.8282,-2.8282,-2.8534,-2.8783,-2.8534,-2.8432,-2.8403,-2.8049,-2.7917,-2.7815,-2.751,-2.7569,-2.773,-2.7466,-2.7583,-2.7788,-2.7771,-2.7786,-2.7801,-2.7859,-2.7874,-2.7874,-2.7874,-2.7874,-2.7859,-2.7801,-2.7786,-2.7773,-2.7452,-2.7393,-2.7305,-2.7042,-2.6983,-2.6983,-2.6983,-2.6983,-2.6983,-2.6983,-2.6983,-2.6983,-2.6983,-2.6983,-2.6983,-2.6983,-2.6983,-2.6983,-2.6983,-2.6735,-2.6445,-2.6157,-2.5898,-2.5739,-2.5682,-2.5941,-2.6055,-2.6018,-2.6339,-2.6339,-2.6018,-2.6076,-2.6076,-3.4133,-3.3678,-3.3385,-3.4424,-3.3807,-3.3305,-3.4765,-3.3799,-3.2916,-3.4134,-3.3964,-3.408,-3.5646,-3.4149,-3.3107,-3.4711,-3.337,-3.2279,-3.2678,-3.2029,-3.1783,-3.2456,-3.2251,-3.1929,-3.1593,-3.1417,-3.1183,-3.0846,-3.0817,-3.0759,-3.0583,-2.9968,-2.9544,-2.9383,-2.9061,-2.8886,-2.8886,-2.8886,-2.8886,-2.8886,-2.8886,-2.8886,-2.8886,-2.8725,-2.8578,-2.8355,-2.818,-2.8107,-2.8122,-2.8122,-2.8388,-2.8666,-2.8666,-2.8769,-2.8871,-2.8725,-2.8666,-2.8651,-2.8491,-2.8447,-2.8388,-2.8081,-2.7964,-2.7844,-2.7773,-2.7832,-2.7917,-2.8078,-2.8122,-2.8165,-2.8403,-2.8447,-2.8447,-2.8447,-2.8315,-2.8122,-2.8122,-2.799,-2.783,-2.7759,-2.7715,-2.7627,-2.7291,-2.7247,-2.7188,-2.7013,-2.6983,-2.6983,-2.6983,-2.6983,-2.6983,-2.6983,-2.6983,-2.6983,-2.6983,-2.6983,-2.6983,-2.6983,-2.6852,-2.6605,-2.6243,-2.6027,-2.5784,-2.5413,-2.577,-2.5841,-2.5666,-2.6197,-2.6427,-2.6266,-2.6442,-2.653,-3.3722,-3.3953,-3.4392,-3.4066,-3.3662,-3.3694,-3.5168,-3.3707,-3.2383,-3.3406,-3.2673,-3.2376,-3.3934,-3.252,-3.1826,-3.3893,-3.2827,-3.1985,-3.2836,-3.2168,-3.18,-3.2529,-3.2398,-3.2134,-3.1739,-3.1461,-3.1183,-3.0846,-3.07,-3.051,-3.0261,-2.969,-2.9339,-2.9281,-2.9017,-2.8856,-2.8798,-2.8798,-2.8754,-2.8695,-2.8754,-2.8798,-2.8783,-2.8608,-2.8534,-2.852,-2.8271,-2.83,-2.8534,-2.8534,-2.8681,-2.8886,-2.8886,-2.8886,-2.8886,-2.8886,-2.8886,-2.8886,-2.8886,-2.8886,-2.8856,-2.8608,-2.8359,-2.8063,-2.8005,-2.802,-2.8198,-2.8461,-2.8534,-2.8593,-2.8827,-2.8886,-2.8886,-2.8886,-2.871,-2.8534,-2.8534,-2.833,-2.8063,-2.799,-2.7976,-2.7949,-2.7642,-2.7583,-2.7466,-2.7144,-2.71,-2.7071,-2.6998,-2.6983,-2.6983,-2.6983,-2.6983,-2.6983,-2.6983,-2.6983,-2.6983,-2.691,-2.6779,-2.6518,-2.6066,-2.601,-2.5709,-2.5096,-2.5453,-2.5584,-2.554,-2.6156,-2.6531,-2.6617,-2.6866,-2.6983,-3.5312,-3.6597,-3.7755,-3.6155,-3.5288,-3.4994,-3.5595,-3.3428,-3.1461,-3.2089,-3.1782,-3.1681,-3.2604,-3.2588,-3.2507,-3.2743,-3.3391,-3.3552,-3.273,-3.2482,-3.2165,-3.194,-3.212,-3.2046,-3.1417,-3.1329,-3.1183,-3.0846,-3.0276,-2.9939,-2.9991,-2.9573,-2.9237,-2.8944,-2.89,-2.8754,-2.8476,-2.8476,-2.833,-2.7961,-2.833,-2.8476,-2.8491,-2.8739,-2.8842,-2.8842,-2.8812,-2.8827,0.0,-2.8842,-2.8871,-2.8886,-2.8886,-2.8886,-2.8886,-2.8886,-2.8886,-2.8886,-2.8886,-2.8886,-2.8886,-2.8856,-2.8827,-2.8754,-2.8476,-2.8593,-2.8812,-2.8842,-2.8842,-2.8856,-2.8886,-2.8886,-2.8886,-2.8886,-2.8871,-2.8842,-2.8842,-2.8827,-2.8725,-2.8447,-2.8311,-2.8286,-2.7888,-2.783,-2.7803,-2.7481,-2.7437,-2.732,-2.7027,-2.6983,-2.6983,-2.6983,-2.6983,-2.6983,-2.6983,-2.6983,-2.6838,-2.6473,-2.62,-2.5668,-2.5019,-2.4627,-2.4476,-2.4378,-2.4696,-2.5252,-2.587,-2.6199,-2.6575,-2.6939,-2.6983,-2.6983,-3.5531,-3.54,-3.5591,-3.5914,-3.4635,-3.398,-3.6195,-3.3944,-3.167,-3.2608,-3.1322,-3.0378,-3.1614,-3.1145,-3.0919,-3.204,-3.1784,-3.2053,-3.3919,-3.3312,-3.2726,-3.2952,-3.3022,-3.2668,-3.1414,-3.1315,-3.1183,-3.0846,-3.0232,-2.9866,-2.9866,-2.9369,-2.9017,-2.89,-2.8886,-2.8739,-2.837,-2.8432,-2.8195,-2.7874,-2.8209,-2.8432,-2.837,-2.8754,-2.8886,-2.8886,-2.8886,-2.8886,0.0,-2.8886,-2.8886,-2.8886,-2.8886,-2.8886,-2.8886,-2.8886,-2.8886,-2.8886,-2.8886,-2.8886,-2.8886,-2.8886,-2.8886,-2.8871,-2.8739,-2.8798,-2.8886,-2.8886,-2.8886,-2.8886,-2.8886,-2.8886,-2.8886,-2.8886,-2.8754,-2.8622,-2.8622,-2.8622,-2.8578,-2.8461,-2.8578,-2.8608,-2.83,-2.8165,-2.8139,-2.7803,-2.7759,-2.7715,-2.7583,-2.7408,-2.7276,-2.7276,-2.7115,-2.6983,-2.6983,-2.6983,-2.6838,-2.6399,-2.6442,-2.6118,-2.5395,-2.5376,-2.5269,-2.5046,-2.5378,-2.5648,-2.5764,-2.6098,-2.6424,-2.6619,-2.6619,-2.6765,-3.5418,-3.5076,-3.4961,-3.5187,-3.401,-3.3426,-3.5447,-3.3534,-3.1495,-3.2042,-3.0549,-2.9378,-2.9947,-2.9574,-2.9516,-3.0557,-3.0249,-3.0823,-3.3678,-3.3262,-3.2785,-3.3225,-3.3031,-3.2472,-3.146,-3.1155,-3.0934,-3.07,-3.0086,-2.972,-2.972,-2.9193,-2.8886,-2.8886,-2.8798,-2.8608,-2.83,-2.8198,-2.7993,-2.7671,-2.7993,-2.8154,-2.8169,-2.8476,-2.8666,-2.8754,-2.8754,-2.8812,0.0,-2.8886,-2.8886,-2.8886,-2.8886,-2.8886,-2.8886,-2.8886,-2.8886,-2.8886,-2.8886,-2.8886,-2.8886,-2.8886,-2.8886,-2.8886,-2.8886,-2.8886,-2.8886,-2.8886,-2.8886,-2.8886,-2.8886,-2.8886,-2.8886,-2.8886,-2.8651,-2.8432,-2.8432,-2.8282,-2.8224,-2.8224,-2.8549,-2.8695,-2.8476,-2.8505,-2.8461,-2.8063,-2.802,-2.799,-2.7888,-2.7759,-2.7613,-2.7613,-2.7408,-2.7232,-2.7144,-2.7144,-2.685,-2.6396,-2.6447,-2.6159,-2.5405,-2.552,-2.5553,-2.5251,-2.5478,-2.5609,-2.5554,-2.5764,-2.601,-2.6239,-2.6312,-2.6619,-3.5162,-3.6613,-3.7755,-3.4311,-3.3813,-3.3949,-3.2878,-3.1765,-3.0566,-2.9487,-2.9248,-2.8789,-2.7419,-2.8262,-2.8924,-2.8019,-2.9174,-3.048,-3.1211,-3.1798,-3.2109,-3.2143,-3.1448,-3.1181,-3.1449,-3.0856,-3.0446,-3.0431,-2.9749,-2.9383,-2.9383,-2.9061,-2.8886,-2.8886,-2.8593,-2.8209,-2.7888,-2.7642,-2.732,-2.6998,-2.7335,-2.7481,-2.7495,-2.7817,-2.8063,-2.8447,-2.8447,-2.8608,0.0,-2.8886,-2.8886,-2.8886,-2.8886,-2.8886,-2.8886,-2.8886,-2.8886,-2.8886,-2.8886,-2.8886,-2.8886,-2.8886,-2.8886,-2.8886,-2.8886,-2.8886,-2.8886,-2.8886,-2.8886,-2.8886,-2.8886,-2.8886,-2.8886,-2.8886,-2.8651,-2.8432,-2.8432,-2.8107,-2.7874,-2.7874,-2.8136,-2.837,-2.8432,-2.8695,-2.8783,-2.8476,-2.8355,-2.8238,-2.7917,-2.7874,-2.7874,-2.7874,-2.7874,-2.7817,-2.7495,-2.7369,-2.7036,-2.635,-2.5902,-2.5405,-2.4649,-2.4649,-2.4649,-2.4649,-2.4649,-2.4797,-2.5239,-2.5239,-2.5446,-2.58,-2.6239,-2.6619,-3.4649,-3.4631,-3.4633,-3.3222,-3.2791,-3.2771,-3.3018,-3.1823,-3.0648,-3.0662,-2.91,-2.7602,-2.7153,-2.7485,-2.7812,-2.8016,-2.8466,-2.9494,-3.1463,-3.1946,-3.1851,-3.1241,-3.0624,-3.038,-3.0725,-3.0543,-3.0343,-3.0123,-2.9617,-2.9281,-2.9061,-2.8754,-2.8578,-2.8578,-2.8491,-2.8183,-2.7627,-2.7525,-2.732,-2.6998,-2.732,-2.7481,-2.7495,-2.7803,-2.7932,-2.8034,-2.8268,-2.8491,-2.8593,-2.8798,-2.8886,-2.8886,-2.8886,-2.8886,-2.8886,-2.8886,-2.8886,-2.8886,-2.8886,-2.8886,-2.8886,-2.8886,-2.8886,-2.8886,-2.8886,-2.8886,-2.8886,-2.8886,-2.8886,-2.8886,-2.8886,-2.8886,-2.8886,-2.8886,-2.8491,-2.8093,-2.8311,-2.8008,-2.7686,-2.783,-2.8136,-2.8297,-2.8063,-2.8373,-2.8549,-2.8461,-2.8432,-2.8322,-2.8207,-2.7956,-2.7812,-2.7812,-2.7812,-2.7835,-2.7757,-2.774,-2.7363,-2.6659,-2.6418,-2.6013,-2.5237,-2.5237,-2.5237,-2.5237,-2.5237,-2.5219,-2.5167,-2.5167,-2.5208,-2.5373,-2.6319,-2.6788,-3.432,-3.3965,-3.3444,-3.2013,-3.2083,-3.2474,-3.2325,-3.1281,-3.0319,-3.0479,-2.8706,-2.6953,-2.6435,-2.6753,-2.7095,-2.7007,-2.7254,-2.8154,-2.9934,-3.0589,-3.0792,-3.0421,-3.0115,-2.9972,-3.0005,-2.9983,-2.9851,-2.9529,-2.9208,-2.8886,-2.8549,-2.8359,-2.8122,-2.8081,-2.8081,-2.7876,-2.7481,-2.7349,-2.7188,-2.6998,-2.7203,-2.7291,-2.7305,-2.7495,-2.7656,-2.7788,-2.811,-2.8253,0.0,-2.8769,-2.8886,-2.8886,-2.8886,-2.8886,-2.8886,-2.8886,-2.8886,-2.8886,-2.8886,-2.8886,-2.8886,-2.8886,-2.8886,-2.8886,-2.8886,-2.8886,-2.8886,-2.8886,-2.8886,-2.8886,-2.8886,-2.8886,-2.8856,-2.8739,-2.833,-2.7903,-2.8052,-2.7671,-2.7349,-2.7554,-2.7847,-2.8052,-2.7888,-2.8151,-2.8432,-2.8432,-2.8278,-2.8154,-2.7994,-2.7705,-2.7648,-2.7802,-2.7917,-2.8057,-2.8238,-2.7994,-2.7554,-2.6892,-2.6475,-2.5984,-2.5358,-2.5237,-2.5184,-2.5184,-2.5184,-2.509,-2.4917,-2.5024,-2.5208,-2.5417,-2.6229,-2.6669,0.0,-3.428,-3.3804,-3.0705,-3.1548,-3.2623,-3.0874,-3.0072,0.0,-2.9119,-2.7932,-2.6568,-2.5322,-2.6182,-2.6651,-2.5381,-2.59,-2.6602,-2.7004,-2.8145,-2.912,-2.9529,-2.9786,-2.9761,-2.9439,-2.9383,-2.9237,-2.8886,-2.8593,-2.8286,-2.7859,-2.7844,-2.7773,-2.7452,-2.7437,-2.7437,-2.7437,-2.7144,-2.6983,-2.6983,-2.6983,-2.6983,-2.6983,-2.6983,-2.7159,0.0,-2.7803,-2.8049,-2.8355,-2.8754,-2.8886,-2.8886,-2.8886,-2.8886,-2.8886,-2.8886,-2.8886,-2.8886,-2.8886,-2.8886,-2.8886,-2.8886,-2.8886,-2.8886,-2.8886,-2.8886,-2.8886,-2.8886,-2.8886,-2.8886,-2.8886,-2.8886,-2.8812,-2.8534,-2.8122,-2.7876,-2.7598,-2.7261,-2.6998,-2.7013,-2.7276,-2.7569,-2.7786,-2.8183,-2.8341,-2.8355,-2.8019,-2.7688,-2.7445,-2.7234,-2.7235,-2.7648,-2.7982,-2.8296,-2.8749,-2.8061,-2.7479,-2.72,-2.6112,-2.5358,-2.509,-2.4796,-2.4636,-2.4636,-2.4589,-2.4676,-2.4629,-2.497,-2.5343,-2.5732,-2.6033,-2.6309,-3.3527,0.0,-3.2119,-2.9919,-2.9764,-2.9811,0.0,-2.7844,-2.7715,-2.7634,-2.6501,-2.5442,-2.5187,-2.539,-2.5621,-2.578,-2.6193,-2.657,-2.6602,-2.7135,-2.788,-2.8954,-2.9147,-2.9231,-2.9404,-2.9383,-2.9149,-2.8578,-2.8476,-2.8183,-2.7613,-2.7583,-2.7437,-2.7115,-2.71,-2.71,-2.71,-2.7027,-2.6983,-2.6983,-2.6983,-2.6983,-2.6983,-2.6983,-2.7027,-2.713,-2.77,-2.7917,-2.8034,-2.8666,-2.8886,-2.8886,-2.8886,-2.8886,-2.8886,-2.8886,-2.8886,-2.8886,-2.8886,-2.8886,-2.8886,-2.8886,-2.8886,-2.8886,-2.8886,-2.8886,-2.8886,-2.8886,-2.8886,-2.8886,-2.8886,-2.8886,-2.8871,-2.8798,-2.8359,-2.7917,-2.8169,-2.7569,-2.7071,-2.732,-2.7422,-2.7495,-2.7569,-2.7847,-2.8002,-2.7928,-2.7693,-2.7373,-2.7162,-2.6625,-2.6474,-2.6862,-2.6738,-2.6794,-2.7239,-2.7543,-2.7565,-2.7186,-2.6212,-2.552,-2.5077,-2.4796,-2.4636,-2.4636,-2.4863,-2.509,-2.5304,-2.5384,-2.5487,-2.5577,-2.618,-2.6548,-3.3418,-3.2687,-3.1498,-2.982,-2.9438,-2.9058,-2.7659,-2.7197,-2.7086,-2.7153,-2.5911,-2.4899,-2.4899,-2.4899,-2.5017,-2.5301,-2.5754,-2.6208,-2.6661,-2.6749,-2.7291,-2.8725,-2.8769,-2.8856,-2.9325,-2.912,-2.8739,-2.818,-2.8081,-2.7773,-2.7276,-2.7261,-2.7174,-2.6998,-2.6983,-2.6983,-2.6983,-2.6983,-2.6983,-2.6983,-2.6983,-2.6983,-2.6983,-2.6983,-2.7071,-2.7247,-2.773,-2.7961,-2.8136,-2.8695,-2.8886,-2.8886,-2.8886,-2.8886,-2.8886,-2.8886,-2.8886,-2.8886,-2.8886,-2.8886,-2.8886,-2.8886,-2.8886,-2.8886,-2.8886,-2.8886,-2.8886,-2.8886,-2.8886,-2.8886,-2.8886,-2.8886,-2.8856,-2.871,-2.8315,-2.7917,-2.8107,-2.7569,-2.713,-2.7598,-2.7452,-2.7393,-2.7847,-2.7934,-2.79,-2.7836,-2.7506,-2.7171,-2.6671,-2.6303,-2.6171,-2.6566,-2.6553,-2.6694,-2.7144,-2.7249,-2.72,-2.6954,-2.6265,-2.5707,-2.5478,-2.5197,-2.5037,-2.5037,-2.5197,-2.5358,-2.5518,-2.5651,-2.5718,-2.5718,-2.6259,-2.6472,-3.3146,-3.2319,-3.1259,-2.9961,-2.9461,-2.8943,-2.753,-2.6925,-2.6741,-2.6823,-2.5565,-2.451,-2.4554,-2.4569,-2.4613,-2.4774,-2.533,-2.6091,-2.7071,-2.6925,-2.7261,-2.871,-2.8666,-2.871,-2.9251,-2.8783,-2.8224,-2.7903,-2.7656,-2.7335,-2.7013,-2.6983,-2.6983,-2.6983,-2.6983,-2.6983,-2.6983,-2.6983,-2.6983,-2.6983,-2.6983,-2.6983,-2.6983,-2.7042,-2.7217,-2.7495,0.0,0.0,-2.8461,-2.871,-2.8842,-2.8886,-2.8886,-2.8886,-2.8886,-2.8886,-2.8886,-2.8886,-2.8886,-2.8886,-2.8886,-2.8886,-2.8886,-2.8886,-2.8886,-2.8886,-2.8886,-2.8886,-2.8886,-2.8886,-2.8886,-2.8886,-2.8827,-2.8564,-2.8151,-2.7874,-2.7874,-2.7452,-2.7144,-2.7626,-2.7408,-2.7335,-2.8212,-2.8093,-2.7821,-2.7754,-2.7368,-2.6884,-2.6216,-2.603,-2.6061,-2.6503,-2.6694,-2.6881,-2.7259,-2.6845,-2.6503,-2.6503,-2.6152,-2.5892,-2.5892,-2.5651,-2.5531,-2.5585,-2.5585,-2.5598,-2.5651,-2.5905,-2.6026,-2.6104,-2.6279,-2.6386,-3.187,-3.1067,-3.0255,-2.9487,-2.8345,-2.7165,-2.5787,-2.5212,-2.4974,-2.4974,-2.4576,-2.4247,-2.451,-2.4569,-2.4832,-2.5666,-2.6339,-2.71,-2.8081,-2.7934,-2.8022,-2.8798,-2.8842,-2.8856,-2.8959,-2.8651,-2.8224,-2.7903,-2.7656,-2.7335,-2.7013,-2.6983,-2.6983,-2.6983,-2.6983,-2.6983,-2.6983,-2.6983,-2.6983,-2.6983,-2.6983,-2.6983,-2.6998,-2.7276,-2.7422,-2.7495,0.0,-2.8063,-2.837,-2.8491,-2.8651,-2.8886,-2.8886,-2.8886,-2.8886,-2.8886,-2.8886,-2.8886,-2.8886,-2.8886,-2.8886,-2.8886,-2.8886,-2.8886,-2.8886,-2.8886,-2.8886,-2.8886,-2.8886,-2.8886,-2.8886,-2.8886,-2.8871,-2.8827,-2.8373,-2.7874,-2.7874,-2.7452,-2.7013,-2.7115,-2.7276,-2.7539,-2.7874,-2.7908,-2.7768,-2.7678,-2.712,-2.6571,-2.6383,-2.5865,-2.5678,-2.6087,-2.5849,-2.5728,-2.5792,-2.5993,-2.6114,-2.6114,-2.5795,-2.5585,-2.5585,-2.5545,-2.5625,-2.5879,-2.5892,-2.6012,-2.6253,-2.6306,-2.6319,-2.6319,-2.6373,-2.6386,-3.1002,-3.0059,-2.9138,-2.8296,-2.7304,-2.633,-2.5481,-2.5066,-2.4899,-2.4899,-2.4569,-2.4393,-2.454,-2.4847,-2.5403,-2.6383,-2.6793,-2.7261,-2.799,-2.7976,-2.8183,-2.8812,-2.8739,-2.8651,-2.8651,-2.8198,-2.7861,-2.77,-2.7393,-2.7144,-2.6998,-2.6983,-2.6983,-2.6983,-2.6983,-2.6983,-2.6983,-2.6983,-2.6983,-2.6983,-2.6983,-2.6983,-2.6998,-2.7335,-2.7481,-2.7495,0.0,-2.8063,-2.8432,-2.8432,-2.8608,-2.8886,-2.8886,-2.8886,-2.8886,-2.8886,-2.8886,-2.8886,-2.8886,-2.8886,-2.8886,-2.8886,-2.8886,-2.8886,-2.8886,-2.8886,-2.8886,-2.8886,-2.8886,-2.8886,-2.8886,-2.8886,-2.8886,-2.8886,-2.8549,-2.8136,-2.8136,-2.7847,-2.7613,-2.7949,-2.7861,-2.7874,-2.8313,-2.81,-2.7685,-2.737,-2.6987,-2.6711,-2.6452,-2.6146,-2.6039,-2.6172,-2.6066,-2.5985,-2.5985,-2.6119,-2.6186,-2.6186,-2.6066,-2.5985,-2.5985,-2.5985,-2.6052,-2.6186,-2.6186,-2.6253,-2.6386,-2.6386,-2.6386,-2.6386,-2.6386,-2.6386,-3.0178,-2.9031,-2.7912,-2.6764,-2.6163,-2.5783,-2.5754,-2.5388,-2.5163,-2.5242,-2.4905,-2.4598,-2.4671,-2.533,-2.612,-2.6866,-2.7247,-2.7613,-2.8095,-2.8093,-2.833,-2.8739,-2.8578,-2.8326,-2.8253,-2.7803,-2.7481,-2.7481,-2.7174,-2.6983,-2.6983,-2.6983,-2.6983,-2.6983,-2.6983,-2.6983,-2.6983,-2.6983,-2.6983,-2.6983,-2.6983,-2.6983,-2.6998,-2.7335,-2.7481,-2.7495,-2.773,-2.8066,-2.8355,-2.8359,-2.8549,-2.8886,-2.8886,-2.8886,-2.8886,-2.8886,-2.8886,-2.8886,-2.8886,-2.8886,-2.8886,-2.8886,-2.8886,-2.8886,-2.8886,-2.8886,-2.8886,-2.8886,-2.8944,-2.8988,-2.8915,-2.8886,-2.8886,-2.8886,-2.8651,-2.8432,-2.8432,-2.8107,-2.802,-2.8424,-2.8191,-2.7994,-2.8325,-2.7955,-2.7459,-2.7069,-2.6953,-2.6781,-2.6465,-2.6386,-2.6386,-2.6386,-2.6386,-2.6386,-2.6386,-2.6386,-2.6386,-2.6386,-2.6386,-2.6386,-2.6386,-2.6386,-2.6386,-2.6386,-2.6386,-2.6386,-2.6386,-2.6386,-2.6386,-2.6386,-2.6386,-2.6386,-2.9136,-2.791,-2.6514,-2.5114,-2.4996,-2.5428,-2.6237,-2.5725,-2.5295,-2.5827,-2.5213,-2.4723,-2.5031,-2.6047,-2.691,-2.6983,-2.7978,-2.8769,-2.8812,-2.8827,-2.8739,-2.8505,-2.837,-2.8238,-2.7947,-2.7686,-2.7481,-2.7481,-2.7174,-2.6983,-2.6983,-2.6983,-2.6983,-2.6983,-2.6983,-2.6983,-2.6983,-2.6983,-2.6983,-2.6983,-2.6983,-2.6983,-2.6998,-2.7335,-2.7481,-2.7481,-2.7495,-2.7861,-2.8417,-2.8034,-2.8344,-2.8886,-2.8886,-2.8886,-2.8886,-2.8886,-2.8886,-2.8886,-2.8886,-2.8886,-2.8886,-2.8886,-2.8886,-2.8886,-2.8886,-2.8886,-2.8886,-2.8886,-2.9105,-2.9266,-2.8973,-2.8886,-2.8886,-2.8886,-2.8651,-2.8432,-2.8432,-2.8107,-2.7813,-2.7463,-2.7602,-2.7711,-2.7396,-2.7139,-2.7004,-2.7032,-2.6716,-2.6465,-2.6386,-2.6386,-2.6386,-2.6386,-2.6386,-2.6386,-2.6386,-2.6386,-2.6386,-2.6386,-2.6386,-2.6386,-2.6386,-2.6386,-2.6386,-2.6386,-2.6386,-2.6386,-2.6386,-2.6386,-2.6386,-2.6386,-2.6386,-2.6386,-2.7973,-2.6991,-2.5986,-2.4907,-2.4964,-2.5505,-2.6076,-2.6076,-2.6076,-2.653,-2.6164,-2.5813,-2.593,-2.6354,-2.6881,-2.7495,-2.8154,-2.8681,-2.8871,-2.8886,-2.8842,-2.8739,-2.8549,-2.8315,-2.7903,-2.7656,-2.7393,-2.7188,-2.7056,-2.6983,-2.6983,-2.6983,-2.6983,-2.6983,-2.6983,-2.6983,-2.6983,-2.6983,-2.6983,-2.6983,-2.6983,-2.6983,-2.6998,-2.7335,-2.7364,-2.7188,-2.7393,-2.773,-2.8034,-2.7788,-2.8139,-2.8886,-2.8886,-2.8886,-2.8886,-2.8886,-2.8886,-2.8886,-2.8886,-2.8886,-2.8886,-2.8886,-2.8886,-2.8886,-2.8886,-2.8886,-2.8886,-2.8886,-2.912,-2.9354,-2.9222,-2.9339,-2.95,-2.95,-2.9412,-2.9187,-2.8683,-2.8539,-2.8296,-2.7891,-2.7756,-2.7614,-2.7416,-2.7152,-2.6953,-2.6623,-2.6465,-2.6386,-2.6386,-2.6386,-2.6386,-2.6386,-2.6386,-2.6386,-2.6386,-2.6386,-2.6386,-2.6386,-2.6386,-2.6386,-2.6386,-2.6386,-2.6386,-2.6386,-2.6386,-2.6386,-2.6386,-2.6386,-2.6386,-2.6386,-2.6386,-2.6386,-2.6949,-2.5875,-2.4991,-2.4435,-2.4818,-2.5491,-2.5915,-2.6354,-2.6778,-2.7203,-2.6954,-2.6632,-2.653,-2.6588,-2.691,-2.7671,-2.8154,-2.8549,-2.8842,-2.8886,-2.8812,-2.8622,-2.8505,-2.8227,-2.77,-2.7539,-2.7349,-2.7013,-2.6983,-2.6983,-2.6983,-2.6983,-2.6983,-2.6983,-2.6983,-2.6983,-2.6983,-2.6983,-2.6983,-2.6983,-2.6983,-2.6983,-2.6998,-2.7217,-2.7203,-2.6998,-2.7232,-2.751,-2.7788,-2.7569,-2.7978,-2.8754,-2.8856,-2.8886,-2.8886,-2.8886,-2.8886,-2.8886,-2.8886,-2.8886,-2.8886,-2.8886,-2.8886,-2.8886,-2.8886,-2.8886,-2.8915,-2.9017,-2.9281,-2.9559,-2.9661,-2.9778,-2.9837,-2.9734,-2.9705,-2.9537,-2.8741,-2.8683,-2.8604,-2.7876,-2.7708,-2.7546,-2.7225,-2.693,-2.6702,-2.6465,-2.6386,-2.6386,-2.6386,-2.6386,-2.6386,-2.6386,-2.6386,-2.6386,-2.6386,-2.6386,-2.6386,-2.6386,-2.6386,-2.6386,-2.6386,-2.6386,-2.6386,-2.6386,-2.6386,-2.6386,-2.6386,-2.6386,-2.6386,-2.6386,-2.6386,-2.6386,-2.6002,-2.4392,-2.3193,-2.3515,-2.4335,-2.5295,-2.5886,-2.653,-2.7188,-2.7742,-2.7452,-2.6896,-2.6574,-2.6778,-2.71,-2.7422,-2.8008,-2.8534,-2.8842,-2.8886,-2.8651,-2.7947,-2.8151,-2.8052,-2.7086,-2.7291,-2.7349,-2.7013,-2.6983,-2.6983,-2.6983,-2.6983,-2.6983,-2.6983,-2.6983,-2.6983,-2.6983,-2.6983,-2.6983,-2.6983,-2.6983,-2.6983,-2.6983,-2.6983,-2.6983,-2.6983,-2.6983,-2.7174,-2.7481,-2.7481,-2.7861,-2.8461,-2.8769,-2.8886,-2.8886,-2.8886,-2.8886,-2.8886,-2.8886,-2.8886,-2.8886,-2.8886,-2.8886,-2.8886,-2.8886,-2.8886,-2.8959,-2.9281,-2.9617,-2.9939,-3.0343,-3.0196,-2.9793,-2.9456,-2.9383,-2.9216,-2.8439,-2.8588,-2.851,-2.7268,-2.7412,-2.7412,-2.6544,-2.6386,-2.6386,-2.6386,-2.6386,-2.6386,-2.6386,-2.6386,-2.6386,-2.6386,-2.6386,-2.6386,-2.6386,-2.6386,-2.6386,-2.6386,-2.6386,-2.6386,-2.6386,-2.6386,-2.6386,-2.6386,-2.6386,-2.6386,-2.6386,-2.6386,-2.6386,-2.6386,-2.6386,-2.6386,-2.4791,-2.404,-2.353,-2.3852,-2.4847,-2.59,-2.6559,-2.7203,-2.7788,-2.8212,-2.7964,-2.7495,-2.6954,-2.6925,-2.7027,-2.7115,-2.7481,-2.7876,-2.8183,-2.8227,-2.8078,-2.7888,-2.7961,-2.7891,-2.7378,-2.7422,-2.7349,-2.7013,-2.6983,-2.6983,-2.6983,-2.6983,-2.6983,-2.6983,-2.6983,-2.6983,-2.6983,-2.6983,-2.6983,-2.6983,-2.6983,-2.6983,-2.6983,-2.6983,-2.6983,-2.6983,-2.6983,-2.7174,-2.751,-2.7964,-2.8125,-2.8078,-2.8681,-2.8886,-2.8886,-2.8886,-2.8886,-2.8886,-2.8886,-2.8886,-2.8886,-2.8886,-2.8886,-2.8886,-2.8886,-2.8886,-2.8959,-2.9281,-2.9617,-2.9939,-3.0343,-3.0437,-3.0466,-3.0144,-2.9827,-2.9497,-2.9019,-2.8602,-2.8128,-2.7506,-2.7248,-2.7018,-2.6465,-2.6386,-2.6386,-2.6386,-2.6386,-2.6386,-2.6386,-2.6386,-2.6386,-2.6386,-2.6386,-2.6386,-2.6386,-2.6386,-2.6386,-2.6386,-2.6386,-2.6386,-2.6386,-2.6386,-2.6386,-2.6386,-2.6386,-2.6386,-2.6386,-2.6386,-2.6386,-2.6386,-2.6386,-2.6386,-2.4161,-2.3953,-2.4027,-2.4232,-2.5257,-2.6457,-2.7364,-2.7861,-2.8151,-2.8549,-2.8359,-2.7978,-2.7466,-2.7364,-2.7335,-2.7203,-2.7452,-2.773,-2.7844,-2.7874,-2.783,-2.7773,-2.7876,-2.7773,-2.732,-2.7393,-2.7349,-2.7013,-2.6983,-2.6983,-2.6983,-2.6983,-2.6983,-2.6983,-2.6983,-2.7274,-2.784,-2.7274,-2.7274,-2.784,-2.7274,-2.6983,-2.6983,-2.6983,-2.6983,-2.6983,-2.6983,-2.71,-2.732,-2.7847,-2.8022,-2.7917,-2.8505,-2.8783,-2.8886,-2.8886,-2.8886,-2.8886,-2.8886,-2.8886,-2.8886,-2.8886,-2.8886,-2.8886,-2.8886,-2.8886,-2.8988,-2.9442,-2.972,-2.9968,-3.0422,-3.0685,-3.0744,-3.0422,-3.0083,-2.9583,-2.8944,-2.8457,-2.7927,-2.7212,-2.6996,-2.6874,-2.6465,-2.6386,-2.6386,-2.6386,-2.6386,-2.6386,-2.6386,-2.6386,-2.6386,-2.6386,-2.6386,-2.6386,-2.6386,-2.6386,-2.6386,-2.6386,-2.6386,-2.6386,-2.6386,-2.6386,-2.6386,-2.6386,-2.6386,-2.6386,-2.6386,-2.6386,-2.6386,-2.6386,-2.6386,-2.6386,-2.3862,-2.4057,-2.4583,-2.4642,-2.5652,-2.6954,-2.8169,-2.8461,-2.8549,-2.8827,-2.8666,-2.8297,-2.7947,-2.7874,-2.7847,-2.7525,-2.77,-2.7801,-2.783,-2.7801,-2.7759,-2.7466,-2.7686,-2.7627,-2.7042,-2.7261,-2.7305,-2.7013,-2.6983,-2.6983,-2.6983,-2.6983,-2.6983,-2.6983,-2.7129,-2.784,-2.9178,-2.7913,-2.7913,-2.9178,-2.7695,-2.6983,-2.6983,-2.6983,-2.6983,-2.6983,-2.6983,-2.6983,-2.7013,-2.7349,-2.7656,-2.7903,-2.8238,-2.8622,-2.8886,-2.8886,-2.8886,-2.8886,-2.8886,-2.8886,-2.8886,-2.8886,-2.8886,-2.8886,-2.8886,-2.8886,-2.9032,-2.9676,-2.9866,-3.0012,-3.0656,-3.0817,-3.0759,-3.0466,-3.0115,-2.9537,-2.8405,-2.8267,-2.7897,-2.6702,-2.6781,-2.6939,-2.6465,-2.6386,-2.6386,-2.6386,-2.6386,-2.6386,-2.6386,-2.6386,-2.6386,-2.6386,-2.6386,-2.6386,-2.6386,-2.6386,-2.6386,-2.6386,-2.6386,-2.6386,-2.6386,-2.6386,-2.6386,-2.6386,-2.6386,-2.6386,-2.6386,-2.6386,-2.6386,-2.6386,-2.6386,-2.6386,-2.3271,-2.3881,-2.4686,-2.5198,-2.6486,-2.7698,-2.8315,-2.8622,-2.8812,-2.8871,-2.8842,-2.8622,-2.7976,-2.7874,-2.7847,-2.7525,-2.732,-2.7291,-2.7539,-2.7364,-2.7174,-2.71,-2.7159,-2.7144,-2.6998,-2.7056,-2.7071,-2.6998,-2.6983,-2.6983,-2.6983,-2.6983,-2.6983,-2.6983,-2.8114,-2.8891,-2.9178,-2.8891,-2.8891,-2.9178,-2.7695,-2.6983,-2.6983,-2.6983,-2.6983,-2.6983,-2.6983,-2.6983,-2.7013,-2.7349,-2.7656,-2.7903,-2.8238,-2.8622,-2.8886,-2.8886,-2.8886,-2.8886,-2.8886,-2.8886,-2.8886,-2.8886,-2.8886,-2.8886,-2.8886,-2.8886,-2.9032,-2.9676,-2.9866,-3.0012,-3.0656,-3.0817,-3.0803,-3.0744,-3.0045,-2.9215,-2.8739,-2.8504,-2.8054,-2.7032,-2.7175,-2.7254,-2.6544,-2.6386,-2.6386,-2.6386,-2.6386,-2.6386,-2.6386,-2.6386,-2.6386,-2.6386,-2.6386,-2.6386,-2.6386,-2.6386,-2.6386,-2.6386,-2.6386,-2.6386,-2.6386,-2.6386,-2.6386,-2.6386,-2.6386,-2.6386,-2.6386,-2.6386,-2.6386,-2.6386,-2.6386,-2.6386,-2.3676,-2.4291,-2.5301,-2.6413,-2.7363,-2.8271,-2.8578,-2.8769,-2.8886,-2.8886,-2.8769,-2.852,-2.7961,-2.7874,-2.7788,-2.732,-2.7232,-2.7232,-2.7247,-2.71,-2.6983,-2.6983,-2.6983,-2.6983,-2.6983,-2.6983,-2.6983,-2.6983,-2.6983,-2.6983,-2.6983,-2.6983,-2.6983,-2.6983,-2.8403,-2.952,-3.0305,-2.9592,-2.9592,-3.0305,-2.8057,-2.6983,-2.6983,-2.6983,-2.6983,-2.6983,-2.6983,-2.6983,-2.6998,-2.7174,-2.7525,-2.7888,-2.8063,-2.8491,-2.8886,-2.8886,-2.8886,-2.8886,-2.8886,-2.8886,-2.8886,-2.8886,-2.8886,-2.8886,-2.8886,-2.8886,-2.9032,-2.9676,-2.9866,-3.0012,-3.0656,-3.0817,-3.0788,-3.0627,-3.0054,-2.9419,-2.91,-2.8446,-2.7805,-2.711,-2.7018,-2.686,-2.6465,-2.6386,-2.6386,-2.6386,-2.6386,-2.6386,-2.6386,-2.6386,-2.6386,-2.6386,-2.6386,-2.6386,-2.6386,-2.6386,-2.6386,-2.6386,-2.6386,-2.6386,-2.6386,-2.6386,-2.6386,-2.6386,-2.6386,-2.6386,-2.6386,-2.6386,-2.6386,-2.6386,-2.6386,-2.6386,-2.4114,-2.4788,-2.5988,-2.748,-2.8078,-2.8447,-2.8812,-2.8856,-2.8812,-2.8812,-2.8608,-2.833,-2.7932,-2.783,-2.77,-2.7159,-2.7261,-2.732,-2.71,-2.7027,-2.6969,-2.691,-2.691,-2.691,-2.691,-2.691,-2.6925,-2.6983,-2.6983,-2.6983,-2.6983,-2.6983,-2.7129,-2.7347,-2.8819,-3.0305,-3.186,-3.0376,-3.0376,-3.186,-2.9107,-2.7768,-2.7768,-2.7768,-2.7623,-2.742,-2.742,-2.742,-2.742,-2.742,-2.7585,-2.7874,-2.7874,-2.833,-2.8886,-2.8886,-2.8886,-2.8886,-2.8886,-2.8886,-2.8886,-2.8886,-2.8886,-2.8886,-2.8886,-2.8886,-2.9032,-2.9676,-2.9866,-3.0012,-3.0656,-3.0817,-3.0744,-3.0422,-3.01,-2.9771,-2.9148,-2.8358,-2.7569,-2.7018,-2.6623,-2.6386,-2.6386,-2.6386,-2.6386,-2.6386,-2.6386,-2.6386,-2.6386,-2.6386,-2.6386,-2.6386,-2.6386,-2.6386,-2.6386,-2.6386,-2.6386,-2.6386,-2.6386,-2.6386,-2.6386,-2.6386,-2.6386,-2.6386,-2.6386,-2.6386,-2.6386,-2.6386,-2.6386,-2.6386,-2.6386,-2.6386,-2.3714,-2.4788,-2.6281,-2.7538,-2.7903,-2.8093,-2.8754,-2.8695,-2.8505,-2.8505,-2.8461,-2.833,-2.7932,-2.773,-2.751,-2.7422,-2.7217,-2.7144,-2.7378,-2.7174,-2.6881,-2.6603,-2.6574,-2.6574,-2.6574,-2.6574,-2.6691,-2.6969,-2.6983,-2.6983,-2.6983,-2.6983,-2.755,-2.8891,-3.0376,-3.193,-3.3484,-3.193,-3.2,-3.3484,-3.1719,-3.0872,-3.0872,-3.0872,-3.0162,-2.8891,-2.8891,-2.8891,-2.8891,-2.8891,-2.8511,-2.7874,-2.7874,-2.833,-2.8886,-2.8886,-2.8886,-2.8886,-2.8886,-2.8886,-2.8886,-2.8886,-2.8886,-2.8886,-2.8886,-2.8886,-2.9032,-2.9676,-2.9866,-3.0012,-3.0656,-3.0817,-3.0744,-3.0422,-3.01,-2.9632,-2.8462,-2.8216,-2.7883,-2.6702,-2.6465,-2.6386,-2.6386,-2.6386,-2.6386,-2.6386,-2.6386,-2.6386,-2.6386,-2.6386,-2.6386,-2.6386,-2.6386,-2.6386,-2.6386,-2.6386,-2.6386,-2.6386,-2.6386,-2.6386,-2.6386,-2.6386,-2.6386,-2.6386,-2.6386,-2.6386,-2.6386,-2.6386,-2.6386,-2.6386,-2.6386,-2.6386,-2.4232,-2.5198,-2.6559,-2.7596,-2.8005,-2.8344,-2.8783,-2.8651,-2.8432,-2.8432,-2.8154,-2.7861,-2.7715,-2.7422,-2.7203,-2.7203,-2.7086,-2.7042,-2.7188,-2.7086,-2.6939,-2.6793,-2.6617,-2.6574,-2.6764,-2.6603,-2.6632,-2.6969,-2.6983,-2.6983,-2.6983,-2.6983,-2.7695,-2.9178,-3.073,-3.2211,-3.378,-3.3137,-3.2718,-3.2491,-3.1789,-3.1508,-3.1508,-3.1508,-3.1155,-3.0518,-3.0518,-3.002,-2.9178,-2.9178,-2.8731,-2.7874,-2.7874,-2.833,-2.8886,-2.8886,-2.8886,-2.8886,-2.8886,-2.8886,-2.8886,-2.8886,-2.8886,-2.8886,-2.8886,-2.8886,-2.9032,-2.9676,-2.9866,-3.0012,-3.0656,-3.07,-3.0481,-3.0159,-2.9822,-2.9261,-2.8058,-2.7889,-2.7647,-2.6623,-2.6386,-2.6386,-2.6386,-2.6386,-2.6386,-2.6386,-2.6386,-2.6386,-2.6386,-2.6386,-2.6386,-2.6386,-2.6386,-2.6386,-2.6386,-2.6386,-2.6386,-2.6386,-2.6386,-2.6386,-2.6386,-2.6386,-2.6386,-2.6386,-2.6386,-2.6386,-2.6386,-2.6386,-2.6386,-2.6386,-2.6386,-2.6386,-2.4571,-2.5174,-2.6003,-2.6969,-2.7525,-2.7949,-2.8417,-2.8359,-2.8122,-2.8031,-2.7594,-2.7172,-2.7026,-2.6954,-2.6983,-2.6983,-2.6983,-2.6983,-2.6983,-2.6983,-2.6954,-2.6881,-2.6647,-2.6574,-2.672,-2.6603,-2.6603,-2.6852,-2.6866,-2.6866,-2.6866,-2.714,-2.8044,-2.9605,-3.1143,-3.2681,-3.4333,-3.4333,-3.3623,-3.207,-3.2491,-3.263,-3.263,-3.263,-3.263,-3.263,-3.186,-3.0872,-2.9735,-2.9377,-2.8731,-2.7874,-2.7874,-2.833,-2.8886,-2.8886,-2.8886,-2.8886,-2.8886,-2.8886,-2.8886,-2.8886,-2.8886,-2.8886,-2.8886,-2.8886,-2.9003,-2.9573,-2.9793,-2.9968,-3.0451,-3.0466,-3.0328,-2.9837,-2.9559,-2.9043,-2.7861,-2.7476,-2.7083,-2.6544,-2.6386,-2.6386,-2.6386,-2.6386,-2.6386,-2.6386,-2.6386,-2.6386,-2.6386,-2.6386,-2.6386,-2.6386,-2.6386,-2.6386,-2.6386,-2.6386,-2.6386,-2.6386,-2.6386,-2.6386,-2.6386,-2.6386,-2.6386,-2.6386,-2.6386,-2.6386,-2.6386,-2.6386,-2.6386,-2.6386,-2.6386,-2.6386,-2.4272,-2.4098,-2.3984,-2.5031,-2.5681,-2.6383,-2.7335,-2.7539,-2.745,-2.7064,-2.6731,-2.6255,-2.5666,-2.6358,-2.6983,-2.6983,-2.6983,-2.6983,-2.6983,-2.6983,-2.6881,-2.6559,-2.6515,-2.6383,-2.6091,-2.6339,-2.6515,-2.653,-2.653,-2.653,-2.653,-2.7476,-2.8894,-3.0821,-3.2287,-3.3942,-3.5879,-3.5879,-3.5108,-3.3692,-3.5108,-3.5743,-3.5743,-3.5743,-3.5743,-3.5587,-3.277,-3.1437,-3.1296,-2.9806,-2.8731,-2.7874,-2.7874,-2.833,-2.8886,-2.8886,-2.8886,-2.8886,-2.8886,-2.8886,-2.8886,-2.8886,-2.8886,-2.8886,-2.8886,-2.8886,-2.8959,-2.931,-2.9617,-2.9866,-2.991,-3.0129,-3.0269,-2.9559,-2.9383,-2.9043,-2.7861,-2.7018,-2.6465,-2.6386,-2.6386,-2.6386,-2.6386,-2.6386,-2.6386,-2.6386,-2.6386,-2.6386,-2.6386,-2.6386,-2.6386,-2.6386,-2.6386,-2.6386,-2.6386,-2.6386,-2.6386,-2.6386,-2.6386,-2.6386,-2.6386,-2.6386,-2.6386,-2.6386,-2.6386,-2.6386,-2.6386,-2.6386,-2.6386,-2.6386,-2.6386,-2.6386,-2.4416,-2.3855,-2.3574,-2.4826,-2.5227,-2.5652,-2.6632,-2.6852,-2.6837,-2.6602,-2.6314,-2.5984,-2.551,-2.5725,-2.6084,-2.6517,-2.6619,-2.6692,-2.6983,-2.6983,-2.6939,-2.6822,-2.6632,-2.6544,-2.6632,-2.6559,-2.6588,-2.6793,-2.6822,-2.672,-2.6515,-2.7987,-2.9455,-3.0943,-3.2639,-3.4321,-3.5947,-3.6016,-3.5743,-3.5245,-3.5743,-3.6016,-3.6016,-3.6016,-3.6016,-3.5879,-3.3831,-3.2421,-3.1384,-3.0065,-2.8857,-2.7888,-2.8107,-2.852,-2.8886,-2.8886,-2.8886,-2.8886,-2.8886,-2.8886,-2.8886,-2.8886,-2.8886,-2.893,-2.9134,-2.9061,-2.9003,-2.9544,-2.9617,-2.9603,-2.9807,-2.9793,-2.9617,-2.9164,-2.8668,-2.8246,-2.8068,-2.7412,-2.6795,-2.6795,-2.6544,-2.6386,-2.6386,-2.6386,-2.6319,-2.6146,-2.6266,-2.6319,-2.6132,-2.6279,-2.6386,-2.6386,-2.6386,-2.6386,-2.6386,-2.6386,-2.6386,-2.6386,-2.6386,-2.6386,-2.6386,-2.6386,-2.6386,-2.6386,-2.6386,-2.6386,-2.6386,-2.6386,-2.6386,-2.6386,-2.6386,-2.6386,-2.4976,-2.4063,-2.3473,-2.4464,-2.4485,-2.4554,-2.574,-2.6018,-2.6093,-2.62,-2.6142,-2.5855,-2.5266,-2.5194,-2.5408,-2.5981,-2.6255,-2.6473,-2.6765,-2.691,-2.6983,-2.6983,-2.6793,-2.6705,-2.6822,-2.6735,-2.6705,-2.6822,-2.6822,-2.6951,-2.7286,-2.8766,-3.0522,-3.2406,-3.3835,-3.504,-3.6016,-3.6016,-3.6016,-3.6016,-3.6016,-3.6016,-3.6016,-3.6016,-3.6016,-3.5947,-3.4471,-3.3206,-3.2175,-3.0411,-2.9318,-2.8642,-2.8453,-2.8622,-2.8886,-2.8886,-2.8886,-2.8886,-2.8886,-2.8886,-2.8886,-2.8886,-2.8886,-2.8944,-2.9281,-2.9149,-2.9003,-2.9544,-2.9544,-2.9398,-2.9515,-2.9383,-2.9164,-2.8944,-2.8495,-2.8104,-2.8431,-2.7569,-2.6874,-2.6953,-2.6716,-2.6386,-2.6386,-2.6386,-2.6319,-2.6132,-2.6266,-2.6319,-2.6132,-2.6266,-2.6386,-2.6386,-2.6386,-2.6386,-2.6386,-2.6386,-2.6386,-2.6386,-2.6386,-2.6386,-2.6386,-2.6386,-2.6386,-2.6386,-2.6386,-2.6386,-2.6386,-2.6386,-2.6386,-2.6386,-2.6386,-2.6386,0.0,0.0,0.0,-2.3853,-2.3247,-2.308,-2.4694,-2.5075,-2.5218,-2.584,-2.597,-2.5755,-2.4963,-2.4819,-2.4977,-2.5338,-2.5967,-2.6385,-2.6399,-2.6765,-2.6983,-2.6983,-2.6983,-2.6866,-2.6544,-2.6808,-2.6866,-2.6544,-2.6515,-2.7214,-2.8726,-2.9845,-3.2011,-3.5324,-3.5801,-3.6016,-3.6016,-3.6016,-3.6016,-3.6016,-3.6016,-3.6016,-3.6016,-3.6016,-3.6016,-3.5947,-3.4471,-3.3849,-3.3678,-3.0932,-2.9923,-3.0064,-2.8925,-2.8637,-2.8886,-2.8886,-2.8886,-2.8886,-2.8886,-2.89,-2.89,-2.89,-2.89,-2.8959,-2.9281,-2.9149,-2.8959,-2.9281,-2.9369,-2.9281,-2.8973,-2.8886,-2.8886,-2.8886,-2.8886,-2.8886,-2.8886,-2.7555,-2.6544,-2.6953,-2.6702,-2.6386,-2.6386,-2.6386,-2.6386,-2.6373,-2.6373,-2.6373,-2.6373,-2.6373,-2.6373,-2.6386,-2.6386,-2.6386,-2.6386,-2.6386,-2.6386,-2.6386,-2.6386,-2.6386,-2.6386,-2.6386,-2.6386,-2.6386,-2.6386,-2.6386,-2.6386,-2.6386,-2.6386,-2.6386,-2.6386,-2.6386,-2.5804,0.0,0.0,0.0,0.0,0.0,-2.4688,-2.4464,-2.4211,-2.4764,-2.5082,-2.5171,-2.4889,-2.5041,-2.5266,-2.5338,-2.5749,-2.6093,-2.6385,-2.6765,-2.6983,-2.6983,-2.6983,-2.6954,-2.6866,-2.6939,-2.6954,0.0,-2.6852,-2.7455,-2.8742,-3.1116,-3.3533,-3.5772,-3.5957,-3.6016,-3.6016,-3.6016,-3.6016,-3.6016,-3.6016,-3.6016,-3.6016,-3.6016,-3.6016,-3.5947,-3.5606,-3.5555,-3.5673,-3.289,-3.0643,-2.9002,-3.0084,-2.9806,-2.8886,-2.8886,-2.8886,-2.8886,-2.8886,-2.9047,-2.9208,-2.8973,-2.9047,-2.9266,-2.9354,-2.9149,-2.8959,-2.9281,-2.9208,-2.9003,-2.8915,-2.8886,-2.8886,-2.8886,-2.8417,-2.8026,-2.8353,-2.7412,-2.6623,-2.7333,-2.7097,-2.6716,-2.6465,-2.6386,-2.6319,-2.6106,-2.6079,-2.6079,-2.6079,-2.6079,-2.6159,-2.6373,-2.6386,-2.6386,-2.6386,-2.6386,-2.6386,-2.6386,-2.6386,-2.6386,-2.6386,-2.6386,-2.6386,-2.6386,-2.6386,-2.6386,-2.6386,-2.6386,-2.6386,-2.6386,-2.6386,-2.6386,0.0,0.0,0.0,0.0,0.0,0.0,-2.4741,-2.4486,-2.428,-2.4684,-2.4926,-2.5063,-2.5073,-2.5243,-2.5398,-2.5396,-2.5749,-2.6093,-2.6399,-2.6765,-2.6983,-2.6983,-2.6983,-2.6983,-2.6983,-2.6983,-2.6983,-2.6983,-2.6983,-2.7822,-2.9797,-3.2777,-3.4929,-3.5947,-3.6016,-3.6016,-3.6016,-3.6016,-3.6016,-3.6016,-3.6016,-3.6016,-3.6016,-3.6016,-3.6016,-3.6035,-3.6211,-3.6178,-3.5882,-3.5117,-3.3054,-3.04,-3.1051,-3.0346,-2.8886,-2.8886,-2.8886,-2.8915,-2.9047,-2.9222,-2.9339,-2.9149,-2.9222,-2.9383,-2.9383,-2.9149,-2.8959,-2.9281,-2.9134,-2.8886,-2.8886,-2.8886,-2.8886,-2.8666,-2.8275,-2.7883,-2.7961,-2.7412,-2.7018,-2.7254,-2.7018,-2.6716,-2.6465,-2.6386,-2.6333,-2.6159,-2.6132,-2.6132,-2.6132,-2.6132,-2.6199,-2.6373,-2.6386,-2.6386,-2.6386,-2.6386,-2.6386,-2.6386,-2.6386,-2.6386,-2.6386,-2.6386,-2.6386,-2.6386,-2.6386,-2.6386,-2.6386,-2.6386,-2.6386,-2.6386,-2.6386,-2.6386,-2.7012,-2.6793,0.0,0.0,-2.6002,0.0,-2.5076,-2.5019,-2.4968,-2.4988,-2.5115,-2.5134,-2.5207,-2.5268,-2.5341,-2.5228,-2.5883,-2.6386,-2.6385,-2.6765,-2.6983,-2.6983,-2.6983,-2.6983,-2.6983,-2.6983,-2.7056,-2.7202,-2.7565,-2.8835,-3.1367,-3.4402,-3.6016,-3.6016,-3.6016,-3.6016,-3.6016,-3.6016,-3.6016,-3.6016,-3.6016,-3.6016,-3.6016,-3.6016,-3.6035,-3.6113,-3.6504,-3.6144,-3.5351,-3.7182,-3.6033,-3.3065,-3.1967,-3.0562,-2.9119,-2.8964,-2.8886,-2.893,-2.9222,-2.9354,-2.9369,-2.9339,-2.9354,-2.9369,-2.9339,-2.912,-2.8944,-2.9237,-2.912,-2.8886,-2.8886,-2.8886,-2.8808,-2.8431,-2.8289,-2.8118,-2.7633,-2.7476,-2.7319,-2.7018,-2.6716,-2.6465,-2.6386,-2.6386,-2.6386,-2.6386,-2.636,-2.636,-2.6386,-2.636,-2.636,-2.6386,-2.6386,-2.6386,-2.6386,-2.6386,-2.6386,-2.6386,-2.6386,-2.6386,-2.6386,-2.6386,-2.6386,-2.6386,-2.6386,-2.6386,-2.6386,-2.6386,-2.6386,-2.6386,-2.6386,-2.6386,-2.7012,-2.7227,-2.7554,-2.7926,0.0,0.0,-2.6537,-2.5863,-2.5019,-2.4637,-2.4952,-2.5068,-2.4107,-2.4648,-2.5047,-2.4776,-2.5513,-2.617,-2.6401,-2.6765,-2.6983,-2.6983,-2.6983,-2.6983,-2.6983,-2.6983,-2.7478,-2.8676,-3.1084,-3.2211,-3.1508,-3.4402,-3.6016,-3.6016,-3.6016,-3.6016,-3.6016,-3.6016,-3.6016,-3.6016,-3.6016,-3.6016,-3.6016,-3.6016,-3.6211,-3.6543,-3.6641,-3.695,-3.7364,-3.7747,-3.6181,-3.3573,-3.3339,-3.2233,-3.0655,-2.9353,-2.8886,-2.89,-2.8959,-2.9164,-2.9339,-2.9076,-2.9164,-2.9325,-2.9061,-2.8944,-2.89,-2.8973,-2.8944,-2.8886,-2.8886,-2.8886,-2.8808,-2.8431,-2.804,-2.7633,-2.7175,-2.686,-2.6623,-2.6544,-2.6702,-2.6781,-2.6465,-2.6386,-2.6386,-2.6386,-2.6186,-2.6132,-2.636,-2.6186,-2.6132,-2.636,-2.6386,-2.6386,-2.6386,-2.6386,-2.6386,-2.6386,-2.6386,-2.6386,-2.6386,-2.6386,-2.6386,-2.6386,-2.6386,-2.6386,-2.6386,-2.6386,-2.6386,-2.6386,-2.6386,-2.6386,-2.7063,-2.7324,-2.7826,-2.8184,0.0,0.0,0.0,-2.6652,-2.6157,-2.5433,-2.5545,-2.5488,-2.4439,-2.4644,-2.4905,-2.4643,-2.5242,-2.5874,-2.6142,-2.6634,-2.6983,-2.6983,-2.6983,-2.6983,-2.6983,-2.7695,-2.8748,-3.0233,-3.2491,-3.3484,-3.27,-3.4746,-3.6016,-3.6016,-3.6016,-3.6016,-3.6016,-3.6016,-3.6016,-3.6016,-3.6016,-3.6016,-3.6035,-3.625,-3.6465,-3.6699,-3.7109,-3.7539,-3.7949,-3.8164,-3.7394,-3.6071,-3.5253,-3.3449,-3.1178,-3.0423,-2.9571,-2.8915,-2.9076,-2.9237,-2.9354,-2.9178,-2.9237,-2.931,-2.8988,-2.8886,-2.8886,-2.8886,-2.8886,-2.8886,-2.8886,-2.8886,-2.8808,-2.8431,-2.7961,-2.7569,-2.711,-2.6716,-2.6386,-2.6386,-2.6544,-2.6623,-2.6465,-2.6386,-2.6386,-2.6386,-2.6266,-2.6226,-2.6373,-2.6266,-2.6226,-2.6373,-2.6386,-2.6386,-2.6386,-2.6386,-2.6386,-2.6386,-2.6386,-2.6386,-2.6386,-2.6386,-2.6386,-2.6386,-2.6386,-2.6386,-2.6386,-2.6386,-2.6386,-2.6386,-2.6386,-2.6386,0.0,0.0,0.0,0.0,0.0,-2.8207,0.0,0.0,0.0,-2.6452,-2.6282,-2.605,-2.5032,-2.4951,-2.5028,-2.4857,-2.5402,-2.6005,-2.6336,-2.6969,-2.7221,-2.6851,-2.691,-2.6969,-2.6896,-2.851,-3.0097,-3.142,-3.3134,-3.4033,-3.3831,-3.5177,-3.6016,-3.6016,-3.6016,-3.6016,-3.6016,-3.6016,-3.6016,-3.6016,-3.6016,-3.6016,-3.6035,-3.6465,-3.6719,-3.6836,-3.7598,-3.7969,-3.8086,-3.8418,-3.8574,-3.8428,-3.6849,-3.4579,-3.2173,-3.1561,-3.05,-2.9383,-2.935,-2.9281,-2.9281,-2.9281,-2.9281,-2.9237,-2.8973,-2.8886,-2.8886,-2.8886,-2.8886,-2.8886,-2.8886,-2.8886,-2.8808,-2.8431,-2.804,-2.7647,-2.711,-2.6716,-2.6465,-2.6386,-2.6386,-2.6386,-2.6386,-2.6386,-2.6386,-2.6386,-2.6386,-2.6386,-2.6386,-2.6386,-2.6386,-2.6386,-2.6386,-2.6386,-2.6386,-2.6386,-2.6386,-2.6386,-2.6386,-2.6386,-2.6386,-2.6386,-2.6386,-2.6386,-2.6386,-2.6386,-2.6386,-2.6386,-2.6386,-2.6386,-2.6386,-2.6386,0.0,0.0,0.0,0.0,-2.8574,0.0,0.0,0.0,-2.7898,-2.6719,0.0,-2.6489,-2.4979,0.0,0.0,0.0,0.0,-2.724,-2.7688,-2.8309,-2.8019,-2.6328,-2.6632,-2.6881,-2.6588,-2.9071,-3.0939,-3.1491,-3.3792,-3.4795,-3.3831,-3.5177,-3.6016,-3.6016,-3.6016,-3.6016,-3.6016,-3.6016,-3.6016,-3.6016,-3.6016,-3.6016,-3.6035,-3.6465,-3.6875,-3.7246,-3.7715,-3.8144,-3.8496,-3.8555,-3.8574,-3.8428,-3.6849,-3.5941,-3.5253,-3.2386,-3.1178,-3.0809,-2.9475,-2.8944,-2.8944,-2.8944,-2.8944,-2.8944,-2.89,-2.8886,-2.8886,-2.8886,-2.8886,-2.8886,-2.8886,-2.8886,-2.8808,-2.8431,-2.8289,-2.8054,-2.7189,-2.6953,-2.6874,-2.6465,-2.6386,-2.6386,-2.6386,-2.6386,-2.6386,-2.6386,-2.6386,-2.6386,-2.6386,-2.6386,-2.6386,-2.6386,-2.6386,-2.6386,-2.6386,-2.6386,-2.6386,-2.6386,-2.6386,-2.6386,-2.6386,-2.6386,-2.6386,-2.6386,-2.6386,-2.6386,-2.6386,-2.6386,-2.6386,-2.6386,-2.6386,-2.6386,0.0,0.0,0.0,0.0,0.0,0.0,-2.8398,0.0,-2.8174,0.0,0.0,0.0,0.0,0.0,0.0,0.0,-2.6449,0.0,-2.7537,-2.8375,-2.8626,-2.7752,0.0,0.0,-2.8381,-2.9745,-3.1475,-3.36,-3.4796,-3.5297,-3.5089,-3.5675,-3.6016,-3.6016,-3.6016,-3.6016,-3.6016,-3.6016,-3.6016,-3.6016,-3.6016,-3.6016,-3.6035,-3.6719,-3.7129,-3.7324,-3.8008,-3.8398,-3.8574,-3.8574,-3.8574,-3.8501,-3.7897,-3.6996,-3.5941,-3.36,-3.2211,-3.1307,-2.949,-2.9017,-2.9134,-2.8944,-2.8886,-2.8886,-2.8886,-2.8886,-2.8886,-2.8886,-2.8886,-2.8886,-2.8886,-2.8886,-2.8886,-2.8666,-2.8431,-2.8133,-2.749,-2.7175,-2.6874,-2.6465,-2.6386,-2.6386,-2.6386,-2.6386,-2.6386,-2.6386,-2.6386,-2.6386,-2.6386,-2.6386,-2.6386,-2.6386,-2.6386,-2.6386,-2.6386,-2.6386,-2.6386,-2.6386,-2.6386,-2.6386,-2.6386,-2.6386,-2.6386,-2.6386,-2.6386,-2.6386,-2.6386,-2.6386,-2.6386,-2.6386,-2.6386,-2.6386,-2.799,0.0,0.0,0.0,0.0,0.0,0.0,0.0,0.0,0.0,0.0,0.0,0.0,0.0,0.0,0.0,0.0,-2.7694,0.0,-2.8668,0.0,0.0,0.0,0.0,0.0,-3.0345,-3.1745,-3.4782,-3.4922,-3.5137,-3.582,-3.5859,-3.5898,-3.6016,-3.6016,-3.6016,-3.6016,-3.6016,-3.6016,-3.6016,-3.6016,-3.6016,-3.6055,-3.6914,-3.7305,-3.7344,-3.8203,-3.8574,-3.8574,-3.8574,-3.8574,-3.8574,-3.8574,-3.7897,-3.6682,-3.5028,-3.377,-3.2764,-3.098,-3.0247,-2.9942,-2.9145,-2.8886,-2.8886,-2.8886,-2.8886,-2.8886,-2.8886,-2.8886,-2.8886,-2.8886,-2.8886,-2.8886,-2.8886,-2.8666,-2.8275,-2.7712,-2.7412,-2.7018,-2.6465,-2.6386,-2.6386,-2.6386,-2.6386,-2.6386,-2.6386,-2.6386,-2.6386,-2.6386,-2.6386,-2.6386,-2.6386,-2.6386,-2.6386,-2.6386,-2.6386,-2.6386,-2.6386,-2.6386,-2.6386,-2.6386,-2.6386,-2.6386,-2.6386,-2.6386,-2.6386,-2.6386,-2.6386,-2.6386,-2.6386,-2.6386,-2.6386,0.0,0.0,0.0,-2.7891,0.0,0.0,0.0,0.0,-2.8398,0.0,0.0,0.0,0.0,0.0,0.0,0.0,0.0,0.0,0.0,0.0,0.0,0.0,0.0,0.0,0.0,-3.0756,-3.1503,0.0,-3.373,-3.4043,-3.5351,-3.541,-3.5605,-3.6016,-3.6016,-3.6016,-3.6016,-3.6016,-3.6016,-3.6016,-3.6016,-3.6016,-3.6055,-3.6914,-3.7305,-3.7344,-3.8203,-3.8574,-3.8574,-3.8574,-3.8574,-3.8574,-3.8574,-3.8574,-3.8355,-3.6682,-3.609,-3.5865,-3.462,-3.3238,-3.1574,-2.9535,-2.8886,-2.8886,-2.8886,-2.8886,-2.8886,-2.8886,-2.8886,-2.8886,-2.8886,-2.8886,-2.8886,-2.8886,-2.8886,-2.8651,-2.779,-2.7555,-2.7319,-2.6544,-2.6386,-2.6386,-2.6386,-2.6386,-2.6386,-2.6386,-2.6386,-2.6386,-2.6386,-2.6386,-2.6386,-2.6386,-2.6386,-2.6386,-2.6386,-2.6386,-2.6386,-2.6386,-2.6386,-2.6386,-2.6386,-2.6386,-2.6386,-2.6386,-2.6386,-2.6386,-2.6386,-2.6386,-2.6386,-2.6386,-2.6386,-2.6386,0.0,0.0,-2.9219,-2.8633,0.0,0.0,0.0,0.0,0.0,0.0,0.0,0.0,0.0,0.0,0.0,0.0,0.0,0.0,0.0,0.0,0.0,0.0,0.0,0.0,0.0,0.0,-3.1071,-3.3121,-3.3359,-3.3867,-3.4883,-3.5234,-3.5586,-3.6016,-3.6016,-3.6016,-3.6016,-3.6016,-3.6016,-3.6016,-3.6016,-3.6172,-3.6465,-3.7031,-3.7461,-3.7734,-3.832,-3.8574,-3.8574,-3.8574,-3.8574,-3.8574,-3.8574,-3.8574,-3.8428,-3.6756,-3.6329,-3.6267,-3.48,-3.3072,-3.1413,-3.0686,-2.9804,-2.8886,-2.8886,-2.8886,-2.8886,-2.8886,-2.8886,-2.8886,-2.8886,-2.8886,-2.8886,-2.8886,-2.8886,-2.8788,-2.8468,-2.8179,-2.7838,-2.7498,-2.6974,-2.668,-2.668,-2.652,-2.6386,-2.6386,-2.6386,-2.6386,-2.6386,-2.6386,-2.6386,-2.6386,-2.6386,-2.6386,-2.6386,-2.6386,-2.6386,-2.6386,-2.6386,-2.6386,-2.6386,-2.6386,-2.6386,-2.6386,-2.6386,-2.6386,-2.6386,-2.6386,-2.6386,-2.6386,-2.6386,-2.6386,-2.9176,-2.9355,0.0,-2.9023,-2.8711,0.0,-2.8184,0.0,-2.8511,0.0,0.0,0.0,0.0,0.0,0.0,0.0,0.0,0.0,0.0,-2.9609,0.0,0.0,0.0,0.0,0.0,0.0,-3.1005,-3.2458,-3.2832,-3.334,0.0,-3.4824,-3.5351,-3.5781,-3.5937,-3.6016,-3.6016,-3.6016,-3.6016,-3.6016,-3.6172,-3.6406,-3.668,-3.7266,-3.7676,-3.7949,-3.8379,-3.8574,-3.8574,-3.8574,-3.8574,-3.8574,-3.8574,-3.8574,-3.8501,-3.7438,-3.724,-3.7277,-3.5531,-3.3814,-3.226,-3.1533,-3.0191,-2.8886,-2.8886,-2.8886,-2.8886,-2.8886,-2.8886,-2.8886,-2.8886,-2.8886,-2.8886,-2.8886,-2.8886,-2.8881,-2.8626,-2.8259,-2.7838,-2.7645,-2.7041,-2.6667,-2.6667,-2.6507,-2.6386,-2.6386,-2.6386,-2.6386,-2.6386,-2.6386,-2.6386,-2.6386,-2.6386,-2.6386,-2.6386,-2.6386,-2.6386,-2.6386,-2.6386,-2.6386,-2.6386,-2.6386,-2.6386,-2.6386,-2.6386,-2.6386,-2.6386,-2.6386,-2.6386,-2.6386,-2.6386,-2.6386]},{"header":{"parameterUnit":"m.s-1","parameterCategory":1,"la1":30.6,"la2":29.2853,"lo1":-89.7004,"lo2":-87.6739,"dy":0.0162,"dx":0.0183,"nx":112,"ny":82,"refTime":"2026-03-27T00:00:00:Z","depth":0,"parameterNumber":3,"parameterNumberName":"V-component_of_WINDS"},"data":[0.0,0.0,0.0,0.0,0.0,0.0,0.0,0.0,0.0,0.0,0.0,0.0,0.0,0.0,0.0,0.0,0.0,0.0,0.0,0.0,0.0,0.0,0.0,0.0,0.0,0.0,0.0,0.0,0.0,0.0,0.0,0.0,0.0,0.0,0.0,0.0,0.0,0.0,0.0,0.0,0.0,0.0,0.0,0.0,0.0,0.0,0.0,0.0,0.0,0.0,0.0,0.0,0.0,0.0,0.0,0.0,0.0,0.0,0.0,0.0,0.0,0.0,0.0,0.0,0.0,0.0,0.0,0.0,0.0,0.0,0.0,0.0,0.0,0.0,0.0,0.0,0.0,0.0,0.0,0.0,0.0,0.0,0.0,0.0,0.0,0.0,0.0,0.0,0.0,0.0,3.6026,3.5978,3.7757,3.8719,3.8166,3.8455,3.7589,3.4943,0.0,0.0,0.0,0.0,0.0,0.0,0.0,0.0,0.0,0.0,0.0,0.0,0.0,0.0,0.0,0.0,0.0,0.0,0.0,0.0,0.0,0.0,0.0,0.0,0.0,0.0,0.0,0.0,0.0,0.0,0.0,0.0,0.0,0.0,0.0,0.0,0.0,0.0,0.0,0.0,0.0,0.0,0.0,0.0,0.0,0.0,0.0,0.0,0.0,0.0,0.0,0.0,0.0,0.0,0.0,0.0,0.0,0.0,0.0,0.0,0.0,0.0,0.0,0.0,0.0,0.0,0.0,0.0,0.0,0.0,0.0,0.0,0.0,0.0,0.0,0.0,0.0,0.0,0.0,0.0,0.0,0.0,0.0,0.0,0.0,0.0,0.0,0.0,0.0,0.0,0.0,0.0,0.0,0.0,0.0,0.0,0.0,0.0,0.0,0.0,0.0,0.0,0.0,0.0,3.5183,3.7397,3.8743,3.9272,3.8743,3.8334,3.7156,3.4919,0.0,0.0,0.0,0.0,0.0,0.0,0.0,0.0,0.0,0.0,0.0,0.0,0.0,0.0,0.0,0.0,0.0,0.0,0.0,0.0,0.0,0.0,0.0,0.0,0.0,0.0,0.0,0.0,0.0,0.0,0.0,0.0,0.0,0.0,0.0,0.0,0.0,0.0,0.0,0.0,0.0,0.0,0.0,0.0,0.0,0.0,0.0,0.0,0.0,0.0,0.0,0.0,0.0,0.0,0.0,0.0,0.0,0.0,0.0,0.0,0.0,0.0,0.0,0.0,0.0,0.0,0.0,0.0,0.0,0.0,0.0,0.0,0.0,0.0,0.0,0.0,0.0,0.0,0.0,0.0,0.0,0.0,0.0,0.0,0.0,0.0,0.0,0.0,0.0,0.0,0.0,0.0,0.0,0.0,0.0,0.0,0.0,0.0,0.0,0.0,0.0,0.0,0.0,3.5352,3.6242,3.8599,3.932,3.9393,3.8864,3.8575,3.7517,3.54,3.4943,0.0,0.0,0.0,0.0,0.0,0.0,0.0,0.0,0.0,0.0,0.0,0.0,0.0,0.0,0.0,0.0,0.0,0.0,0.0,0.0,0.0,0.0,0.0,0.0,0.0,0.0,0.0,0.0,0.0,0.0,0.0,0.0,0.0,0.0,0.0,0.0,0.0,0.0,0.0,0.0,0.0,0.0,0.0,0.0,0.0,0.0,0.0,0.0,0.0,0.0,0.0,0.0,0.0,0.0,0.0,0.0,0.0,0.0,0.0,0.0,0.0,0.0,0.0,0.0,0.0,0.0,0.0,0.0,0.0,0.0,0.0,0.0,0.0,0.0,0.0,0.0,0.0,0.0,0.0,0.0,0.0,0.0,0.0,0.0,0.0,0.0,0.0,0.0,0.0,0.0,0.0,0.0,0.0,0.0,0.0,0.0,0.0,0.0,0.0,0.0,0.0,0.0,3.6871,3.769,3.9417,3.9705,3.9585,3.9056,3.8647,3.7637,3.5737,3.4895,0.0,0.0,0.0,0.0,0.0,0.0,0.0,0.0,0.0,0.0,0.0,0.0,0.0,0.0,0.0,0.0,0.0,0.0,0.0,0.0,0.0,0.0,0.0,0.0,0.0,0.0,0.0,0.0,0.0,0.0,0.0,0.0,0.0,0.0,0.0,0.0,0.0,0.0,0.0,0.0,0.0,0.0,0.0,0.0,0.0,0.0,0.0,0.0,0.0,0.0,0.0,0.0,0.0,0.0,0.0,0.0,0.0,0.0,0.0,0.0,0.0,0.0,0.0,0.0,0.0,0.0,0.0,0.0,0.0,0.0,0.0,0.0,0.0,0.0,0.0,0.0,0.0,0.0,0.0,0.0,0.0,0.0,0.0,0.0,0.0,0.0,0.0,0.0,0.0,0.0,0.0,0.0,0.0,0.0,0.0,0.0,0.0,0.0,0.0,0.0,0.0,0.0,3.7315,3.9134,3.9537,4.0042,4.0138,3.9609,3.8166,3.6819,3.5689,3.4222,0.0,0.0,0.0,0.0,0.0,0.0,0.0,0.0,0.0,0.0,0.0,0.0,0.0,0.0,0.0,0.0,0.0,0.0,0.0,0.0,0.0,0.0,0.0,0.0,0.0,0.0,0.0,0.0,0.0,0.0,0.0,0.0,0.0,0.0,0.0,0.0,0.0,0.0,0.0,0.0,0.0,0.0,0.0,0.0,0.0,0.0,0.0,0.0,0.0,0.0,0.0,0.0,0.0,0.0,0.0,0.0,0.0,0.0,0.0,0.0,0.0,0.0,0.0,0.0,0.0,0.0,0.0,0.0,0.0,0.0,0.0,0.0,0.0,0.0,0.0,0.0,0.0,0.0,0.0,0.0,0.0,0.0,0.0,0.0,0.0,0.0,0.0,0.0,0.0,0.0,0.0,0.0,0.0,0.0,0.0,0.0,0.0,0.0,0.0,0.0,0.0,0.0,3.704,3.8533,0.0,3.9959,3.9813,3.9594,3.8717,3.7521,3.5962,0.0,0.0,0.0,0.0,0.0,0.0,0.0,0.0,0.0,0.0,0.0,0.0,0.0,0.0,0.0,0.0,0.0,0.0,0.0,0.0,0.0,0.0,0.0,0.0,0.0,0.0,0.0,0.0,0.0,0.0,0.0,0.0,0.0,0.0,0.0,0.0,0.0,0.0,0.0,0.0,0.0,0.0,0.0,0.0,0.0,0.0,0.0,0.0,0.0,0.0,0.0,0.0,0.0,0.0,0.0,0.0,0.0,0.0,0.0,0.0,0.0,0.0,0.0,0.0,0.0,0.0,0.0,0.0,0.0,0.0,0.0,0.0,0.0,0.0,0.0,0.0,0.0,0.0,0.0,0.0,0.0,0.0,0.0,0.0,0.0,0.0,0.0,0.0,0.0,0.0,0.0,0.0,0.0,0.0,0.0,0.0,0.0,0.0,0.0,0.0,0.0,0.0,3.6493,3.7888,3.9449,0.0,4.114,4.0988,4.1193,4.0207,3.8844,3.7047,0.0,0.0,0.0,0.0,0.0,0.0,0.0,0.0,0.0,0.0,0.0,0.0,0.0,0.0,0.0,0.0,0.0,0.0,0.0,0.0,0.0,0.0,0.0,0.0,0.0,0.0,0.0,0.0,0.0,0.0,0.0,0.0,0.0,0.0,0.0,0.0,0.0,0.0,0.0,0.0,0.0,0.0,0.0,0.0,0.0,0.0,0.0,0.0,0.0,0.0,0.0,0.0,0.0,0.0,0.0,0.0,0.0,0.0,0.0,0.0,0.0,0.0,0.0,0.0,0.0,0.0,0.0,0.0,0.0,0.0,0.0,0.0,0.0,0.0,0.0,0.0,0.0,0.0,0.0,0.0,0.0,0.0,0.0,0.0,0.0,0.0,0.0,0.0,0.0,0.0,0.0,0.0,0.0,0.0,0.0,0.0,0.0,0.0,0.0,0.0,0.0,0.0,3.7304,4.0166,4.256,4.3584,4.3717,4.393,4.4542,4.261,4.0622,0.0,0.0,0.0,0.0,0.0,0.0,0.0,0.0,0.0,0.0,0.0,0.0,0.0,0.0,0.0,0.0,0.0,0.0,0.0,0.0,0.0,0.0,0.0,0.0,0.0,0.0,0.0,0.0,0.0,0.0,0.0,0.0,0.0,0.0,0.0,0.0,0.0,0.0,0.0,0.0,0.0,0.0,0.0,0.0,0.0,0.0,0.0,0.0,0.0,0.0,0.0,0.0,0.0,0.0,0.0,0.0,0.0,0.0,0.0,0.0,0.0,0.0,0.0,0.0,0.0,0.0,0.0,0.0,0.0,0.0,0.0,0.0,0.0,0.0,0.0,0.0,0.0,0.0,0.0,0.0,0.0,0.0,0.0,0.0,0.0,0.0,0.0,0.0,0.0,0.0,0.0,0.0,0.0,0.0,0.0,0.0,0.0,0.0,0.0,0.0,0.0,0.0,0.0,3.9176,4.1288,4.3128,4.4269,4.4404,4.4459,4.4672,4.362,4.1995,3.9674,0.0,0.0,0.0,0.0,0.0,0.0,0.0,0.0,0.0,0.0,0.0,0.0,0.0,0.0,0.0,0.0,0.0,0.0,0.0,0.0,0.0,0.0,0.0,0.0,0.0,0.0,0.0,0.0,0.0,0.0,0.0,0.0,0.0,0.0,0.0,0.0,0.0,0.0,0.0,0.0,0.0,0.0,0.0,0.0,0.0,0.0,0.0,0.0,0.0,0.0,0.0,0.0,0.0,0.0,0.0,0.0,0.0,0.0,0.0,0.0,0.0,0.0,0.0,0.0,0.0,0.0,0.0,0.0,0.0,0.0,0.0,0.0,0.0,0.0,0.0,0.0,0.0,0.0,0.0,0.0,0.0,0.0,0.0,0.0,0.0,0.0,0.0,0.0,0.0,0.0,0.0,0.0,0.0,0.0,0.0,0.0,0.0,0.0,0.0,0.0,0.0,0.0,4.0603,4.2731,4.4665,4.6119,4.6286,4.642,4.6671,4.5867,4.4177,4.1498,0.0,0.0,0.0,0.0,0.0,0.0,0.0,0.0,0.0,0.0,0.0,0.0,0.0,0.0,0.0,0.0,0.0,0.0,0.0,0.0,0.0,0.0,0.0,0.0,0.0,0.0,0.0,0.0,0.0,0.0,0.0,0.0,0.0,0.0,0.0,0.0,0.0,0.0,0.0,0.0,0.0,0.0,0.0,0.0,0.0,0.0,0.0,0.0,0.0,0.0,0.0,0.0,0.0,0.0,0.0,0.0,0.0,0.0,0.0,0.0,0.0,0.0,0.0,0.0,0.0,0.0,0.0,0.0,0.0,0.0,0.0,0.0,0.0,0.0,0.0,0.0,0.0,0.0,0.0,0.0,0.0,0.0,0.0,0.0,0.0,0.0,0.0,0.0,0.0,0.0,0.0,0.0,0.0,0.0,0.0,0.0,0.0,0.0,0.0,0.0,0.0,0.0,4.1766,4.4349,4.6812,4.8624,4.8798,4.9059,4.964,4.8555,4.6662,4.3891,0.0,0.0,0.0,0.0,0.0,0.0,0.0,0.0,0.0,0.0,0.0,0.0,0.0,0.0,0.0,0.0,0.0,0.0,0.0,0.0,0.0,0.0,0.0,0.0,0.0,0.0,0.0,0.0,0.0,0.0,0.0,0.0,0.0,0.0,0.0,0.0,0.0,0.0,0.0,0.0,0.0,0.0,0.0,0.0,0.0,0.0,0.0,0.0,0.0,0.0,0.0,0.0,0.0,0.0,0.0,0.0,0.0,0.0,0.0,0.0,4.7495,4.6579,0.0,0.0,0.0,0.0,0.0,0.0,0.0,0.0,0.0,0.0,0.0,0.0,0.0,0.0,0.0,0.0,0.0,0.0,0.0,0.0,0.0,0.0,0.0,0.0,0.0,0.0,0.0,0.0,0.0,0.0,0.0,0.0,0.0,0.0,0.0,0.0,0.0,0.0,0.0,0.0,4.33,4.5911,4.8132,4.9369,4.9465,4.9524,4.9717,4.8698,4.7078,4.4773,4.3018,0.0,0.0,0.0,0.0,0.0,0.0,0.0,0.0,0.0,0.0,0.0,0.0,0.0,0.0,0.0,0.0,0.0,0.0,0.0,0.0,0.0,0.0,0.0,0.0,0.0,0.0,0.0,0.0,0.0,0.0,0.0,0.0,0.0,0.0,0.0,0.0,0.0,0.0,0.0,0.0,0.0,0.0,0.0,0.0,0.0,0.0,0.0,0.0,0.0,0.0,0.0,0.0,0.0,0.0,0.0,0.0,0.0,0.0,0.0,5.0909,4.9508,0.0,0.0,0.0,0.0,0.0,0.0,0.0,0.0,0.0,0.0,0.0,0.0,0.0,0.0,0.0,0.0,0.0,0.0,0.0,0.0,0.0,0.0,0.0,0.0,0.0,0.0,0.0,0.0,0.0,0.0,0.0,0.0,0.0,0.0,0.0,0.0,0.0,0.0,0.0,0.0,4.4469,4.6812,4.8717,4.994,5.0086,5.0086,5.0086,4.9274,4.8031,4.6328,4.4662,0.0,0.0,0.0,0.0,0.0,0.0,0.0,0.0,0.0,0.0,0.0,0.0,0.0,0.0,0.0,0.0,0.0,0.0,0.0,0.0,0.0,0.0,0.0,0.0,0.0,0.0,0.0,0.0,0.0,0.0,0.0,0.0,0.0,0.0,0.0,0.0,0.0,0.0,0.0,0.0,0.0,0.0,0.0,0.0,0.0,0.0,0.0,0.0,0.0,0.0,0.0,0.0,0.0,5.5669,5.614,5.6878,5.7398,5.7459,5.7042,5.5189,5.3526,5.2113,5.2116,0.0,0.0,0.0,0.0,0.0,0.0,0.0,0.0,0.0,0.0,0.0,0.0,0.0,0.0,0.0,0.0,0.0,0.0,0.0,0.0,0.0,0.0,0.0,0.0,5.0412,5.0229,4.7659,0.0,0.0,0.0,0.0,0.0,0.0,0.0,0.0,0.0,0.0,0.0,4.5722,4.7881,4.967,5.0845,5.0964,5.0964,5.0964,5.0385,4.9536,4.8343,4.6546,4.4491,0.0,0.0,0.0,0.0,0.0,0.0,0.0,0.0,0.0,0.0,0.0,0.0,0.0,0.0,0.0,0.0,0.0,0.0,0.0,0.0,0.0,0.0,0.0,0.0,0.0,0.0,0.0,0.0,0.0,0.0,0.0,0.0,4.9144,4.9233,0.0,0.0,0.0,0.0,0.0,0.0,0.0,0.0,0.0,0.0,0.0,0.0,0.0,5.5095,5.5871,5.7095,5.8032,5.8776,5.9918,6.0899,6.1612,6.1658,6.1707,6.1692,6.2907,0.0,5.543,5.5893,0.0,0.0,0.0,0.0,0.0,0.0,0.0,0.0,0.0,0.0,0.0,0.0,0.0,0.0,0.0,0.0,0.0,0.0,0.0,0.0,0.0,0.0,5.5743,5.5644,5.5677,5.5512,0.0,5.0188,4.6222,4.5102,4.4434,0.0,0.0,0.0,0.0,0.0,0.0,0.0,4.7663,5.0331,5.2293,5.2776,5.2825,5.2825,5.2825,5.2468,5.1795,5.0889,4.9282,4.7799,4.6507,4.4261,0.0,0.0,0.0,0.0,0.0,0.0,0.0,0.0,0.0,0.0,0.0,0.0,0.0,0.0,0.0,0.0,0.0,0.0,0.0,0.0,0.0,0.0,0.0,0.0,0.0,0.0,0.0,0.0,0.0,5.0095,5.1486,5.0275,5.1819,5.2216,0.0,0.0,0.0,0.0,0.0,0.0,0.0,0.0,0.0,5.7292,5.8075,5.9197,6.0815,6.178,6.2659,6.3375,6.398,6.4663,6.5378,6.5378,6.5378,6.5378,6.6162,6.4741,6.1788,5.9923,5.8049,5.6093,0.0,0.0,0.0,0.0,5.2469,5.2362,5.3638,5.3713,5.3198,5.3399,0.0,0.0,0.0,0.0,0.0,0.0,0.0,0.0,0.0,0.0,5.6912,5.774,5.7939,5.774,5.7011,5.4388,5.1361,0.0,4.7778,4.6657,4.3826,0.0,0.0,0.0,0.0,4.7676,4.9504,5.1546,5.306,5.3581,5.3644,5.3644,5.3644,5.349,5.3091,5.2282,5.1662,5.0377,4.8281,4.718,4.5387,0.0,0.0,0.0,0.0,0.0,0.0,0.0,0.0,0.0,0.0,0.0,0.0,0.0,0.0,0.0,0.0,0.0,0.0,0.0,0.0,0.0,0.0,0.0,0.0,0.0,0.0,0.0,0.0,5.251,5.4055,5.2213,5.4196,5.4809,0.0,0.0,0.0,0.0,0.0,0.0,5.6358,5.6774,5.83,6.111,6.1937,6.3263,6.516,6.5525,6.6055,6.6771,6.6618,6.687,6.7566,6.7566,6.7665,6.791,6.791,6.7479,6.6573,6.3383,6.099,5.9108,5.7086,5.6252,5.622,5.5824,5.5696,5.5844,5.6978,5.7282,5.6988,5.6376,5.5345,5.383,5.1128,0.0,0.0,0.0,0.0,5.309,5.496,5.654,5.7963,5.902,5.9245,5.9046,5.8237,5.7342,5.5638,0.0,5.1157,4.9921,4.651,0.0,0.0,0.0,0.0,4.9521,5.1549,5.3102,5.4118,5.4662,5.4694,5.4694,5.4694,5.4694,5.447,5.3999,5.3848,5.2864,5.0717,5.0339,4.8716,4.5498,0.0,0.0,0.0,0.0,0.0,0.0,0.0,0.0,0.0,0.0,0.0,0.0,0.0,0.0,0.0,0.0,0.0,0.0,0.0,0.0,0.0,0.0,0.0,0.0,0.0,0.0,0.0,0.0,0.0,5.5815,5.7105,0.0,0.0,0.0,0.0,5.5026,5.5788,5.7125,5.9447,6.0854,6.2644,6.5038,6.5799,6.6639,6.74,6.6771,6.6804,6.7533,6.685,6.687,6.7566,6.7566,6.8009,6.8639,6.8639,6.8241,6.74,6.5844,6.4752,6.3924,6.2392,6.1796,6.1631,6.02,5.9704,5.9704,5.9778,5.9389,5.9025,6.0308,5.8859,5.6244,5.4679,5.3721,0.0,0.0,5.5397,5.6915,5.7709,5.917,6.0357,6.0258,6.0218,5.9978,5.9039,5.7707,5.6216,0.0,5.3724,5.2514,5.0213,0.0,4.9844,4.9876,5.1107,5.2606,5.4105,5.5605,5.6531,5.6564,5.6564,5.6564,5.6564,5.6564,5.6531,5.6498,5.5836,5.5407,5.5274,5.3923,5.2145,4.9921,4.8491,0.0,0.0,0.0,0.0,0.0,0.0,0.0,0.0,0.0,0.0,0.0,0.0,0.0,0.0,0.0,0.0,0.0,0.0,0.0,0.0,0.0,0.0,0.0,0.0,0.0,0.0,0.0,0.0,5.7827,6.0683,0.0,5.9555,5.8583,5.854,5.9651,6.0412,6.1786,6.3989,6.4761,6.5944,6.7708,6.8223,6.8548,6.8736,6.8365,6.8074,6.7874,6.7426,6.7334,6.7566,6.7566,6.8009,6.8672,6.8672,6.8274,6.7533,6.7003,6.5856,6.4266,6.3315,6.2917,6.2851,6.2312,6.2113,6.2155,6.2282,6.1825,6.1168,6.0858,5.947,5.7668,5.6667,5.6166,5.6033,5.63,5.7143,5.8217,5.9421,6.0163,6.0705,6.1127,6.1187,6.0852,5.9531,5.8864,5.8063,5.6563,5.5111,5.3688,5.2445,5.2207,5.2207,5.2207,5.3099,5.4063,5.5085,5.6084,5.668,5.668,5.668,5.668,5.668,5.668,5.668,5.668,5.6448,5.6117,5.5615,5.5235,5.393,5.1655,5.0855,4.8663,0.0,0.0,0.0,0.0,0.0,0.0,0.0,0.0,0.0,0.0,0.0,0.0,0.0,0.0,0.0,0.0,0.0,0.0,0.0,0.0,0.0,0.0,0.0,0.0,0.0,5.8928,6.16,6.0337,6.351,6.4918,6.2766,6.2365,6.2694,6.369,6.4318,6.5492,6.7376,6.769,6.8347,6.9549,6.972,6.9678,6.941,6.904,6.8481,6.7702,6.73,6.721,6.7476,6.721,6.7775,6.8951,6.8672,6.844,6.8207,6.7941,6.6844,6.5292,6.4474,6.4175,6.4228,6.4228,6.4228,6.4162,6.3824,6.3241,6.2374,6.1033,5.9974,5.9069,5.8332,5.8131,5.8165,5.8433,5.8873,5.9621,6.0757,6.1132,6.1306,6.1696,6.183,6.1388,5.9834,5.9494,5.9064,5.7591,5.6296,5.521,5.4479,5.4346,5.4246,5.3941,5.4575,5.5206,5.5629,5.6402,5.6911,5.6911,5.6911,5.6911,5.6911,5.6601,5.6469,5.6507,5.6236,5.5866,5.5476,5.5322,5.4389,5.2513,5.1227,4.9191,4.6333,0.0,0.0,0.0,0.0,0.0,0.0,0.0,0.0,0.0,0.0,0.0,0.0,0.0,0.0,0.0,0.0,0.0,0.0,0.0,0.0,0.0,0.0,0.0,6.0067,6.2619,6.421,6.3514,6.5514,6.6623,6.5636,6.5334,6.5751,6.689,6.7212,6.7982,6.9456,6.9556,6.9858,7.0482,7.0515,7.0147,6.941,6.8707,6.7971,6.72,6.6464,6.6497,6.72,6.6464,6.7368,6.9489,6.8674,6.8774,6.9377,6.864,6.787,6.71,6.6178,6.5955,6.6095,6.6062,6.6062,6.5861,6.4388,6.3417,6.2621,6.1147,6.0677,6.0543,5.9806,5.9572,5.9739,6.0476,6.0869,6.1195,6.1868,6.2189,6.2341,6.2076,6.2037,6.1553,5.9873,5.9533,5.9064,5.7629,5.7327,5.7092,5.6352,5.6251,5.5944,5.5025,5.5636,0.0,5.5954,5.6742,5.7289,5.7256,5.7256,5.7256,5.7256,5.6433,5.5996,5.6181,5.5365,5.4928,5.511,5.4408,5.3601,5.269,4.9793,4.8023,4.7505,0.0,0.0,0.0,0.0,0.0,0.0,0.0,0.0,0.0,0.0,0.0,0.0,0.0,0.0,0.0,0.0,0.0,0.0,0.0,0.0,0.0,6.0512,6.1922,6.1143,6.4167,6.6433,6.6232,6.8137,6.9207,6.8426,6.8327,6.8439,6.8751,6.8875,6.9243,7.018,7.0431,7.0623,7.0745,7.0961,7.076,6.9984,6.9603,6.8774,6.7497,6.7087,6.7,6.72,6.7,6.7837,6.9523,6.9243,6.8942,6.864,6.8361,6.7657,6.6647,6.6196,6.6052,6.6029,6.5493,6.5411,6.5379,6.3867,6.3646,6.3876,6.2392,6.1919,6.1886,6.1649,6.1582,6.1649,6.1852,6.1959,6.2066,6.2234,6.2341,6.2381,6.2302,6.2302,6.1863,6.03,5.9924,5.9524,5.8039,5.7735,5.7594,5.7096,5.6988,5.6921,5.6646,5.6817,0.0,5.6913,5.7118,5.7089,5.6553,5.6519,5.6519,5.6519,5.6244,5.6144,5.6218,5.5944,5.5609,5.5144,5.5053,5.469,5.4055,5.1397,5.0012,0.0,0.0,0.0,0.0,0.0,0.0,0.0,0.0,0.0,0.0,0.0,0.0,0.0,0.0,0.0,0.0,0.0,0.0,0.0,0.0,0.0,0.0,6.309,6.4883,6.4924,6.6799,6.8216,6.8216,6.9669,7.0473,6.9946,7.0095,7.022,7.0095,7.022,7.0433,7.0791,7.0961,7.1086,7.1086,7.1222,7.0939,7.0195,7.0028,6.9242,6.7714,6.7887,6.8011,6.8011,6.8011,6.8819,7.0231,6.9929,6.9693,6.948,6.8875,6.8223,0.0,0.0,0.0,0.0,0.0,6.4925,6.4915,6.4038,6.3917,6.4005,6.3159,6.2651,6.2381,6.2381,6.2381,6.2381,6.2381,6.2381,6.2381,6.2381,6.2381,6.2381,6.2381,6.2381,6.2076,6.0858,6.0351,5.9742,5.8592,5.8084,0.0,5.7588,5.7551,5.7413,5.7036,5.7312,5.7413,5.7036,5.7312,5.7382,5.6979,5.6912,5.6912,5.6912,5.6533,0.0,0.0,0.0,5.5097,5.4364,5.4125,0.0,0.0,0.0,0.0,0.0,0.0,0.0,0.0,4.9844,4.9394,0.0,0.0,0.0,0.0,0.0,0.0,0.0,0.0,0.0,0.0,0.0,0.0,0.0,0.0,0.0,0.0,6.5749,6.8267,6.9749,6.9872,6.9769,6.9702,7.0455,7.087,7.0608,7.1007,7.1222,7.0961,7.1176,7.1278,7.1176,7.1176,0.0,0.0,0.0,7.077,7.0195,7.0195,6.9485,6.8166,6.8876,6.9214,6.9214,6.9214,6.9992,7.1278,7.0601,7.0635,7.1075,6.9688,6.9011,6.8663,6.7073,6.607,6.5493,6.4749,6.4478,6.4478,6.4377,0.0,0.0,6.3429,6.2922,6.2381,6.2381,6.2381,6.242,6.2498,6.2537,6.2537,6.262,6.2659,6.2659,6.2659,6.2615,6.2334,6.1703,6.0846,6.0028,5.9392,5.8645,5.8171,5.8171,5.8027,5.7642,5.6785,5.7367,5.7608,5.6749,5.7439,5.7993,5.7891,0.0,0.0,5.7999,5.7245,5.6566,5.6096,5.5211,5.4429,5.3794,5.3096,5.3009,5.3633,5.3619,5.4344,5.5783,5.6488,5.6864,5.6852,5.3029,5.2059,0.0,0.0,0.0,0.0,0.0,0.0,0.0,0.0,0.0,0.0,0.0,0.0,0.0,0.0,0.0,6.4555,6.7116,6.9296,7.0782,7.1526,7.1615,7.1041,7.112,7.1222,7.1176,7.1222,7.1267,7.1222,7.1267,7.1041,7.0432,7.0398,7.0128,6.9553,6.9519,6.9722,7.0195,7.0195,7.0026,6.9755,6.9891,0.0,6.9992,6.9992,7.0466,7.1312,7.1142,7.0838,7.0331,6.9451,6.8368,6.7151,6.6229,6.5418,6.4715,6.4005,6.3734,6.3632,6.3024,6.3125,6.3429,6.2821,6.2516,6.2381,6.2381,6.2381,0.0,6.3121,6.3271,6.3422,6.4005,6.4183,6.4183,6.4183,6.3716,6.325,6.3101,6.1985,6.0977,6.0803,6.0135,5.9578,5.9578,5.8633,5.7848,5.7676,5.778,5.7848,5.7642,5.8284,5.8462,5.7878,5.8311,5.8636,5.8636,5.8465,5.829,5.8183,5.7485,5.699,5.683,5.6706,5.6698,5.6832,5.6786,5.7233,5.8053,5.8232,5.8558,5.897,5.7036,5.5996,0.0,0.0,0.0,0.0,0.0,0.0,0.0,0.0,0.0,0.0,0.0,5.9208,6.0723,0.0,6.4221,6.6855,6.863,7.0161,7.165,7.2496,7.2665,7.1954,7.2191,7.2394,7.2394,7.2394,7.2259,7.1887,7.1853,7.1379,7.0263,7.0195,6.9857,6.9113,6.9113,6.9451,7.0195,7.0195,7.0195,7.0195,7.0567,7.0567,7.0239,7.0983,7.1314,7.1356,7.2176,7.2107,7.1268,7.014,6.8774,6.7339,6.6587,6.5595,6.4478,6.3362,6.2956,6.2956,6.2956,6.3198,6.3512,6.3512,6.3505,6.3496,6.3496,6.3496,6.357,6.3969,6.4041,6.4112,6.4497,6.4601,6.4601,6.4601,6.4323,6.4043,6.4041,6.317,6.2369,6.2356,6.1684,6.1017,6.0666,6.0038,5.9392,5.9012,5.8978,5.8978,5.8978,5.9247,5.9306,5.8957,5.9179,5.9401,5.9401,5.905,5.8804,5.8804,5.8132,5.7862,5.8196,5.7892,5.8012,5.8631,5.8763,5.9086,5.9752,6.0148,6.0502,6.0783,6.0078,5.9321,0.0,0.0,0.0,0.0,0.0,0.0,0.0,5.7999,5.8811,5.9873,6.0554,6.1637,6.3768,6.4749,6.6136,6.8876,7.006,7.1075,7.2428,7.324,7.3569,7.3142,7.3344,7.3569,7.3719,7.3764,7.3572,7.3184,7.2833,7.2083,7.0763,7.0379,6.9884,6.9101,6.9101,6.9508,7.0435,7.0435,7.059,7.0933,7.147,7.147,7.0933,7.2173,7.2398,7.1864,7.3061,7.3088,7.223,7.0845,6.9461,6.8146,6.725,6.6135,6.4897,6.3567,6.2953,6.2919,6.3494,6.3711,6.382,6.4408,6.46,6.4601,6.4601,6.4601,6.4635,6.4772,6.4806,6.4839,6.4974,6.5008,6.5008,6.5008,6.4907,6.4873,6.5008,6.4307,6.3745,6.3877,6.3271,6.2528,6.1927,6.1679,6.1231,6.0171,5.9998,5.9998,5.9998,6.0093,6.0188,6.0188,6.0282,6.0375,6.0375,5.9774,5.9421,5.9421,5.885,5.8769,5.933,5.8798,5.9037,6.0059,6.0228,6.0552,6.1,6.1652,6.1978,6.1978,6.1978,6.1652,5.6288,5.6052,5.6592,5.6592,5.7673,5.9059,0.0,6.1327,6.2279,6.37,6.4038,6.458,6.617,6.7049,6.8098,6.9789,7.1244,7.2428,7.324,7.4018,7.475,7.5519,7.4332,7.381,7.4556,7.4644,7.4956,7.5726,7.4432,7.3277,7.2438,7.107,6.9919,6.9095,6.9095,6.9783,7.1235,7.127,7.1994,7.3417,7.3487,7.3487,7.3417,7.3567,7.3602,7.3487,7.2945,7.2318,7.1539,7.0664,6.9823,6.8914,6.7477,6.6774,6.6527,6.5723,6.4988,6.4358,6.4463,6.4463,6.4463,6.4568,6.4602,6.4601,6.4601,6.4601,6.4738,6.5403,6.5565,6.5728,6.6391,6.6542,6.6542,6.6542,6.6079,6.576,6.6421,6.5438,6.455,6.5232,6.4701,6.4123,6.4051,6.3437,6.2299,6.0294,5.9998,5.9998,5.9998,6.0498,6.0897,6.0903,6.1401,6.1784,6.1784,6.1676,6.1668,6.1668,6.1559,6.1551,6.1642,6.1551,6.1579,6.1725,6.1742,6.1778,6.1869,6.1942,6.1978,6.1978,6.1978,6.1942,5.7983,5.7848,5.8389,5.9742,6.1163,6.255,6.3599,6.4444,6.5256,6.6305,6.688,6.7557,6.8605,6.9383,7.0229,7.1312,7.2822,7.41,7.4819,7.6031,7.6791,7.6718,7.6071,7.5993,7.6795,7.6872,7.6866,7.6859,7.5344,7.394,7.2785,7.1622,7.0415,6.9202,7.0039,7.0841,7.1469,7.1922,7.2713,7.3799,7.3799,7.3799,7.3799,7.4338,7.454,7.4512,7.3721,7.2649,7.1551,7.1196,7.0345,6.914,6.8502,6.7959,6.7332,6.5717,6.4882,6.4601,6.4601,6.4873,6.524,6.524,6.5536,6.5855,6.5855,6.5855,6.5954,6.6233,6.6361,6.6421,6.6727,6.6786,6.6786,6.6786,6.6542,6.6421,6.6727,6.6289,6.5917,6.622,6.6025,6.5663,6.5192,6.483,6.3971,6.2146,6.1485,6.1169,6.1169,6.1401,6.1579,6.1579,6.184,6.1978,6.1978,6.1978,6.1978,6.1978,6.1978,6.1978,6.1978,6.1978,6.1978,6.1978,6.1978,6.1978,6.1978,6.1978,6.2259,6.2693,6.2693,6.2947,5.8693,5.9167,6.0148,6.2178,6.3971,6.5392,6.6136,6.688,6.7658,6.8368,6.8842,6.9248,6.9789,7.0856,7.1814,7.2359,7.4187,7.5828,7.6557,7.7495,7.7955,7.7596,7.7389,7.7576,7.8386,7.8468,7.8256,7.7717,7.6228,7.4631,7.311,7.2045,7.1088,7.0198,7.1293,7.2105,7.2491,7.3056,7.3734,7.4492,7.4492,7.4385,7.4173,7.4583,7.4753,7.4721,7.393,7.2933,7.1858,7.1428,7.0568,6.9493,6.9278,6.8706,6.7788,6.6135,6.5419,6.5207,6.5207,6.5568,6.5981,6.5981,6.6361,6.6786,6.6786,6.6786,6.6786,6.6786,6.6786,6.6786,6.6786,6.6786,6.6786,6.6786,6.6786,6.6786,6.6786,6.6786,6.6786,6.6786,6.6786,6.6605,6.6025,6.5736,6.5192,6.4033,6.2983,6.2259,6.2014,6.1978,6.1978,6.1978,6.1978,6.1978,6.1978,6.1978,6.1978,6.1978,6.1978,6.1978,6.1978,6.1978,6.2087,6.2331,6.2331,6.244,6.2657,6.2657,6.2947,6.3526,6.3526,6.3708,5.7915,5.9539,6.1603,6.3091,6.5121,6.6948,6.7658,6.8436,6.9248,6.9958,6.9586,6.9113,6.9147,7.1012,7.2575,7.2575,7.5199,7.7486,7.8216,7.769,7.7596,7.8426,7.7863,7.7734,7.8598,7.8634,7.8631,7.8635,7.7149,7.5556,7.3964,7.2372,7.1831,7.2549,7.2656,7.3404,7.4974,7.501,7.5442,7.6208,7.6208,7.581,7.5016,7.429,7.3925,7.3921,7.3092,7.273,7.2549,7.1028,7.0408,7.0299,6.9502,6.8706,6.8017,6.7921,6.7415,6.6727,6.6727,6.6727,6.6757,6.6757,6.6757,6.6786,6.6786,6.6786,6.6786,6.6786,6.6786,6.6786,6.6786,6.6786,6.6786,6.6786,6.6786,6.6786,6.6786,6.6786,6.6786,6.6786,6.6786,6.6786,6.6786,6.6134,6.5591,6.5518,6.4178,6.2875,6.2087,6.1978,6.1978,6.1978,6.1978,6.1978,6.1978,6.1978,6.1978,6.1978,6.1978,6.1978,6.1978,6.1978,6.2367,6.3128,6.3164,6.3526,6.4323,6.4323,6.4323,6.4359,6.4359,6.3961,5.9742,6.1772,6.3971,6.5933,6.776,6.9248,6.9992,7.0364,7.0635,7.0872,6.9958,6.9113,6.9113,7.0567,7.1953,7.2513,7.573,7.8441,7.9222,7.9581,7.9534,7.8747,7.8423,7.8169,7.7907,7.8348,7.8674,7.8667,7.671,7.5297,7.4754,7.3197,7.2416,7.2692,7.3738,7.4566,7.5107,7.5612,7.5749,7.5515,7.4971,7.4573,7.4319,7.403,7.3631,7.3088,7.2834,7.211,7.1132,7.0589,6.9756,6.8778,6.8525,6.7909,6.7221,6.7221,6.704,6.6786,6.6786,6.6786,6.6786,6.6786,6.6786,6.6786,6.6786,6.6786,6.6786,6.6786,6.6786,6.6786,6.6786,6.6786,6.6786,6.6786,6.6786,6.6786,6.6786,6.6786,6.6786,6.6786,6.6786,6.6786,6.6786,6.6569,6.6207,6.5663,6.4685,6.3708,6.2911,6.3273,6.3599,6.3599,6.3599,6.3599,6.3599,6.3599,6.3599,6.3599,6.3599,6.3599,6.3599,6.3599,6.3708,6.3997,6.3997,6.4106,6.4396,6.4396,6.4649,6.5192,6.4649,6.4541,6.1163,6.3294,6.5609,6.8114,6.9697,7.0908,7.1962,7.196,7.1732,7.1732,7.0076,6.8605,6.8335,6.9584,7.0798,7.1352,7.4984,7.8151,7.9221,7.9604,7.9504,7.8776,7.8195,7.7651,7.7108,7.7543,7.7833,7.7833,7.6167,7.4974,7.4685,7.345,7.2834,7.3124,7.4106,7.4793,7.5083,7.5623,7.5478,7.4649,7.3885,7.3486,7.3486,7.3197,7.2762,7.2255,7.2001,7.1313,7.0366,6.9756,6.8923,6.8017,6.8017,6.7692,6.7257,6.7547,6.7474,6.7184,6.6895,6.6786,6.6786,6.6786,6.6786,6.6786,6.6786,6.6786,6.6786,6.6786,6.6786,6.6786,6.6786,6.6786,6.6786,6.6786,6.6786,6.6786,6.6786,6.6786,6.6786,6.6786,6.6786,6.6786,6.6786,6.6786,6.6533,6.5736,6.541,6.4867,6.3744,6.407,6.4396,6.4396,6.4396,6.4396,6.4396,6.4396,6.4396,6.4396,6.4396,6.4396,6.4396,6.4396,6.4541,6.483,6.483,6.4975,6.5265,6.5265,6.5374,6.5591,6.5084,6.4794,6.2188,6.4295,6.6712,6.9611,7.0959,7.189,7.3427,7.3084,7.2464,7.2464,6.9961,6.759,6.6948,6.8172,6.9332,6.9476,7.3332,7.6903,7.8477,7.8048,7.7808,7.8632,7.7326,7.6348,7.6275,7.6239,7.6239,7.6275,7.5515,7.4721,7.403,7.316,7.3088,7.3885,7.3921,7.4283,7.5011,7.4974,7.4576,7.3849,7.3016,7.2653,7.2617,7.1857,7.1494,7.1422,7.0698,7.0335,7.0154,6.8633,6.8017,6.8017,6.8017,6.8054,6.8162,6.885,6.8669,6.7873,6.7076,6.6786,6.6786,6.6786,6.6786,6.6786,6.6786,6.6786,6.6786,6.6786,6.6786,6.6786,6.6786,6.6786,6.6786,6.6786,6.6786,6.6786,6.6786,6.6786,6.6786,6.6786,6.6786,6.6786,6.6786,6.6786,6.6533,6.5772,6.6315,6.6243,6.4649,6.4504,6.4504,6.4504,6.4504,6.4504,6.4504,6.4504,6.4504,6.4504,6.4504,6.4504,6.4504,6.4504,6.4867,6.5663,6.5663,6.6025,6.675,6.675,6.6315,6.5518,6.5482,6.4649,6.5194,6.7826,7.0228,7.0931,7.2169,7.3277,7.3725,7.2707,7.167,7.167,6.8808,6.6373,6.6745,6.8176,6.9871,7.1651,7.5402,7.8638,8.0262,7.9793,7.9142,7.8739,7.7796,7.6963,7.6348,7.5768,7.5659,7.6239,7.5008,7.4359,7.4757,7.3486,7.3088,7.3885,7.3921,7.403,7.4178,7.3631,7.3233,7.3016,7.2183,7.182,7.182,7.1603,7.1205,7.0661,7.048,6.972,6.8597,6.8162,6.8017,6.8017,6.8017,6.838,6.885,6.8452,6.8199,6.7873,6.7076,6.6786,6.6786,6.6786,6.6786,6.6786,6.6786,6.6786,6.6786,6.6786,6.6786,6.6786,6.6786,6.6786,6.6786,6.6786,6.6786,6.6786,6.6786,6.6786,6.6786,6.6786,6.6786,6.6786,6.6786,6.6786,6.675,6.6533,6.6677,6.646,6.541,6.5808,6.6207,6.6207,6.6207,6.6207,6.6207,6.6207,6.6207,6.6207,6.6207,6.6207,6.6207,6.6207,6.6279,6.6496,6.6496,6.6315,6.5917,6.5917,6.5482,6.4685,6.407,6.3563,6.7408,6.9683,7.1647,7.2306,7.3124,7.3741,7.3419,7.2391,7.1126,6.9722,6.669,6.4478,6.5222,6.6412,6.8042,7.0371,7.429,7.7667,7.9251,7.9395,7.9288,7.9246,7.8195,7.7326,7.6855,7.6094,7.5804,7.6275,7.5152,7.479,7.5587,7.4464,7.3812,7.3921,7.3921,7.374,7.3378,7.2943,7.2545,7.2183,7.1712,7.1494,7.1494,7.1168,7.077,7.0335,6.9647,6.9032,6.8488,6.8162,6.8199,6.8525,6.8525,6.8995,6.9678,6.9213,6.9032,6.8995,6.8525,6.8162,6.7728,6.704,6.6786,6.6786,6.6786,6.6786,6.6858,6.7221,6.7329,6.7402,6.7764,6.7836,6.7836,6.7836,6.7836,6.7764,6.7402,6.7329,6.7221,6.6858,6.6786,6.6786,6.6786,6.6786,6.6786,6.6786,6.6786,6.6641,6.617,6.6533,6.6786,6.6786,6.6786,6.6786,6.6786,6.6786,6.6786,6.6786,6.6786,6.6786,6.6786,6.6786,6.6641,6.6279,6.6279,6.5881,6.5084,6.5446,6.5192,6.4396,6.4287,6.407,6.9299,7.071,7.2051,7.3538,7.385,7.362,7.2834,7.1867,7.0351,6.7457,6.4405,6.255,6.3497,6.4295,6.5723,6.8297,7.2275,7.5653,7.748,7.823,7.8921,7.9826,7.8557,7.7615,7.7507,7.6855,7.642,7.6311,7.5659,7.5551,7.6239,7.5442,7.454,7.3776,7.3667,7.3269,7.2545,7.2545,7.2183,7.1494,7.1494,7.1494,7.1494,7.0842,7.048,7.0299,6.8923,6.8633,6.9171,6.8452,6.8633,6.9388,6.9388,6.9859,7.0517,7.0444,7.0372,7.0403,7.0294,6.9787,6.8953,6.7438,6.704,6.7112,6.7003,6.704,6.7257,6.7981,6.8162,6.8307,6.9026,6.9207,6.9207,6.9207,6.9207,6.8995,6.8307,6.8162,6.7909,6.7112,6.6967,6.6931,6.6822,6.6786,6.6786,6.6786,6.6786,6.6786,6.6786,6.6786,6.6786,6.6786,6.6786,6.6786,6.6786,6.6786,6.6786,6.6786,6.6714,6.6641,6.6671,6.6562,6.6199,6.5475,6.5583,6.5221,6.4396,6.5192,6.5192,6.4432,6.512,6.5084,7.1444,7.274,7.3499,7.3758,7.385,7.3507,7.2142,7.0265,6.8284,6.6456,6.3653,6.2076,6.4038,6.5079,6.7064,7.1329,7.3748,7.6123,7.9035,7.8998,7.8996,7.9789,7.9064,7.8231,7.7543,7.7362,7.7,7.6348,7.6167,7.613,7.6275,7.4899,7.374,7.2943,7.2255,7.1857,7.1712,7.1712,7.1639,7.1494,7.1494,7.1494,7.1494,7.1386,7.0987,7.0403,7.0082,0.0,6.9207,6.9062,6.9497,7.0221,7.0221,7.0625,7.1241,7.0625,7.0372,7.0299,6.9642,6.9316,6.9062,6.809,6.8235,6.8633,6.7981,6.8271,6.8778,6.8953,6.8989,6.9026,6.9171,6.9207,6.9207,6.9207,6.9207,6.9171,6.9026,6.8989,6.8742,6.7945,6.78,6.7583,6.6931,6.6786,6.6786,6.6786,6.6786,6.6786,6.6786,6.6786,6.6786,6.6786,6.6786,6.6786,6.6786,6.6786,6.6786,6.6786,6.617,6.5866,6.5981,6.5327,6.4928,6.4782,6.5436,6.5307,6.4396,6.5192,6.5192,6.4396,6.4541,6.4541,7.2784,7.3899,7.4545,7.4458,7.4183,7.3081,6.992,6.835,6.6564,6.303,6.1431,6.101,6.2053,6.3555,6.5683,6.868,7.1157,7.3796,7.6984,7.7806,7.8666,8.0332,7.9825,7.9028,7.8195,7.776,7.7181,7.6348,7.6275,7.613,7.5696,7.4175,7.3124,7.2726,7.1929,7.1494,7.1494,7.1494,7.1494,7.1494,7.1494,7.1494,7.1494,7.1096,7.0734,7.0403,6.9968,6.9787,6.9823,6.9823,7.0263,7.0951,7.0951,7.1205,7.1458,7.1096,7.0951,7.0915,7.0517,7.0408,7.0263,6.9502,6.9213,6.9134,6.8742,6.8887,6.9316,6.9714,6.9823,6.9932,7.0299,7.0408,7.0408,7.0408,7.0082,6.9823,6.9823,6.9497,6.9098,6.8706,6.8597,6.838,6.7547,6.7438,6.7293,6.6858,6.6786,6.6786,6.6786,6.6786,6.6786,6.6786,6.6786,6.6786,6.6786,6.6786,6.6786,6.6786,6.646,6.6265,6.6409,6.6074,6.5666,6.535,6.563,6.5392,6.4537,6.525,6.541,6.5011,6.5446,6.5663,7.3148,7.4074,7.4602,7.4752,7.4078,7.2257,6.7919,6.6692,6.5128,6.0267,5.9556,5.994,6.0285,6.1811,6.3659,6.5808,6.7868,7.0592,7.4405,7.6013,7.7731,8.026,8.0187,7.9535,7.8557,7.7869,7.7181,7.6348,7.5985,7.5515,7.4899,7.3486,7.2617,7.2472,7.182,7.1422,7.1277,7.1277,7.1168,7.1024,7.1168,7.1277,7.1241,7.0806,7.0625,7.0589,6.9973,7.0046,7.0625,7.0625,7.0987,7.1494,7.1494,7.1494,7.1494,7.1494,7.1494,7.1494,7.1494,7.1494,7.1422,7.0806,7.0191,6.9678,6.9533,6.9569,6.9792,7.0444,7.0625,7.077,7.135,7.1494,7.1494,7.1494,7.106,7.0625,7.0625,7.0118,6.9678,6.9497,6.9461,6.9176,6.8416,6.8271,6.7981,6.7184,6.7076,6.7003,6.6822,6.6786,6.6786,6.6786,6.6786,6.6786,6.6786,6.6786,6.6786,6.6815,6.67,6.6678,6.6814,6.6668,6.6324,6.5807,6.5879,6.5577,6.4838,6.5561,6.5873,6.5881,6.6496,6.6786,7.2002,7.2804,7.2914,7.3721,7.2753,7.0766,6.7476,6.5783,6.3971,6.0669,5.9461,5.9426,6.0838,6.1289,6.2611,6.6214,6.5889,6.7295,7.3298,7.4261,7.5547,7.856,7.9499,7.9318,7.776,7.7543,7.7181,7.6348,7.4935,7.4102,7.3997,7.3197,7.2364,7.1639,7.1531,7.1168,7.048,7.048,7.0118,6.9424,7.0118,7.048,7.0517,7.1132,7.1386,7.1386,7.1313,7.135,0.0,7.1386,7.1458,7.1494,7.1494,7.1494,7.1494,7.1494,7.1494,7.1494,7.1494,7.1494,7.1494,7.1422,7.135,7.1168,7.048,7.077,7.1313,7.1386,7.1386,7.1422,7.1494,7.1494,7.1494,7.1494,7.1458,7.1386,7.1386,7.135,7.1096,7.0408,7.0294,7.0009,6.9243,6.9098,6.8814,6.8017,6.7909,6.7619,6.6895,6.6786,6.6786,6.6786,6.6786,6.6786,6.6786,6.6786,6.6845,6.699,6.63,6.6005,6.6254,6.565,6.5248,6.5201,6.5833,6.5998,6.5674,6.651,6.6823,6.6677,6.6786,6.6786,7.1851,7.3393,7.3994,7.3838,7.3023,7.1041,6.649,6.5033,6.3519,5.9591,5.9219,5.9621,5.9771,6.0149,6.1011,6.2544,6.2718,6.4288,6.9161,7.0235,7.2228,7.6697,7.756,7.7667,7.7509,7.7507,7.7181,7.6348,7.4826,7.3921,7.3921,7.269,7.182,7.1531,7.1494,7.1132,7.0439,7.0372,7.0004,6.9207,7.004,7.0372,7.0439,7.1168,7.1494,7.1494,7.1494,7.1494,0.0,7.1494,7.1494,7.1494,7.1494,7.1494,7.1494,7.1494,7.1494,7.1494,7.1494,7.1494,7.1494,7.1494,7.1494,7.1458,7.1132,7.1277,7.1494,7.1494,7.1494,7.1494,7.1494,7.1494,7.1494,7.1494,7.1168,7.0842,7.0842,7.0842,7.0734,7.0444,7.0734,7.0806,7.0046,6.9932,6.9647,6.8814,6.8706,6.8597,6.8271,6.7836,6.751,6.751,6.7112,6.6786,6.6786,6.6786,6.6845,6.7019,6.7128,6.7381,6.7698,6.7872,6.8037,6.8119,6.833,6.8145,6.7558,6.7765,6.7513,6.6932,6.6932,6.6874,7.1427,7.3332,7.4338,7.4187,7.3143,7.0872,6.6316,6.4763,6.317,5.9321,5.9314,5.9902,5.9576,5.9806,6.0183,6.0625,6.1171,6.2674,6.5919,6.7264,6.9317,7.3117,7.419,7.4905,7.5716,7.6391,7.6565,7.5985,7.4464,7.3559,7.3559,7.2255,7.1494,7.1494,7.1277,7.0806,7.0046,6.9792,6.9285,6.8488,6.9285,6.9684,6.972,7.048,7.0951,7.1168,7.1168,7.1313,0.0,7.1494,7.1494,7.1494,7.1494,7.1494,7.1494,7.1494,7.1494,7.1494,7.1494,7.1494,7.1494,7.1494,7.1494,7.1494,7.1494,7.1494,7.1494,7.1494,7.1494,7.1494,7.1494,7.1494,7.1494,7.1494,7.0915,7.0372,7.0372,7.0221,7.0077,7.0077,7.0661,7.1024,7.048,7.0553,7.0444,6.9678,6.9569,6.9497,6.9243,6.8706,6.8343,6.8343,6.7836,6.7402,6.7184,6.7395,6.7513,6.744,6.8007,6.8369,6.8403,6.8944,6.9265,6.9376,6.9293,6.8953,6.8348,6.8227,6.7757,6.704,6.7011,6.6932,7.0333,7.2051,7.2914,7.464,7.2718,6.9799,6.7409,6.5127,6.2843,6.0458,5.9966,6.0188,6.0867,6.0437,6.047,6.1839,6.221,6.2842,6.4528,6.6109,6.713,6.72,6.9205,7.0865,7.1686,7.381,7.5119,7.5083,7.3631,7.2726,7.2726,7.1929,7.1494,7.1494,7.077,7.004,6.9243,6.8416,6.7619,6.6822,6.7655,6.8017,6.8054,6.885,6.9678,7.0408,7.0408,7.0806,0.0,7.1494,7.1494,7.1494,7.1494,7.1494,7.1494,7.1494,7.1494,7.1494,7.1494,7.1494,7.1494,7.1494,7.1494,7.1494,7.1494,7.1494,7.1494,7.1494,7.1494,7.1494,7.1494,7.1494,7.1494,7.1494,7.0915,7.0372,7.0372,6.9787,6.9207,6.9207,6.9859,7.0439,7.0372,7.1024,7.1241,7.048,7.0403,7.0113,6.9316,6.9207,6.9207,6.9207,6.9207,6.885,6.8054,6.882,6.9077,6.8422,6.8593,6.8403,6.7724,6.7724,6.7724,6.7724,6.7724,6.767,6.7506,6.7506,6.7387,6.721,6.704,6.6932,6.6208,6.8151,6.9462,6.9456,6.8363,6.6635,6.4281,6.3136,6.1977,5.9695,5.9995,6.0741,6.0986,6.0837,6.1204,6.274,6.3009,6.3612,6.523,6.5864,6.6777,6.8355,7.1065,7.3119,7.3949,7.4658,7.4866,7.4323,7.3305,7.2472,7.1929,7.1168,7.0734,7.0734,7.0517,6.9756,6.838,6.8126,6.7619,6.6822,6.7619,6.8017,6.8054,6.8814,6.9352,6.9605,7.0185,7.0517,7.077,7.1277,7.1494,7.1494,7.1494,7.1494,7.1494,7.1494,7.1494,7.1494,7.1494,7.1494,7.1494,7.1494,7.1494,7.1494,7.1494,7.1494,7.1494,7.1494,7.1494,7.1494,7.1494,7.1494,7.1494,7.1494,7.0517,6.975,7.0294,6.9321,6.8525,6.9098,6.9859,7.0258,6.9678,7.0227,7.0661,7.0444,7.0372,7.0542,7.0925,7.052,7.0157,7.0157,7.0157,6.9769,6.8917,6.9092,6.9243,6.9224,6.9274,6.9344,6.9339,6.9339,6.9339,6.9339,6.9339,6.9054,6.8449,6.8449,6.8101,6.7414,6.768,6.7789,6.404,6.5947,6.7261,6.7306,6.6145,6.4602,6.31,6.2229,6.1312,5.9657,6.0184,6.1075,6.1343,6.1163,6.1396,6.2671,6.3627,6.4174,6.4011,6.5041,6.6412,6.8126,7.0306,7.2358,7.4033,7.4211,7.3885,7.3088,7.2291,7.1494,7.0661,7.0191,6.9823,6.9502,6.9502,6.8995,6.8017,6.7692,6.7293,6.6822,6.7329,6.7547,6.7583,6.8054,6.8452,6.8778,6.9575,7.0149,0.0,7.1205,7.1494,7.1494,7.1494,7.1494,7.1494,7.1494,7.1494,7.1494,7.1494,7.1494,7.1494,7.1494,7.1494,7.1494,7.1494,7.1494,7.1494,7.1494,7.1494,7.1494,7.1494,7.1494,7.1422,7.1132,7.0118,6.9279,6.943,6.8488,6.7692,6.8199,6.8923,6.943,6.9243,6.9895,7.0372,7.0372,7.0434,7.0568,7.0841,7.0787,7.0641,7.0581,7.0871,7.0774,7.0113,7.0168,7.0175,7.0055,6.9879,6.973,6.9669,6.9339,6.9192,6.9192,6.9192,6.8935,6.8458,6.8752,6.8559,6.7982,6.8552,6.8801,0.0,6.4813,6.581,6.7183,6.5406,6.3342,6.3302,6.2172,0.0,6.0202,6.059,6.1286,6.1895,6.1494,6.1292,6.204,6.4106,6.4621,6.1735,6.3964,6.6181,6.7111,6.7894,6.948,7.2408,7.2726,7.2364,7.1494,7.077,7.0009,6.9171,6.9134,6.8742,6.7945,6.7909,6.7909,6.7909,6.7184,6.6786,6.6786,6.6786,6.6786,6.6786,6.6786,6.7221,0.0,6.8814,6.9642,7.0403,7.1168,7.1494,7.1494,7.1494,7.1494,7.1494,7.1494,7.1494,7.1494,7.1494,7.1494,7.1494,7.1494,7.1494,7.1494,7.1494,7.1494,7.1494,7.1494,7.1494,7.1494,7.1494,7.1494,7.1313,7.0625,6.9823,6.8995,6.8307,6.7474,6.6822,6.6858,6.751,6.8235,6.8989,6.9756,7.0366,7.0403,7.0453,7.029,6.9672,7.0258,7.0718,7.0641,7.1266,7.1604,7.1381,7.1696,7.1586,7.0857,7.0307,6.9669,6.8935,6.8128,6.7687,6.7687,6.7787,6.7797,6.7898,6.8605,6.8926,6.8823,6.9628,6.99,5.9259,0.0,6.1536,6.1855,6.1366,6.0952,0.0,6.1275,6.099,6.0813,6.1315,6.1804,6.195,6.1868,6.2237,6.3607,6.483,6.5352,6.4621,6.5712,6.7517,7.0116,7.0586,7.1227,7.2549,7.2726,7.2146,7.0734,7.048,6.9756,6.8343,6.8271,6.7909,6.7112,6.7076,6.7076,6.7076,6.6895,6.6786,6.6786,6.6786,6.6786,6.6786,6.6786,6.6895,6.7148,6.8561,6.9316,6.9605,7.0951,7.1494,7.1494,7.1494,7.1494,7.1494,7.1494,7.1494,7.1494,7.1494,7.1494,7.1494,7.1494,7.1494,7.1494,7.1494,7.1494,7.1494,7.1494,7.1494,7.1494,7.1494,7.1494,7.1458,7.1277,7.0191,6.9316,6.972,6.8235,6.7003,6.7619,6.7873,6.8054,6.8235,6.8923,6.9745,7.0447,7.0078,7.0162,7.1457,7.0741,7.0339,7.0902,7.0573,7.0259,7.0046,7.0599,7.0883,7.0821,6.9644,6.8944,6.8898,6.8128,6.7687,6.7687,6.8311,6.8935,6.9522,6.9743,6.9788,6.9797,7.049,7.077,5.7881,5.8968,6.0186,6.0469,6.0525,6.0752,6.1401,6.1266,6.1016,6.0986,6.1227,6.1435,6.1435,6.1435,6.1725,6.2621,6.3744,6.4867,6.5989,6.6207,6.7547,7.1096,7.1205,7.1422,7.2581,7.2074,7.1132,6.9968,6.9502,6.8742,6.751,6.7474,6.7257,6.6822,6.6786,6.6786,6.6786,6.6786,6.6786,6.6786,6.6786,6.6786,6.6786,6.6786,6.7003,6.7438,6.8633,6.9424,6.9859,7.1024,7.1494,7.1494,7.1494,7.1494,7.1494,7.1494,7.1494,7.1494,7.1494,7.1494,7.1494,7.1494,7.1494,7.1494,7.1494,7.1494,7.1494,7.1494,7.1494,7.1494,7.1494,7.1494,7.1422,7.106,7.0082,6.9316,6.9787,6.8235,6.7148,6.8307,6.7945,6.78,6.8923,6.914,6.9491,7.0441,7.0277,7.0324,7.1099,7.082,7.0702,7.1055,7.1019,7.0924,7.0711,7.0755,7.0857,7.0909,7.025,6.9916,7.0,6.9229,6.8788,6.8788,6.9229,6.9669,7.011,7.0477,7.066,7.066,7.1419,7.1757,5.7993,5.9215,6.053,6.0922,6.1078,6.1369,6.2015,6.1556,6.0954,6.0961,6.078,6.0665,6.0774,6.081,6.0919,6.1317,6.2693,6.4577,6.7003,6.6641,6.7474,7.106,7.0951,7.106,7.24,7.1241,7.0077,6.9279,6.8452,6.7655,6.6858,6.6786,6.6786,6.6786,6.6786,6.6786,6.6786,6.6786,6.6786,6.6786,6.6786,6.6786,6.6786,6.6931,6.7366,6.8054,0.0,0.0,7.0444,7.106,7.1386,7.1494,7.1494,7.1494,7.1494,7.1494,7.1494,7.1494,7.1494,7.1494,7.1494,7.1494,7.1494,7.1494,7.1494,7.1494,7.1494,7.1494,7.1494,7.1494,7.1494,7.1494,7.135,7.0698,6.9895,6.9207,6.9207,6.7945,6.7184,6.8591,6.7836,6.7655,6.9828,6.975,6.9733,7.0684,7.0834,7.0727,7.0352,7.0796,7.1118,7.1121,7.1633,7.1897,7.1713,7.1326,7.1121,7.1121,7.1126,7.1138,7.1138,7.0477,7.0146,7.0293,7.0293,7.033,7.0477,7.1174,7.1505,7.1476,7.2202,7.2496,5.8392,6.0321,6.1691,6.0458,6.0614,6.1194,6.1873,6.1434,6.0856,6.0856,6.0259,6.0013,6.0665,6.081,6.1462,6.3526,6.5192,6.7076,6.9502,6.914,6.9358,7.1277,7.1386,7.1422,7.1675,7.0915,7.0077,6.9279,6.8452,6.7655,6.6858,6.6786,6.6786,6.6786,6.6786,6.6786,6.6786,6.6786,6.6786,6.6786,6.6786,6.6786,6.6822,6.751,6.7873,6.8054,0.0,6.9678,7.0439,7.0517,7.0915,7.1494,7.1494,7.1494,7.1494,7.1494,7.1494,7.1494,7.1494,7.1494,7.1494,7.1494,7.1494,7.1494,7.1494,7.1494,7.1494,7.1494,7.1494,7.1494,7.1494,7.1494,7.1458,7.135,7.0227,6.9207,6.9207,6.7945,6.6858,6.7112,6.751,6.8162,6.9207,6.9951,7.072,7.1636,7.1347,7.1304,7.1998,7.1064,7.055,7.1191,7.0779,7.0449,7.0384,7.0934,7.1264,7.1264,7.0632,7.0293,7.0293,7.0183,7.0403,7.1101,7.1138,7.1468,7.2129,7.2275,7.2312,7.2312,7.2459,7.2496,5.7397,5.8994,6.041,6.0508,6.1688,6.2789,6.2674,6.2041,6.1435,6.1435,6.081,6.0375,6.0738,6.1498,6.2875,6.5301,6.6315,6.7474,6.9497,6.9461,6.9756,7.1313,7.1132,7.0915,7.0915,6.9792,6.8959,6.8561,6.78,6.7184,6.6822,6.6786,6.6786,6.6786,6.6786,6.6786,6.6786,6.6786,6.6786,6.6786,6.6786,6.6786,6.6822,6.7655,6.8017,6.8054,0.0,6.9678,7.0372,7.0372,7.0806,7.1494,7.1494,7.1494,7.1494,7.1494,7.1494,7.1494,7.1494,7.1494,7.1494,7.1494,7.1494,7.1494,7.1494,7.1494,7.1494,7.1494,7.1494,7.1494,7.1494,7.1494,7.1494,7.1494,7.0661,6.9859,6.9859,6.8923,6.8343,6.9176,6.8959,6.9207,7.0967,7.0883,7.0962,7.2005,7.1941,7.1919,7.243,7.1835,7.1541,7.1908,7.1615,7.1394,7.1394,7.1762,7.1945,7.1945,7.1615,7.1394,7.1394,7.1394,7.1578,7.1945,7.1945,7.2129,7.2496,7.2496,7.2496,7.2496,7.2496,7.2496,5.6907,5.8069,5.935,6.0646,6.2393,6.3816,6.3744,6.2838,6.2087,6.2476,6.1643,6.0883,6.1064,6.2693,6.4649,6.6496,6.7438,6.8343,6.9539,6.975,7.0118,7.1132,7.0734,7.033,7.0149,6.8814,6.8017,6.8017,6.7257,6.6786,6.6786,6.6786,6.6786,6.6786,6.6786,6.6786,6.6786,6.6786,6.6786,6.6786,6.6786,6.6786,6.6822,6.7655,6.8017,6.8054,6.8633,6.9466,7.0403,7.0191,7.0661,7.1494,7.1494,7.1494,7.1494,7.1494,7.1494,7.1494,7.1494,7.1494,7.1494,7.1494,7.1494,7.1494,7.1494,7.1494,7.1494,7.1494,7.1639,7.1748,7.1567,7.1494,7.1494,7.1494,7.0915,7.0372,7.0372,6.9787,6.9569,7.0796,7.0216,7.0168,7.2138,7.1654,7.1301,7.216,7.2329,7.2351,7.2467,7.2496,7.2496,7.2496,7.2496,7.2496,7.2496,7.2496,7.2496,7.2496,7.2496,7.2496,7.2496,7.2496,7.2496,7.2496,7.2496,7.2496,7.2496,7.2496,7.2496,7.2496,7.2496,7.2496,5.8279,5.9178,5.9902,6.0629,6.148,6.2738,6.4939,6.3671,6.2412,6.3925,6.2404,6.1,6.1761,6.4468,6.6605,6.6786,6.9249,7.1205,7.1313,7.135,7.1132,7.0553,7.0439,7.0113,6.9388,6.8525,6.8017,6.8017,6.7257,6.6786,6.6786,6.6786,6.6786,6.6786,6.6786,6.6786,6.6786,6.6786,6.6786,6.6786,6.6786,6.6786,6.6822,6.7655,6.8017,6.8017,6.8054,6.8959,7.0335,6.9605,7.0154,7.1494,7.1494,7.1494,7.1494,7.1494,7.1494,7.1494,7.1494,7.1494,7.1494,7.1494,7.1494,7.1494,7.1494,7.1494,7.1494,7.1494,7.2038,7.2436,7.1712,7.1494,7.1494,7.1494,7.0915,7.0372,7.0372,6.9787,6.9274,6.9497,7.0072,7.0575,7.0907,7.1633,7.2226,7.2299,7.2416,7.2467,7.2496,7.2496,7.2496,7.2496,7.2496,7.2496,7.2496,7.2496,7.2496,7.2496,7.2496,7.2496,7.2496,7.2496,7.2496,7.2496,7.2496,7.2496,7.2496,7.2496,7.2496,7.2496,7.2496,7.2496,5.6414,5.7883,5.9409,6.0503,6.1788,6.3128,6.4541,6.4541,6.4541,6.5663,6.4758,6.3889,6.4178,6.5229,6.6533,6.8054,6.9684,7.0987,7.1458,7.1494,7.1386,7.1132,7.0661,7.0082,6.9279,6.8452,6.78,6.7293,6.6967,6.6786,6.6786,6.6786,6.6786,6.6786,6.6786,6.6786,6.6786,6.6786,6.6786,6.6786,6.6786,6.6786,6.6822,6.7655,6.7728,6.7293,6.78,6.8633,6.9605,6.8778,6.9647,7.1494,7.1494,7.1494,7.1494,7.1494,7.1494,7.1494,7.1494,7.1494,7.1494,7.1494,7.1494,7.1494,7.1494,7.1494,7.1494,7.1494,7.2074,7.2653,7.2327,7.2617,7.3016,7.3016,7.2798,7.2468,7.2123,7.176,7.1604,7.1721,7.1605,7.1702,7.2363,7.2379,7.2329,7.2409,7.2467,7.2496,7.2496,7.2496,7.2496,7.2496,7.2496,7.2496,7.2496,7.2496,7.2496,7.2496,7.2496,7.2496,7.2496,7.2496,7.2496,7.2496,7.2496,7.2496,7.2496,7.2496,7.2496,7.2496,7.2496,7.2496,5.5871,5.7107,5.852,5.9726,6.1426,6.3092,6.4142,6.5229,6.6279,6.7329,6.6714,6.5917,6.5663,6.5808,6.6605,6.8488,6.9684,7.0661,7.1386,7.1494,7.1313,7.0842,7.0553,6.9865,6.8561,6.8162,6.7692,6.6858,6.6786,6.6786,6.6786,6.6786,6.6786,6.6786,6.6786,6.6786,6.6786,6.6786,6.6786,6.6786,6.6786,6.6786,6.6822,6.7366,6.7329,6.6822,6.7402,6.809,6.8778,6.8235,6.9249,7.1168,7.1422,7.1494,7.1494,7.1494,7.1494,7.1494,7.1494,7.1494,7.1494,7.1494,7.1494,7.1494,7.1494,7.1494,7.1567,7.182,7.2472,7.316,7.3414,7.3704,7.3849,7.3595,7.3523,7.3338,7.273,7.2585,7.2616,7.2857,7.2419,7.223,7.3061,7.2754,7.238,7.2467,7.2496,7.2496,7.2496,7.2496,7.2496,7.2496,7.2496,7.2496,7.2496,7.2496,7.2496,7.2496,7.2496,7.2496,7.2496,7.2496,7.2496,7.2496,7.2496,7.2496,7.2496,7.2496,7.2496,7.2496,7.2496,7.2496,5.7221,5.7289,5.7406,5.8202,6.0231,6.2412,6.407,6.5663,6.7293,6.8881,6.7945,6.6569,6.5772,6.6279,6.7076,6.7873,6.9321,7.0625,7.1386,7.1494,7.0915,6.9388,6.9895,6.943,6.704,6.7547,6.7692,6.6858,6.6786,6.6786,6.6786,6.6786,6.6786,6.6786,6.6786,6.6786,6.6786,6.6786,6.6786,6.6786,6.6786,6.6786,6.6786,6.6786,6.6786,6.6786,6.6786,6.7257,6.8017,6.8017,6.8959,7.0444,7.1205,7.1494,7.1494,7.1494,7.1494,7.1494,7.1494,7.1494,7.1494,7.1494,7.1494,7.1494,7.1494,7.1494,7.1675,7.2472,7.3305,7.4102,7.4866,7.4504,7.374,7.2907,7.2726,7.254,7.1967,7.1656,7.1687,7.221,7.2114,7.2114,7.2438,7.2496,7.2496,7.2496,7.2496,7.2496,7.2496,7.2496,7.2496,7.2496,7.2496,7.2496,7.2496,7.2496,7.2496,7.2496,7.2496,7.2496,7.2496,7.2496,7.2496,7.2496,7.2496,7.2496,7.2496,7.2496,7.2496,7.2496,7.2496,7.2496,5.5196,5.6462,5.8239,5.9035,6.1498,6.4106,6.5736,6.7329,6.8778,6.9828,6.9213,6.8054,6.6714,6.6641,6.6895,6.7112,6.8017,6.8995,6.9756,6.9865,6.9714,6.9243,6.9424,6.9032,6.7764,6.7873,6.7692,6.6858,6.6786,6.6786,6.6786,6.6786,6.6786,6.6786,6.6786,6.6786,6.6786,6.6786,6.6786,6.6786,6.6786,6.6786,6.6786,6.6786,6.6786,6.6786,6.6786,6.7257,6.809,6.9213,6.9611,6.9714,7.0987,7.1494,7.1494,7.1494,7.1494,7.1494,7.1494,7.1494,7.1494,7.1494,7.1494,7.1494,7.1494,7.1494,7.1675,7.2472,7.3305,7.4102,7.4866,7.5334,7.5406,7.4609,7.4526,7.4405,7.367,7.3078,7.2802,7.3081,7.2635,7.2263,7.2467,7.2496,7.2496,7.2496,7.2496,7.2496,7.2496,7.2496,7.2496,7.2496,7.2496,7.2496,7.2496,7.2496,7.2496,7.2496,7.2496,7.2496,7.2496,7.2496,7.2496,7.2496,7.2496,7.2496,7.2496,7.2496,7.2496,7.2496,7.2496,7.2496,5.59,5.7474,5.947,5.9977,6.2512,6.5482,6.7728,6.8959,6.9895,7.0661,7.0191,6.9249,6.7981,6.7728,6.7655,6.7329,6.7945,6.8633,6.9134,6.9207,6.9098,6.8742,6.8995,6.8742,6.7619,6.78,6.7692,6.6858,6.6786,6.6786,6.6786,6.6786,6.6786,6.6786,6.6786,6.6668,6.6391,6.6668,6.6668,6.6391,6.6668,6.6786,6.6786,6.6786,6.6786,6.6786,6.6786,6.7076,6.7619,6.8923,6.9358,6.9316,7.0553,7.1241,7.1494,7.1494,7.1494,7.1494,7.1494,7.1494,7.1494,7.1494,7.1494,7.1494,7.1494,7.1494,7.1748,7.2871,7.3559,7.4175,7.5297,7.5949,7.6094,7.5297,7.4928,7.4623,7.3951,7.3177,7.2753,7.3024,7.2688,7.2358,7.2467,7.2496,7.2496,7.2496,7.2496,7.2496,7.2496,7.2496,7.2496,7.2496,7.2496,7.2496,7.2496,7.2496,7.2496,7.2496,7.2496,7.2496,7.2496,7.2496,7.2496,7.2496,7.2496,7.2496,7.2496,7.2496,7.2496,7.2496,7.2496,7.2496,5.8146,5.9542,6.0846,6.0991,6.349,6.6714,6.972,7.0444,7.0661,7.135,7.0951,7.0258,6.9388,6.9207,6.8923,6.8126,6.8561,6.9026,6.9098,6.9026,6.8706,6.7981,6.8525,6.838,6.6931,6.7474,6.7583,6.6858,6.6786,6.6786,6.6786,6.6786,6.6786,6.6786,6.6727,6.6391,6.5728,6.6361,6.6361,6.5728,6.6452,6.6786,6.6786,6.6786,6.6786,6.6786,6.6786,6.6786,6.6858,6.7692,6.8452,6.9279,7.0113,7.0842,7.1494,7.1494,7.1494,7.1494,7.1494,7.1494,7.1494,7.1494,7.1494,7.1494,7.1494,7.1494,7.1857,7.345,7.3921,7.4283,7.5877,7.6275,7.613,7.5406,7.4537,7.3801,7.3281,7.2455,7.197,7.238,7.2351,7.2292,7.2467,7.2496,7.2496,7.2496,7.2496,7.2496,7.2496,7.2496,7.2496,7.2496,7.2496,7.2496,7.2496,7.2496,7.2496,7.2496,7.2496,7.2496,7.2496,7.2496,7.2496,7.2496,7.2496,7.2496,7.2496,7.2496,7.2496,7.2496,7.2496,7.2496,5.7416,5.9108,6.11,6.2367,6.5555,6.8772,7.0082,7.0842,7.1313,7.1458,7.1386,7.0842,6.9461,6.9207,6.8923,6.8126,6.7619,6.7547,6.8162,6.7728,6.7257,6.7076,6.7221,6.7184,6.6822,6.6967,6.7003,6.6822,6.6786,6.6786,6.6786,6.6786,6.6786,6.6786,6.6233,6.5855,6.5728,6.5855,6.5855,6.5728,6.6452,6.6786,6.6786,6.6786,6.6786,6.6786,6.6786,6.6786,6.6858,6.7692,6.8452,6.9279,7.0113,7.0842,7.1494,7.1494,7.1494,7.1494,7.1494,7.1494,7.1494,7.1494,7.1494,7.1494,7.1494,7.1494,7.1857,7.345,7.3921,7.4283,7.5877,7.6275,7.6239,7.6094,7.507,7.3929,7.3193,7.2362,7.1909,7.2299,7.2204,7.2174,7.2438,7.2496,7.2496,7.2496,7.2496,7.2496,7.2496,7.2496,7.2496,7.2496,7.2496,7.2496,7.2496,7.2496,7.2496,7.2496,7.2496,7.2496,7.2496,7.2496,7.2496,7.2496,7.2496,7.2496,7.2496,7.2496,7.2496,7.2496,7.2496,7.2496,5.8053,6.0122,6.2621,6.5374,6.7939,6.9973,7.0734,7.1205,7.1494,7.1494,7.1205,7.0589,6.9424,6.9207,6.8778,6.7619,6.7402,6.7402,6.7438,6.7076,6.6786,6.6786,6.6786,6.6786,6.6786,6.6786,6.6786,6.6786,6.6786,6.6786,6.6786,6.6786,6.6786,6.6786,6.611,6.5533,6.5174,6.5501,6.5501,6.5174,6.63,6.6786,6.6786,6.6786,6.6786,6.6786,6.6786,6.6786,6.6822,6.7257,6.8126,6.9243,6.9678,7.0517,7.1494,7.1494,7.1494,7.1494,7.1494,7.1494,7.1494,7.1494,7.1494,7.1494,7.1494,7.1494,7.1857,7.345,7.3921,7.4283,7.5877,7.6275,7.6203,7.5804,7.4856,7.3974,7.3638,7.2678,7.1964,7.227,7.2263,7.2321,7.2467,7.2496,7.2496,7.2496,7.2496,7.2496,7.2496,7.2496,7.2496,7.2496,7.2496,7.2496,7.2496,7.2496,7.2496,7.2496,7.2496,7.2496,7.2496,7.2496,7.2496,7.2496,7.2496,7.2496,7.2496,7.2496,7.2496,7.2496,7.2496,7.2496,5.876,6.1353,6.4323,6.8229,6.9714,7.0408,7.1313,7.1422,7.1313,7.1313,7.0806,7.0118,6.9352,6.9098,6.8561,6.7221,6.7474,6.7619,6.7076,6.6895,6.675,6.6605,6.6605,6.6605,6.6605,6.6605,6.6641,6.6786,6.6786,6.6786,6.6786,6.6786,6.6727,6.6638,6.5887,6.5174,6.4428,6.5141,6.5141,6.4428,6.576,6.6421,6.6421,6.6421,6.6482,6.6608,6.6608,6.6608,6.6608,6.6608,6.7638,6.9207,6.9207,7.0118,7.1494,7.1494,7.1494,7.1494,7.1494,7.1494,7.1494,7.1494,7.1494,7.1494,7.1494,7.1494,7.1857,7.345,7.3921,7.4283,7.5877,7.6275,7.6094,7.5297,7.45,7.3917,7.3997,7.2922,7.2054,7.2263,7.2409,7.2496,7.2496,7.2496,7.2496,7.2496,7.2496,7.2496,7.2496,7.2496,7.2496,7.2496,7.2496,7.2496,7.2496,7.2496,7.2496,7.2496,7.2496,7.2496,7.2496,7.2496,7.2496,7.2496,7.2496,7.2496,7.2496,7.2496,7.2496,7.2496,7.2496,7.2496,5.7784,6.1353,6.5048,6.8374,6.9279,6.975,7.1168,7.1024,7.0553,7.0553,7.0444,7.0118,6.9352,6.8633,6.809,6.7873,6.7366,6.7184,6.7764,6.7257,6.6533,6.5844,6.5772,6.5772,6.5772,6.5772,6.6062,6.675,6.6786,6.6786,6.6786,6.6786,6.6512,6.5855,6.5141,6.4393,6.3643,6.4393,6.4358,6.3643,6.4497,6.4907,6.4907,6.4907,6.524,6.5855,6.5855,6.5855,6.5855,6.5855,6.7168,6.9207,6.9207,7.0118,7.1494,7.1494,7.1494,7.1494,7.1494,7.1494,7.1494,7.1494,7.1494,7.1494,7.1494,7.1494,7.1857,7.345,7.3921,7.4283,7.5877,7.6275,7.6094,7.5297,7.45,7.3805,7.3427,7.2558,7.1933,7.238,7.2467,7.2496,7.2496,7.2496,7.2496,7.2496,7.2496,7.2496,7.2496,7.2496,7.2496,7.2496,7.2496,7.2496,7.2496,7.2496,7.2496,7.2496,7.2496,7.2496,7.2496,7.2496,7.2496,7.2496,7.2496,7.2496,7.2496,7.2496,7.2496,7.2496,7.2496,7.2496,5.85,6.2367,6.5736,6.8518,6.9533,7.0154,7.1241,7.0915,7.0372,7.0372,6.9684,6.8959,6.8597,6.7873,6.7329,6.7329,6.704,6.6931,6.7293,6.704,6.6677,6.6315,6.5881,6.5772,6.6243,6.5844,6.5917,6.675,6.6786,6.6786,6.6786,6.6786,6.6452,6.5728,6.4974,6.4253,6.3531,6.3825,6.404,6.4112,6.4463,6.4601,6.4601,6.4601,6.4772,6.5074,6.5074,6.5305,6.5728,6.5728,6.7074,6.9207,6.9207,7.0118,7.1494,7.1494,7.1494,7.1494,7.1494,7.1494,7.1494,7.1494,7.1494,7.1494,7.1494,7.1494,7.1857,7.345,7.3921,7.4283,7.5877,7.5985,7.5442,7.4645,7.3812,7.3112,7.2619,7.2182,7.2024,7.2409,7.2496,7.2496,7.2496,7.2496,7.2496,7.2496,7.2496,7.2496,7.2496,7.2496,7.2496,7.2496,7.2496,7.2496,7.2496,7.2496,7.2496,7.2496,7.2496,7.2496,7.2496,7.2496,7.2496,7.2496,7.2496,7.2496,7.2496,7.2496,7.2496,7.2496,7.2496,7.2496,5.8062,6.1534,6.4359,6.675,6.8126,6.9176,7.0335,7.0191,6.9823,6.9817,6.873,6.7679,6.7527,6.7135,6.6786,6.6786,6.6786,6.6786,6.6786,6.6786,6.6714,6.6533,6.5953,6.5772,6.6134,6.5844,6.5844,6.646,6.6496,6.6496,6.6496,6.6132,6.5669,6.5151,6.4387,6.3796,6.3233,6.3233,6.357,6.4323,6.4112,6.4041,6.4041,6.4041,6.4041,6.4041,6.4428,6.4907,6.5436,6.5597,6.7074,6.9207,6.9207,7.0118,7.1494,7.1494,7.1494,7.1494,7.1494,7.1494,7.1494,7.1494,7.1494,7.1494,7.1494,7.1494,7.1784,7.3197,7.374,7.4175,7.537,7.5406,7.483,7.3849,7.316,7.2568,7.2109,7.2048,7.2197,7.2438,7.2496,7.2496,7.2496,7.2496,7.2496,7.2496,7.2496,7.2496,7.2496,7.2496,7.2496,7.2496,7.2496,7.2496,7.2496,7.2496,7.2496,7.2496,7.2496,7.2496,7.2496,7.2496,7.2496,7.2496,7.2496,7.2496,7.2496,7.2496,7.2496,7.2496,7.2496,7.2496,5.4999,5.7117,5.9361,6.1761,6.3563,6.5301,6.7655,6.8162,6.8156,6.8269,6.7644,6.6866,6.6215,6.6489,6.6786,6.6786,6.6786,6.6786,6.6786,6.6786,6.6533,6.5736,6.5627,6.5301,6.4577,6.5192,6.5627,6.5663,6.5663,6.5663,6.5663,6.4339,6.3587,6.3545,6.2857,6.2513,6.2459,6.2459,6.2851,6.3533,6.2851,6.2537,6.2537,6.2537,6.2537,6.2581,6.397,6.4635,6.4703,6.5403,6.7074,6.9207,6.9207,7.0118,7.1494,7.1494,7.1494,7.1494,7.1494,7.1494,7.1494,7.1494,7.1494,7.1494,7.1494,7.1494,7.1675,7.2545,7.3305,7.3921,7.403,7.4573,7.4685,7.316,7.2726,7.2568,7.2109,7.2263,7.2467,7.2496,7.2496,7.2496,7.2496,7.2496,7.2496,7.2496,7.2496,7.2496,7.2496,7.2496,7.2496,7.2496,7.2496,7.2496,7.2496,7.2496,7.2496,7.2496,7.2496,7.2496,7.2496,7.2496,7.2496,7.2496,7.2496,7.2496,7.2496,7.2496,7.2496,7.2496,7.2496,7.2496,5.4679,5.6371,5.8347,6.1254,6.244,6.349,6.5917,6.646,6.6634,6.7317,6.6801,6.6175,6.6024,6.6151,6.643,6.6889,6.6932,6.6903,6.6786,6.6786,6.6677,6.6388,6.5917,6.57,6.5917,6.5736,6.5808,6.6315,6.6388,6.6134,6.5627,6.5141,6.4447,6.3442,6.3203,6.2884,6.242,6.2381,6.2537,6.2774,6.2537,6.2381,6.2381,6.2381,6.2381,6.2459,6.3459,6.4147,6.4704,6.5972,6.7573,6.9243,6.9787,7.0589,7.1494,7.1494,7.1494,7.1494,7.1494,7.1494,7.1494,7.1494,7.1494,7.1603,7.211,7.1929,7.1784,7.3124,7.3305,7.3269,7.3776,7.374,7.3305,7.2183,7.2086,7.2169,7.1945,7.2114,7.2387,7.2387,7.2438,7.2496,7.2496,7.2496,7.2312,7.1835,7.2165,7.2312,7.1798,7.2202,7.2496,7.2496,7.2496,7.2496,7.2496,7.2496,7.2496,7.2496,7.2496,7.2496,7.2496,7.2496,7.2496,7.2496,7.2496,7.2496,7.2496,7.2496,7.2496,7.2496,7.2496,7.2496,5.2658,5.4366,5.632,5.87,5.9663,6.0774,6.3708,6.4396,6.4786,6.63,6.6155,6.5848,6.6035,6.6062,6.6189,6.6596,6.6866,6.699,6.6874,6.6815,6.6786,6.6786,6.6315,6.6098,6.6388,6.617,6.6098,6.6388,6.6388,6.6083,6.5268,6.48,6.3992,6.2751,6.297,6.2889,6.2381,6.2381,6.2381,6.2381,6.2381,6.2381,6.2381,6.2381,6.2381,6.242,6.3158,6.3788,6.4358,6.6157,6.7629,6.8935,6.9984,7.0842,7.1494,7.1494,7.1494,7.1494,7.1494,7.1494,7.1494,7.1494,7.1494,7.1639,7.2472,7.2146,7.1784,7.3124,7.3124,7.2762,7.3052,7.2726,7.2183,7.1639,7.1651,7.1805,7.1718,7.2054,7.2358,7.2329,7.2416,7.2496,7.2496,7.2496,7.2312,7.1798,7.2165,7.2312,7.1798,7.2165,7.2496,7.2496,7.2496,7.2496,7.2496,7.2496,7.2496,7.2496,7.2496,7.2496,7.2496,7.2496,7.2496,7.2496,7.2496,7.2496,7.2496,7.2496,7.2496,7.2496,7.2496,7.2496,0.0,0.0,0.0,5.3732,5.4932,5.6946,6.0928,6.1869,6.2612,6.5182,6.5719,6.5803,6.6108,6.6162,6.6144,6.6007,6.6559,6.6983,6.7019,6.6874,6.6786,6.6786,6.6786,6.6496,6.57,6.6351,6.6496,6.57,6.5627,6.5298,6.4519,6.3103,6.1988,6.1337,6.2009,6.2381,6.2381,6.2381,6.2381,6.2381,6.2381,6.2381,6.2381,6.2381,6.2381,6.242,6.3158,6.3494,6.3673,6.5958,6.7407,6.8326,6.9832,7.0879,7.1494,7.1494,7.1494,7.1494,7.1494,7.1531,7.1531,7.1531,7.1531,7.1675,7.2472,7.2146,7.1675,7.2472,7.269,7.2472,7.1712,7.1494,7.1494,7.1494,7.1494,7.1494,7.1494,7.2018,7.2438,7.2329,7.238,7.2496,7.2496,7.2496,7.2496,7.2459,7.2459,7.2459,7.2459,7.2459,7.2459,7.2496,7.2496,7.2496,7.2496,7.2496,7.2496,7.2496,7.2496,7.2496,7.2496,7.2496,7.2496,7.2496,7.2496,7.2496,7.2496,7.2496,7.2496,7.2496,7.2496,7.2496,4.8659,0.0,0.0,0.0,0.0,0.0,5.729,5.87,6.0112,6.2667,6.3675,6.4312,6.5049,6.5661,6.6035,6.6007,6.6644,6.7097,6.6983,6.6874,6.6786,6.6786,6.6786,6.6714,6.6496,6.6677,6.6714,0.0,6.646,6.5875,6.4555,6.3096,6.2245,6.2115,6.2279,6.2381,6.2381,6.2381,6.2381,6.2381,6.2381,6.2381,6.2381,6.2381,6.2381,6.242,6.2615,6.3003,6.3699,6.5966,6.8026,6.9801,7.0234,7.0862,7.1494,7.1494,7.1494,7.1494,7.1494,7.1893,7.2291,7.1712,7.1893,7.2436,7.2653,7.2146,7.1675,7.2472,7.2291,7.1784,7.1567,7.1494,7.1494,7.1494,7.1682,7.1836,7.1749,7.2114,7.2409,7.2144,7.2233,7.2416,7.2467,7.2496,7.2312,7.1725,7.1651,7.1651,7.1651,7.1651,7.1872,7.2459,7.2496,7.2496,7.2496,7.2496,7.2496,7.2496,7.2496,7.2496,7.2496,7.2496,7.2496,7.2496,7.2496,7.2496,7.2496,7.2496,7.2496,7.2496,7.2496,7.2496,0.0,0.0,0.0,0.0,0.0,0.0,5.5732,5.6994,5.8438,6.148,6.2477,6.3221,6.4476,6.5122,6.5523,6.5943,6.6644,6.7097,6.7019,6.6874,6.6786,6.6786,6.6786,6.6786,6.6786,6.6786,6.6786,6.6786,6.6786,6.6145,6.4634,6.3131,6.237,6.242,6.2381,6.2381,6.2381,6.2381,6.2381,6.2381,6.2381,6.2381,6.2381,6.2381,6.2381,6.2415,6.2719,6.3459,6.4566,6.5872,6.7584,6.9501,7.0154,7.0845,7.1494,7.1494,7.1494,7.1567,7.1893,7.2327,7.2617,7.2146,7.2327,7.2726,7.2726,7.2146,7.1675,7.2472,7.211,7.1494,7.1494,7.1494,7.1494,7.1625,7.178,7.1933,7.1903,7.2114,7.2263,7.2174,7.2263,7.2416,7.2467,7.2496,7.2349,7.1872,7.1798,7.1798,7.1798,7.1798,7.1982,7.2459,7.2496,7.2496,7.2496,7.2496,7.2496,7.2496,7.2496,7.2496,7.2496,7.2496,7.2496,7.2496,7.2496,7.2496,7.2496,7.2496,7.2496,7.2496,7.2496,7.2496,4.6786,4.8211,0.0,0.0,5.0758,0.0,5.5024,5.5864,5.6912,6.0512,6.1389,6.2014,6.3584,6.4148,6.4539,6.5296,6.6131,6.6772,6.6983,6.6874,6.6786,6.6786,6.6786,6.6786,6.6786,6.6786,6.6757,6.6697,6.6548,6.5922,6.4669,6.3196,6.2381,6.2381,6.2381,6.2381,6.2381,6.2381,6.2381,6.2381,6.2381,6.2381,6.2381,6.2381,6.2415,6.255,6.3226,6.4375,6.5791,6.5719,6.6711,6.8361,6.9741,7.0709,7.1399,7.1463,7.1494,7.1603,7.2327,7.2653,7.269,7.2617,7.2653,7.269,7.2617,7.2074,7.1639,7.2364,7.2074,7.1494,7.1494,7.1494,7.1526,7.1718,7.1816,7.1842,7.1988,7.2048,7.2108,7.2263,7.2416,7.2467,7.2496,7.2496,7.2496,7.2496,7.2422,7.2422,7.2496,7.2422,7.2422,7.2496,7.2496,7.2496,7.2496,7.2496,7.2496,7.2496,7.2496,7.2496,7.2496,7.2496,7.2496,7.2496,7.2496,7.2496,7.2496,7.2496,7.2496,7.2496,7.2496,7.2496,4.6786,4.7518,4.8455,4.9233,0.0,0.0,5.1801,5.2446,5.3501,5.5991,5.7558,5.8699,5.948,6.1199,6.2386,6.1906,6.3546,6.5387,6.6809,6.6874,6.6786,6.6786,6.6786,6.6786,6.6786,6.6786,6.6542,6.5949,6.4806,6.4253,6.4601,6.3196,6.2381,6.2381,6.2381,6.2381,6.2381,6.2381,6.2381,6.2381,6.2381,6.2381,6.2381,6.2381,6.2719,6.3294,6.3463,6.4322,6.5705,6.5711,6.6986,6.9026,6.9313,6.992,7.0711,7.1304,7.1494,7.1531,7.1675,7.2183,7.2617,7.1965,7.2183,7.2581,7.1929,7.1639,7.1531,7.1712,7.1639,7.1494,7.1494,7.1494,7.1526,7.1718,7.1872,7.1988,7.2204,7.2321,7.2409,7.2438,7.238,7.2351,7.2467,7.2496,7.2496,7.2496,7.1945,7.1798,7.2422,7.1945,7.1798,7.2422,7.2496,7.2496,7.2496,7.2496,7.2496,7.2496,7.2496,7.2496,7.2496,7.2496,7.2496,7.2496,7.2496,7.2496,7.2496,7.2496,7.2496,7.2496,7.2496,7.2496,4.6756,4.7327,4.8075,4.8815,0.0,0.0,0.0,5.161,5.2606,5.4386,5.5411,5.6253,5.7227,5.8412,5.9574,6.0612,6.2476,6.4243,6.5524,6.6337,6.6786,6.6786,6.6786,6.6786,6.6786,6.6452,6.5918,6.5207,6.4112,6.3643,6.4005,6.3007,6.2381,6.2381,6.2381,6.2381,6.2381,6.2381,6.2381,6.2381,6.2381,6.2381,6.2415,6.2787,6.3159,6.3565,6.4275,6.5019,6.573,6.6102,6.6943,6.8019,6.8447,6.9347,7.044,7.0811,7.1171,7.1567,7.1965,7.2364,7.2653,7.2219,7.2364,7.2545,7.1748,7.1494,7.1494,7.1494,7.1494,7.1494,7.1494,7.1494,7.1526,7.1718,7.1903,7.2054,7.227,7.2416,7.2496,7.2496,7.2438,7.2409,7.2467,7.2496,7.2496,7.2496,7.2165,7.2055,7.2459,7.2165,7.2055,7.2459,7.2496,7.2496,7.2496,7.2496,7.2496,7.2496,7.2496,7.2496,7.2496,7.2496,7.2496,7.2496,7.2496,7.2496,7.2496,7.2496,7.2496,7.2496,7.2496,7.2496,0.0,0.0,0.0,0.0,0.0,4.9477,0.0,0.0,0.0,5.32,5.3589,5.4007,5.5087,5.5552,5.6545,5.8916,6.0763,6.2205,6.2998,6.4511,6.5718,6.625,6.6605,6.675,6.6569,6.5766,6.5098,6.46,6.365,6.3174,6.3459,6.2813,6.2381,6.2381,6.2381,6.2381,6.2381,6.2381,6.2381,6.2381,6.2381,6.2381,6.2415,6.3159,6.3599,6.3802,6.5121,6.5764,6.5967,6.6542,6.6812,6.6896,6.769,6.879,6.999,7.0268,7.0778,7.1376,7.2191,7.2472,7.2472,7.2472,7.2472,7.2364,7.1712,7.1494,7.1494,7.1494,7.1494,7.1494,7.1494,7.1494,7.1526,7.1718,7.1872,7.2024,7.227,7.2416,7.2467,7.2496,7.2496,7.2496,7.2496,7.2496,7.2496,7.2496,7.2496,7.2496,7.2496,7.2496,7.2496,7.2496,7.2496,7.2496,7.2496,7.2496,7.2496,7.2496,7.2496,7.2496,7.2496,7.2496,7.2496,7.2496,7.2496,7.2496,7.2496,7.2496,7.2496,7.2496,7.2496,7.2496,0.0,0.0,0.0,0.0,4.9492,0.0,0.0,0.0,4.9562,5.0252,0.0,5.1431,5.1357,0.0,0.0,0.0,0.0,5.7594,5.8376,5.9854,6.1839,6.4354,6.5917,6.6533,6.5808,6.4536,6.3965,6.4566,6.2726,6.2131,6.3459,6.2813,6.2381,6.2381,6.2381,6.2381,6.2381,6.2381,6.2381,6.2381,6.2381,6.2381,6.2415,6.3159,6.3869,6.4512,6.5324,6.6068,6.6677,6.6779,6.6812,6.6896,6.769,6.8132,6.8447,6.9849,7.044,7.0644,7.138,7.1639,7.1639,7.1639,7.1639,7.1639,7.1531,7.1494,7.1494,7.1494,7.1494,7.1494,7.1494,7.1494,7.1526,7.1718,7.1816,7.1909,7.224,7.2329,7.2358,7.2467,7.2496,7.2496,7.2496,7.2496,7.2496,7.2496,7.2496,7.2496,7.2496,7.2496,7.2496,7.2496,7.2496,7.2496,7.2496,7.2496,7.2496,7.2496,7.2496,7.2496,7.2496,7.2496,7.2496,7.2496,7.2496,7.2496,7.2496,7.2496,7.2496,7.2496,7.2496,7.2496,0.0,0.0,0.0,0.0,0.0,0.0,4.9187,0.0,4.9046,0.0,0.0,0.0,0.0,0.0,0.0,0.0,5.4681,0.0,5.6932,5.8827,6.0525,6.1788,0.0,0.0,6.3004,6.2891,6.2786,6.2697,6.1817,6.1757,6.2817,6.2576,6.2381,6.2381,6.2381,6.2381,6.2381,6.2381,6.2381,6.2381,6.2381,6.2381,6.2415,6.3599,6.4309,6.4647,6.5831,6.6508,6.6812,6.6812,6.6812,6.6854,6.7154,6.761,6.8132,6.9273,7.0274,7.1151,7.1416,7.182,7.211,7.1639,7.1494,7.1494,7.1494,7.1494,7.1494,7.1494,7.1494,7.1494,7.1494,7.1494,7.1494,7.1625,7.1718,7.1878,7.2084,7.2204,7.2358,7.2467,7.2496,7.2496,7.2496,7.2496,7.2496,7.2496,7.2496,7.2496,7.2496,7.2496,7.2496,7.2496,7.2496,7.2496,7.2496,7.2496,7.2496,7.2496,7.2496,7.2496,7.2496,7.2496,7.2496,7.2496,7.2496,7.2496,7.2496,7.2496,7.2496,7.2496,7.2496,7.2496,4.8115,0.0,0.0,0.0,0.0,0.0,0.0,0.0,0.0,0.0,0.0,0.0,0.0,0.0,0.0,0.0,0.0,5.45,0.0,5.6722,0.0,0.0,0.0,0.0,0.0,6.0862,6.0982,6.0702,6.0486,6.0858,6.2042,6.211,6.2178,6.2381,6.2381,6.2381,6.2381,6.2381,6.2381,6.2381,6.2381,6.2381,6.2448,6.3937,6.4613,6.4681,6.617,6.6812,6.6812,6.6812,6.6812,6.6812,6.6812,6.7154,6.7736,6.8562,6.9625,7.0664,7.1038,7.1693,7.2286,7.1685,7.1494,7.1494,7.1494,7.1494,7.1494,7.1494,7.1494,7.1494,7.1494,7.1494,7.1494,7.1494,7.1625,7.178,7.1957,7.2114,7.2263,7.2467,7.2496,7.2496,7.2496,7.2496,7.2496,7.2496,7.2496,7.2496,7.2496,7.2496,7.2496,7.2496,7.2496,7.2496,7.2496,7.2496,7.2496,7.2496,7.2496,7.2496,7.2496,7.2496,7.2496,7.2496,7.2496,7.2496,7.2496,7.2496,7.2496,7.2496,7.2496,7.2496,0.0,0.0,0.0,4.8308,0.0,0.0,0.0,0.0,4.9187,0.0,0.0,0.0,0.0,0.0,0.0,0.0,0.0,0.0,0.0,0.0,0.0,0.0,0.0,0.0,0.0,5.8457,5.8325,0.0,5.8423,5.8964,6.1231,6.1332,6.167,6.2381,6.2381,6.2381,6.2381,6.2381,6.2381,6.2381,6.2381,6.2381,6.2448,6.3937,6.4613,6.4681,6.617,6.6812,6.6812,6.6812,6.6812,6.6812,6.6812,6.6812,6.6938,6.7736,6.8054,6.8349,6.9817,7.0874,7.1546,7.1524,7.1494,7.1494,7.1494,7.1494,7.1494,7.1494,7.1494,7.1494,7.1494,7.1494,7.1494,7.1494,7.1494,7.1589,7.1927,7.2018,7.2108,7.2438,7.2496,7.2496,7.2496,7.2496,7.2496,7.2496,7.2496,7.2496,7.2496,7.2496,7.2496,7.2496,7.2496,7.2496,7.2496,7.2496,7.2496,7.2496,7.2496,7.2496,7.2496,7.2496,7.2496,7.2496,7.2496,7.2496,7.2496,7.2496,7.2496,7.2496,7.2496,7.2496,0.0,0.0,5.0608,4.9593,0.0,0.0,0.0,0.0,0.0,0.0,0.0,0.0,0.0,0.0,0.0,0.0,0.0,0.0,0.0,0.0,0.0,0.0,0.0,0.0,0.0,0.0,5.7226,5.7512,5.778,5.866,6.0419,6.1028,6.1637,6.2381,6.2381,6.2381,6.2381,6.2381,6.2381,6.2381,6.2381,6.2651,6.3159,6.414,6.4884,6.5358,6.6373,6.6812,6.6812,6.6812,6.6812,6.6812,6.6812,6.6812,6.6896,6.7696,6.8325,6.8932,6.999,7.0521,7.0763,7.0783,7.1074,7.1494,7.1494,7.1494,7.1494,7.1494,7.1494,7.1494,7.1494,7.1494,7.1494,7.1494,7.1494,7.1702,7.2502,7.2698,7.2997,7.3793,7.3612,7.3303,7.3303,7.2863,7.2496,7.2496,7.2496,7.2496,7.2496,7.2496,7.2496,7.2496,7.2496,7.2496,7.2496,7.2496,7.2496,7.2496,7.2496,7.2496,7.2496,7.2496,7.2496,7.2496,7.2496,7.2496,7.2496,7.2496,7.2496,7.2496,7.2496,7.2496,5.0407,5.0845,0.0,5.027,4.9729,0.0,4.8815,0.0,4.9258,0.0,0.0,0.0,0.0,0.0,0.0,0.0,0.0,0.0,0.0,5.1285,0.0,0.0,0.0,0.0,0.0,0.0,5.5791,5.6361,5.6867,5.7746,0.0,6.0317,6.1231,6.1975,6.2245,6.2381,6.2381,6.2381,6.2381,6.2381,6.2651,6.3057,6.3531,6.4546,6.5256,6.573,6.6474,6.6812,6.6812,6.6812,6.6812,6.6812,6.6812,6.6812,6.6854,6.7366,6.8055,6.8835,6.9358,6.9908,7.0381,7.041,7.0911,7.1494,7.1494,7.1494,7.1494,7.1494,7.1494,7.1494,7.1494,7.1494,7.1494,7.1494,7.1494,7.1707,7.2439,7.2667,7.2997,7.3696,7.3545,7.3266,7.3266,7.2826,7.2496,7.2496,7.2496,7.2496,7.2496,7.2496,7.2496,7.2496,7.2496,7.2496,7.2496,7.2496,7.2496,7.2496,7.2496,7.2496,7.2496,7.2496,7.2496,7.2496,7.2496,7.2496,7.2496,7.2496,7.2496,7.2496,7.2496,7.2496]}]]